| time (UTC) | temp F | wind direction | speed MPH | gust MPH | rain 1hr in | rain 24hr in | rain mn in | humidity % | barometer mb |
| 20260507165904 | 58 | 64 | 1.0 | 8.0 | 0.00 | 0.06 | 0.00 | 39 | 1008.2 |
| 20260507165804 | 58 | 51 | 1.0 | 7.0 | 0.00 | 0.06 | 0.00 | 39 | 1008.2 |
| 20260507165704 | 58 | 50 | 1.0 | 7.0 | 0.00 | 0.06 | 0.00 | 39 | 1008.1 |
| 20260507165604 | 58 | 48 | 1.0 | 7.0 | 0.00 | 0.06 | 0.00 | 39 | 1008.2 |
| 20260507165504 | 58 | 45 | 1.0 | 7.0 | 0.00 | 0.06 | 0.00 | 40 | 1008.2 |
| 20260507165404 | 58 | 33 | 1.0 | 13.0 | 0.00 | 0.06 | 0.00 | 39 | 1008.2 |
| 20260507165306 | 58 | 32 | 1.0 | 13.0 | 0.00 | 0.06 | 0.00 | 39 | 1008.2 |
| 20260507165204 | 58 | 29 | 1.0 | 13.0 | 0.00 | 0.07 | 0.00 | 39 | 1008.2 |
| 20260507165104 | 58 | 28 | 1.0 | 13.0 | 0.00 | 0.07 | 0.00 | 39 | 1008.2 |
| 20260507165004 | 58 | 25 | 1.0 | 13.0 | 0.00 | 0.07 | 0.00 | 38 | 1008.2 |
| 20260507164904 | 58 | 24 | 1.0 | 13.0 | 0.00 | 0.07 | 0.00 | 39 | 1008.2 |
| 20260507164804 | 58 | 23 | 1.0 | 13.0 | 0.00 | 0.07 | 0.00 | 38 | 1008.3 |
| 20260507164704 | 58 | 21 | 1.0 | 13.0 | 0.00 | 0.07 | 0.00 | 38 | 1008.3 |
| 20260507164604 | 58 | 17 | 1.0 | 13.0 | 0.00 | 0.07 | 0.00 | 38 | 1008.3 |
| 20260507164504 | 58 | 19 | 2.0 | 13.0 | 0.00 | 0.07 | 0.00 | 38 | 1008.3 |
| 20260507164404 | 58 | 21 | 1.0 | 12.0 | 0.00 | 0.07 | 0.00 | 39 | 1008.3 |
| 20260507164304 | 58 | 21 | 1.0 | 12.0 | 0.00 | 0.08 | 0.00 | 39 | 1008.3 |
| 20260507164204 | 58 | 22 | 1.0 | 12.0 | 0.00 | 0.08 | 0.00 | 39 | 1008.3 |
| 20260507164104 | 58 | 23 | 1.0 | 12.0 | 0.00 | 0.08 | 0.00 | 38 | 1008.2 |
| 20260507164004 | 58 | 23 | 1.0 | 12.0 | 0.00 | 0.08 | 0.00 | 38 | 1008.3 |
| 20260507163904 | 58 | 26 | 2.0 | 12.0 | 0.00 | 0.08 | 0.00 | 38 | 1008.3 |
| 20260507163804 | 58 | 31 | 2.0 | 12.0 | 0.00 | 0.08 | 0.00 | 37 | 1008.4 |
| 20260507163704 | 58 | 31 | 2.0 | 12.0 | 0.00 | 0.08 | 0.00 | 37 | 1008.4 |
| 20260507163604 | 58 | 33 | 1.0 | 12.0 | 0.00 | 0.08 | 0.00 | 39 | 1008.4 |
| 20260507163525 | 58 | 39 | 1.0 | 8.0 | 0.00 | 0.08 | 0.00 | 39 | 1008.4 |
| 20260507163425 | 58 | 44 | 1.0 | 8.0 | 0.00 | 0.08 | 0.00 | 38 | 1008.4 |
| 20260507163325 | 58 | 44 | 1.0 | 8.0 | 0.00 | 0.08 | 0.00 | 40 | 1008.3 |
| 20260507163225 | 58 | 46 | 1.0 | 8.0 | 0.00 | 0.08 | 0.00 | 40 | 1008.3 |
| 20260507163125 | 58 | 48 | 1.0 | 8.0 | 0.00 | 0.08 | 0.00 | 41 | 1008.3 |
| 20260507163004 | 58 | 51 | 1.0 | 8.0 | 0.00 | 0.08 | 0.00 | 39 | 1008.3 |
| 20260507162904 | 58 | 51 | 1.0 | 8.0 | 0.00 | 0.08 | 0.00 | 39 | 1008.3 |
| 20260507162804 | 58 | 44 | 1.0 | 8.0 | 0.00 | 0.08 | 0.00 | 39 | 1008.3 |
| 20260507162704 | 57 | 45 | 1.0 | 8.0 | 0.00 | 0.08 | 0.00 | 39 | 1008.3 |
| 20260507162604 | 57 | 45 | 1.0 | 8.0 | 0.00 | 0.08 | 0.00 | 38 | 1008.3 |
| 20260507162504 | 57 | 48 | 1.0 | 7.0 | 0.00 | 0.08 | 0.00 | 39 | 1008.5 |
| 20260507162404 | 57 | 47 | 1.0 | 7.0 | 0.00 | 0.08 | 0.00 | 39 | 1008.5 |
| 20260507162306 | 57 | 43 | 1.0 | 7.0 | 0.00 | 0.08 | 0.00 | 39 | 1008.4 |
| 20260507162204 | 57 | 40 | 1.0 | 8.0 | 0.00 | 0.08 | 0.00 | 38 | 1008.5 |
| 20260507162104 | 57 | 39 | 1.0 | 8.0 | 0.00 | 0.08 | 0.00 | 37 | 1008.5 |
| 20260507162004 | 57 | 39 | 1.0 | 8.0 | 0.00 | 0.08 | 0.00 | 37 | 1008.5 |
| 20260507161904 | 58 | 34 | 2.0 | 8.0 | 0.00 | 0.08 | 0.00 | 38 | 1008.5 |
| 20260507161804 | 58 | 32 | 2.0 | 8.0 | 0.00 | 0.08 | 0.00 | 38 | 1008.4 |
| 20260507161704 | 58 | 31 | 2.0 | 8.0 | 0.00 | 0.08 | 0.00 | 37 | 1008.5 |
| 20260507161604 | 58 | 28 | 2.0 | 8.0 | 0.00 | 0.08 | 0.00 | 37 | 1008.5 |
| 20260507161504 | 58 | 28 | 2.0 | 8.0 | 0.00 | 0.08 | 0.00 | 37 | 1008.5 |
| 20260507161404 | 58 | 26 | 2.0 | 8.0 | 0.00 | 0.08 | 0.00 | 38 | 1008.5 |
| 20260507161304 | 58 | 23 | 2.0 | 11.0 | 0.00 | 0.08 | 0.00 | 38 | 1008.6 |
| 20260507161204 | 58 | 20 | 2.0 | 11.0 | 0.00 | 0.08 | 0.00 | 38 | 1008.5 |
| 20260507161104 | 58 | 19 | 2.0 | 11.0 | 0.00 | 0.08 | 0.00 | 39 | 1008.5 |
| 20260507161004 | 58 | 20 | 2.0 | 11.0 | 0.00 | 0.08 | 0.00 | 38 | 1008.5 |
| 20260507160904 | 57 | 20 | 2.0 | 11.0 | 0.00 | 0.08 | 0.00 | 37 | 1008.6 |
| 20260507160804 | 57 | 20 | 2.0 | 11.0 | 0.00 | 0.08 | 0.00 | 37 | 1008.6 |
| 20260507160704 | 57 | 20 | 2.0 | 11.0 | 0.00 | 0.08 | 0.00 | 38 | 1008.6 |
| 20260507160604 | 57 | 21 | 2.0 | 11.0 | 0.00 | 0.08 | 0.00 | 38 | 1008.6 |
| 20260507160503 | 57 | 22 | 3.0 | 11.0 | 0.00 | 0.08 | 0.00 | 39 | 1008.6 |
| 20260507160404 | 57 | 23 | 2.0 | 11.0 | 0.00 | 0.08 | 0.00 | 38 | 1008.7 |
| 20260507160304 | 57 | 24 | 2.0 | 9.0 | 0.00 | 0.08 | 0.00 | 38 | 1008.7 |
| 20260507160204 | 57 | 25 | 2.0 | 9.0 | 0.00 | 0.08 | 0.00 | 37 | 1008.7 |
| 20260507160104 | 57 | 26 | 2.0 | 9.0 | 0.00 | 0.08 | 0.00 | 37 | 1008.7 |
| 20260507160004 | 57 | 27 | 1.0 | 9.0 | 0.00 | 0.08 | 0.00 | 37 | 1008.7 |
| 20260507155904 | 57 | 26 | 1.0 | 9.0 | 0.00 | 0.08 | 0.00 | 37 | 1008.7 |
| 20260507155804 | 58 | 29 | 1.0 | 9.0 | 0.00 | 0.08 | 0.00 | 36 | 1008.7 |
| 20260507155704 | 58 | 33 | 1.0 | 8.0 | 0.00 | 0.08 | 0.00 | 37 | 1008.6 |
| 20260507155604 | 58 | 35 | 0.0 | 8.0 | 0.00 | 0.08 | 0.00 | 37 | 1008.7 |
| 20260507155504 | 58 | 36 | 0.0 | 5.0 | 0.00 | 0.08 | 0.00 | 37 | 1008.7 |
| 20260507155404 | 58 | 36 | 0.0 | 5.0 | 0.00 | 0.08 | 0.00 | 37 | 1008.7 |
| 20260507155306 | 58 | 34 | 1.0 | 8.0 | 0.00 | 0.08 | 0.00 | 39 | 1008.7 |
| 20260507155204 | 58 | 34 | 1.0 | 8.0 | 0.00 | 0.08 | 0.00 | 37 | 1008.7 |
| 20260507155104 | 58 | 34 | 1.0 | 8.0 | 0.00 | 0.08 | 0.00 | 38 | 1008.7 |
| 20260507155004 | 58 | 34 | 1.0 | 8.0 | 0.00 | 0.08 | 0.00 | 38 | 1008.7 |
| 20260507154904 | 58 | 35 | 1.0 | 8.0 | 0.00 | 0.08 | 0.00 | 38 | 1008.8 |
| 20260507154804 | 58 | 35 | 1.0 | 8.0 | 0.00 | 0.08 | 0.00 | 38 | 1008.8 |
| 20260507154704 | 57 | 31 | 1.0 | 8.0 | 0.00 | 0.08 | 0.00 | 38 | 1008.8 |
| 20260507154604 | 57 | 25 | 2.0 | 10.0 | 0.00 | 0.08 | 0.00 | 38 | 1008.8 |
| 20260507154504 | 57 | 27 | 2.0 | 11.0 | 0.00 | 0.08 | 0.00 | 37 | 1008.9 |
| 20260507154404 | 57 | 27 | 2.0 | 11.0 | 0.00 | 0.08 | 0.00 | 38 | 1008.9 |
| 20260507154304 | 57 | 28 | 2.0 | 11.0 | 0.00 | 0.08 | 0.00 | 39 | 1008.9 |
| 20260507154204 | 57 | 30 | 2.0 | 11.0 | 0.00 | 0.08 | 0.00 | 39 | 1008.9 |
| 20260507154104 | 57 | 31 | 2.0 | 11.0 | 0.00 | 0.08 | 0.00 | 38 | 1008.9 |
| 20260507154004 | 57 | 31 | 2.0 | 11.0 | 0.00 | 0.08 | 0.00 | 38 | 1008.9 |
| 20260507153904 | 57 | 29 | 2.0 | 11.0 | 0.00 | 0.08 | 0.00 | 38 | 1008.9 |
| 20260507153804 | 57 | 27 | 2.0 | 11.0 | 0.00 | 0.08 | 0.00 | 37 | 1009.0 |
| 20260507153705 | 57 | 26 | 3.0 | 11.0 | 0.00 | 0.08 | 0.00 | 37 | 1009.0 |
| 20260507153604 | 57 | 27 | 2.0 | 11.0 | 0.00 | 0.08 | 0.00 | 38 | 1009.0 |
| 20260507153504 | 57 | 25 | 2.0 | 9.0 | 0.00 | 0.08 | 0.00 | 39 | 1009.0 |
| 20260507153404 | 57 | 25 | 2.0 | 9.0 | 0.00 | 0.08 | 0.00 | 39 | 1009.0 |
| 20260507153304 | 56 | 22 | 2.0 | 9.0 | 0.00 | 0.08 | 0.00 | 38 | 1009.1 |
| 20260507153204 | 56 | 19 | 2.0 | 9.0 | 0.00 | 0.08 | 0.00 | 39 | 1009.1 |
| 20260507153104 | 56 | 17 | 2.0 | 9.0 | 0.00 | 0.08 | 0.00 | 39 | 1009.1 |
| 20260507153004 | 56 | 16 | 3.0 | 9.0 | 0.00 | 0.08 | 0.00 | 38 | 1009.1 |
| 20260507152904 | 56 | 14 | 3.0 | 12.0 | 0.00 | 0.08 | 0.00 | 37 | 1009.1 |
| 20260507152825 | 56 | 13 | 3.0 | 12.0 | 0.00 | 0.08 | 0.00 | 37 | 1009.2 |
| 20260507152725 | 56 | 14 | 3.0 | 12.0 | 0.00 | 0.08 | 0.00 | 38 | 1009.2 |
| 20260507152625 | 56 | 16 | 3.0 | 12.0 | 0.00 | 0.08 | 0.00 | 39 | 1009.1 |
| 20260507152525 | 56 | 15 | 4.0 | 12.0 | 0.00 | 0.08 | 0.00 | 37 | 1009.2 |
| 20260507152425 | 56 | 16 | 4.0 | 13.0 | 0.00 | 0.08 | 0.00 | 38 | 1009.2 |
| 20260507152306 | 56 | 18 | 4.0 | 13.0 | 0.00 | 0.08 | 0.00 | 38 | 1009.3 |
| 20260507152204 | 56 | 18 | 4.0 | 13.0 | 0.00 | 0.08 | 0.00 | 38 | 1009.3 |
| 20260507152104 | 56 | 19 | 4.0 | 13.0 | 0.00 | 0.08 | 0.00 | 36 | 1009.3 |
| 20260507152004 | 56 | 20 | 4.0 | 13.0 | 0.00 | 0.08 | 0.00 | 38 | 1009.2 |
| 20260507151904 | 56 | 22 | 3.0 | 13.0 | 0.00 | 0.08 | 0.00 | 37 | 1009.2 |
| 20260507151804 | 56 | 24 | 3.0 | 13.0 | 0.00 | 0.08 | 0.00 | 37 | 1009.2 |
| 20260507151704 | 56 | 19 | 3.0 | 13.0 | 0.00 | 0.08 | 0.00 | 38 | 1009.2 |
| 20260507151604 | 56 | 18 | 3.0 | 13.0 | 0.00 | 0.08 | 0.00 | 38 | 1009.2 |
| 20260507151504 | 56 | 22 | 2.0 | 10.0 | 0.00 | 0.08 | 0.00 | 39 | 1009.2 |
| 20260507151404 | 56 | 16 | 2.0 | 10.0 | 0.00 | 0.08 | 0.00 | 38 | 1009.2 |
| 20260507151304 | 56 | 15 | 2.0 | 10.0 | 0.00 | 0.08 | 0.00 | 39 | 1009.2 |
| 20260507151204 | 56 | 14 | 2.0 | 8.0 | 0.00 | 0.08 | 0.00 | 39 | 1009.2 |
| 20260507151104 | 56 | 12 | 2.0 | 7.0 | 0.00 | 0.08 | 0.00 | 39 | 1009.2 |
| 20260507151004 | 56 | 11 | 3.0 | 8.0 | 0.00 | 0.08 | 0.00 | 38 | 1009.2 |
| 20260507150904 | 56 | 11 | 2.0 | 8.0 | 0.00 | 0.08 | 0.00 | 38 | 1009.3 |
| 20260507150804 | 56 | 11 | 2.0 | 8.0 | 0.00 | 0.08 | 0.00 | 38 | 1009.3 |
| 20260507150704 | 56 | 13 | 2.0 | 10.0 | 0.00 | 0.08 | 0.00 | 39 | 1009.2 |
| 20260507150604 | 56 | 16 | 2.0 | 10.0 | 0.00 | 0.08 | 0.00 | 40 | 1009.2 |
| 20260507150504 | 56 | 16 | 2.0 | 10.0 | 0.00 | 0.08 | 0.00 | 40 | 1009.2 |
| 20260507150404 | 56 | 17 | 2.0 | 10.0 | 0.00 | 0.08 | 0.00 | 39 | 1009.3 |
| 20260507150304 | 56 | 17 | 2.0 | 10.0 | 0.00 | 0.08 | 0.00 | 39 | 1009.3 |
| 20260507150204 | 56 | 17 | 2.0 | 10.0 | 0.00 | 0.08 | 0.00 | 39 | 1009.2 |
| 20260507150104 | 56 | 18 | 2.0 | 10.0 | 0.00 | 0.08 | 0.00 | 39 | 1009.2 |
| 20260507150004 | 56 | 19 | 2.0 | 10.0 | 0.00 | 0.08 | 0.00 | 40 | 1009.3 |
| 20260507145904 | 55 | 18 | 2.0 | 10.0 | 0.00 | 0.08 | 0.00 | 39 | 1009.4 |
| 20260507145804 | 55 | 18 | 3.0 | 11.0 | 0.00 | 0.08 | 0.00 | 39 | 1009.4 |
| 20260507145704 | 55 | 18 | 2.0 | 11.0 | 0.00 | 0.08 | 0.00 | 39 | 1009.3 |
| 20260507145604 | 55 | 16 | 2.0 | 11.0 | 0.00 | 0.08 | 0.00 | 39 | 1009.3 |
| 20260507145504 | 55 | 17 | 2.0 | 11.0 | 0.00 | 0.08 | 0.00 | 39 | 1009.3 |
| 20260507145404 | 55 | 19 | 2.0 | 11.0 | 0.00 | 0.08 | 0.00 | 39 | 1009.3 |
| 20260507145306 | 56 | 21 | 2.0 | 11.0 | 0.00 | 0.08 | 0.00 | 39 | 1009.3 |
| 20260507145203 | 56 | 23 | 2.0 | 11.0 | 0.00 | 0.08 | 0.00 | 39 | 1009.3 |
| 20260507145103 | 56 | 23 | 2.0 | 11.0 | 0.00 | 0.08 | 0.00 | 39 | 1009.3 |
| 20260507145003 | 56 | 21 | 3.0 | 11.0 | 0.00 | 0.08 | 0.00 | 39 | 1009.3 |
| 20260507144903 | 56 | 19 | 3.0 | 13.0 | 0.00 | 0.08 | 0.00 | 41 | 1009.3 |
| 20260507144804 | 55 | 20 | 3.0 | 13.0 | 0.00 | 0.08 | 0.00 | 40 | 1009.2 |
| 20260507144704 | 55 | 19 | 3.0 | 13.0 | 0.00 | 0.08 | 0.00 | 40 | 1009.2 |
| 20260507144604 | 55 | 20 | 3.0 | 13.0 | 0.00 | 0.08 | 0.00 | 40 | 1009.2 |
| 20260507144504 | 55 | 20 | 3.0 | 13.0 | 0.00 | 0.08 | 0.00 | 40 | 1009.2 |
| 20260507144404 | 55 | 18 | 3.0 | 13.0 | 0.00 | 0.08 | 0.00 | 40 | 1009.2 |
| 20260507144304 | 55 | 17 | 2.0 | 13.0 | 0.00 | 0.08 | 0.00 | 39 | 1009.2 |
| 20260507144204 | 55 | 17 | 2.0 | 13.0 | 0.00 | 0.08 | 0.00 | 39 | 1009.2 |
| 20260507144104 | 55 | 16 | 2.0 | 13.0 | 0.00 | 0.08 | 0.00 | 39 | 1009.3 |
| 20260507144004 | 55 | 15 | 2.0 | 14.0 | 0.00 | 0.08 | 0.00 | 39 | 1009.2 |
| 20260507143904 | 55 | 17 | 2.0 | 14.0 | 0.00 | 0.08 | 0.00 | 40 | 1009.2 |
| 20260507143803 | 55 | 15 | 2.0 | 14.0 | 0.00 | 0.08 | 0.00 | 40 | 1009.2 |
| 20260507143703 | 55 | 14 | 2.0 | 14.0 | 0.00 | 0.08 | 0.00 | 40 | 1009.2 |
| 20260507143603 | 55 | 13 | 2.0 | 14.0 | 0.00 | 0.08 | 0.00 | 39 | 1009.2 |
| 20260507143503 | 55 | 13 | 0.0 | 14.0 | 0.00 | 0.08 | 0.00 | 39 | 1009.3 |
| 20260507143404 | 55 | 13 | 0.0 | 14.0 | 0.00 | 0.08 | 0.00 | 40 | 1009.3 |
| 20260507143325 | 55 | 12 | 0.0 | 14.0 | 0.00 | 0.08 | 0.00 | 39 | 1009.3 |
| 20260507143225 | 55 | 9 | 0.0 | 14.0 | 0.00 | 0.08 | 0.00 | 39 | 1009.3 |
| 20260507143125 | 55 | 9 | 0.0 | 14.0 | 0.00 | 0.08 | 0.00 | 39 | 1009.3 |
| 20260507143025 | 55 | 17 | 0.0 | 14.0 | 0.00 | 0.08 | 0.00 | 39 | 1009.3 |
| 20260507142925 | 63 | 0 | 0.0 | 0.0 | 0.00 | 0.08 | 0.00 | 1 | 1009.2 |
| 20260507142825 | 63 | 0 | 0.0 | 0.0 | 0.00 | 0.08 | 0.00 | 1 | 1009.2 |
| 20260507142704 | 63 | 0 | 0.0 | 0.0 | 0.00 | 0.08 | 0.00 | 1 | 1009.3 |
| 20260507142604 | 63 | 0 | 0.0 | 0.0 | 0.00 | 0.08 | 0.00 | 1 | 1009.3 |
| 20260507142504 | 63 | 0 | 0.0 | 0.0 | 0.00 | 0.08 | 0.00 | 1 | 1009.3 |
| 20260507142404 | 63 | 0 | 0.0 | 0.0 | 0.00 | 0.08 | 0.00 | 1 | 1009.3 |
| 20260507142306 | 63 | 0 | 0.0 | 0.0 | 0.00 | 0.08 | 0.00 | 1 | 1009.3 |
| 20260507142204 | 63 | 0 | 0.0 | 0.0 | 0.00 | 0.08 | 0.00 | 1 | 1009.3 |
| 20260507142104 | 63 | 0 | 0.0 | 0.0 | 0.00 | 0.08 | 0.00 | 1 | 1009.3 |
| 20260507142004 | 63 | 0 | 0.0 | 0.0 | 0.00 | 0.08 | 0.00 | 1 | 1009.3 |
| 20260507141904 | 63 | 0 | 0.0 | 0.0 | 0.00 | 0.08 | 0.00 | 1 | 1009.3 |
| 20260507141804 | 63 | 0 | 0.0 | 0.0 | 0.00 | 0.08 | 0.00 | 1 | 1009.3 |
| 20260507141708 | 63 | 0 | 0.0 | 0.0 | 0.00 | 0.08 | 0.00 | 1 | 1009.4 |
| 20260507141604 | 63 | 0 | 0.0 | 0.0 | 0.00 | 0.08 | 0.00 | 1 | 1009.4 |
| 20260507141504 | 63 | 0 | 0.0 | 0.0 | 0.00 | 0.08 | 0.00 | 1 | 1009.5 |
| 20260507141404 | 63 | 0 | 0.0 | 0.0 | 0.00 | 0.08 | 0.00 | 1 | 1009.5 |
| 20260507141304 | 63 | 0 | 0.0 | 0.0 | 0.00 | 0.08 | 0.00 | 1 | 1009.5 |
| 20260507141204 | 63 | 0 | 0.0 | 0.0 | 0.00 | 0.08 | 0.00 | 1 | 1009.4 |
| 20260507141105 | 63 | 0 | 0.0 | 0.0 | 0.00 | 0.08 | 0.00 | 1 | 1009.4 |
| 20260507141004 | 63 | 0 | 0.0 | 0.0 | 0.00 | 0.08 | 0.00 | 1 | 1009.4 |
| 20260507140904 | 63 | 0 | 0.0 | 0.0 | 0.00 | 0.08 | 0.00 | 1 | 1009.4 |
| 20260507140804 | 63 | 0 | 0.0 | 0.0 | 0.00 | 0.08 | 0.00 | 1 | 1009.4 |
| 20260507140704 | 63 | 0 | 0.0 | 0.0 | 0.00 | 0.08 | 0.00 | 1 | 1009.4 |
| 20260507140604 | 63 | 0 | 0.0 | 0.0 | 0.00 | 0.08 | 0.00 | 1 | 1009.4 |
| 20260507140504 | 63 | 0 | 0.0 | 0.0 | 0.00 | 0.08 | 0.00 | 1 | 1009.5 |
| 20260507140404 | 63 | 0 | 0.0 | 0.0 | 0.00 | 0.08 | 0.00 | 1 | 1009.4 |
| 20260507140304 | 63 | 0 | 0.0 | 0.0 | 0.00 | 0.08 | 0.00 | 1 | 1009.4 |
| 20260507140204 | 63 | 0 | 0.0 | 0.0 | 0.00 | 0.08 | 0.00 | 1 | 1009.5 |
| 20260507140104 | 63 | 0 | 0.0 | 0.0 | 0.00 | 0.08 | 0.00 | 1 | 1009.5 |
| 20260507140025 | 63 | 0 | 0.0 | 0.0 | 0.00 | 0.08 | 0.00 | 1 | 1009.4 |
| 20260507135925 | 63 | 0 | 0.0 | 0.0 | 0.00 | 0.08 | 0.00 | 1 | 1009.4 |
| 20260507135825 | 63 | 0 | 0.0 | 0.0 | 0.00 | 0.08 | 0.00 | 1 | 1009.6 |
| 20260507135725 | 63 | 0 | 0.0 | 0.0 | 0.00 | 0.08 | 0.00 | 1 | 1009.5 |
| 20260507135625 | 63 | 0 | 0.0 | 0.0 | 0.00 | 0.08 | 0.00 | 1 | 1009.5 |
| 20260507135504 | 63 | 0 | 0.0 | 0.0 | 0.00 | 0.08 | 0.00 | 1 | 1009.5 |
| 20260507135404 | 63 | 0 | 0.0 | 0.0 | 0.00 | 0.08 | 0.00 | 1 | 1009.5 |
| 20260507135306 | 63 | 0 | 0.0 | 0.0 | 0.00 | 0.08 | 0.00 | 1 | 1009.5 |
| 20260507135204 | 63 | 0 | 0.0 | 0.0 | 0.00 | 0.08 | 0.00 | 1 | 1009.5 |
| 20260507135104 | 63 | 0 | 0.0 | 0.0 | 0.00 | 0.08 | 0.00 | 1 | 1009.3 |
| 20260507135004 | 63 | 0 | 0.0 | 0.0 | 0.00 | 0.08 | 0.00 | 1 | 1009.3 |
| 20260507134904 | 63 | 0 | 0.0 | 0.0 | 0.00 | 0.08 | 0.00 | 1 | 1009.4 |
| 20260507134804 | 63 | 0 | 0.0 | 0.0 | 0.00 | 0.08 | 0.00 | 1 | 1009.5 |
| 20260507134704 | 63 | 0 | 0.0 | 0.0 | 0.00 | 0.08 | 0.00 | 1 | 1009.5 |
| 20260507134604 | 63 | 0 | 0.0 | 0.0 | 0.00 | 0.08 | 0.00 | 1 | 1009.4 |
| 20260507134504 | 63 | 0 | 0.0 | 0.0 | 0.00 | 0.08 | 0.00 | 1 | 1009.4 |
| 20260507134404 | 63 | 0 | 0.0 | 0.0 | 0.00 | 0.08 | 0.00 | 1 | 1009.4 |
| 20260507134304 | 63 | 0 | 0.0 | 0.0 | 0.00 | 0.08 | 0.00 | 1 | 1009.4 |
| 20260507134204 | 63 | 0 | 0.0 | 0.0 | 0.00 | 0.08 | 0.00 | 1 | 1009.4 |
| 20260507134104 | 63 | 0 | 0.0 | 0.0 | 0.00 | 0.08 | 0.00 | 1 | 1009.5 |
| 20260507134025 | 63 | 0 | 0.0 | 0.0 | 0.00 | 0.08 | 0.00 | 1 | 1009.5 |
| 20260507133925 | 63 | 0 | 0.0 | 0.0 | 0.00 | 0.08 | 0.00 | 1 | 1009.5 |
| 20260507133825 | 63 | 0 | 0.0 | 0.0 | 0.00 | 0.08 | 0.00 | 1 | 1009.4 |
| 20260507133725 | 63 | 0 | 0.0 | 0.0 | 0.00 | 0.08 | 0.00 | 1 | 1009.4 |
| 20260507133625 | 63 | 0 | 0.0 | 0.0 | 0.00 | 0.08 | 0.00 | 1 | 1009.4 |
| 20260507133504 | 63 | 0 | 0.0 | 0.0 | 0.00 | 0.08 | 0.00 | 1 | 1009.3 |
| 20260507133404 | 63 | 0 | 0.0 | 0.0 | 0.00 | 0.08 | 0.00 | 1 | 1009.3 |
| 20260507133304 | 63 | 0 | 0.0 | 0.0 | 0.00 | 0.08 | 0.00 | 1 | 1009.2 |
| 20260507133204 | 63 | 0 | 0.0 | 0.0 | 0.00 | 0.08 | 0.00 | 1 | 1009.2 |
| 20260507133104 | 63 | 0 | 0.0 | 0.0 | 0.00 | 0.08 | 0.00 | 1 | 1009.2 |
| 20260507133004 | 63 | 0 | 0.0 | 0.0 | 0.00 | 0.08 | 0.00 | 1 | 1009.2 |
| 20260507132904 | 63 | 0 | 0.0 | 0.0 | 0.00 | 0.08 | 0.00 | 1 | 1009.2 |
| 20260507132803 | 63 | 0 | 0.0 | 0.0 | 0.00 | 0.08 | 0.00 | 1 | 1009.3 |
| 20260507132704 | 63 | 0 | 0.0 | 0.0 | 0.00 | 0.08 | 0.00 | 1 | 1009.3 |
| 20260507132604 | 63 | 0 | 0.0 | 0.0 | 0.00 | 0.08 | 0.00 | 1 | 1009.3 |
| 20260507132504 | 63 | 0 | 0.0 | 0.0 | 0.00 | 0.08 | 0.00 | 1 | 1009.3 |
| 20260507132404 | 63 | 0 | 0.0 | 0.0 | 0.00 | 0.08 | 0.00 | 1 | 1009.3 |
| 20260507132307 | 63 | 0 | 0.0 | 0.0 | 0.00 | 0.08 | 0.00 | 1 | 1009.3 |
| 20260507132204 | 63 | 0 | 0.0 | 0.0 | 0.00 | 0.08 | 0.00 | 1 | 1009.2 |
| 20260507132104 | 63 | 0 | 0.0 | 0.0 | 0.00 | 0.08 | 0.00 | 1 | 1009.2 |
| 20260507132004 | 63 | 0 | 0.0 | 0.0 | 0.00 | 0.08 | 0.00 | 1 | 1009.2 |
| 20260507131905 | 63 | 0 | 0.0 | 0.0 | 0.00 | 0.08 | 0.00 | 1 | 1009.2 |
| 20260507131804 | 63 | 0 | 0.0 | 0.0 | 0.00 | 0.08 | 0.00 | 1 | 1009.2 |
| 20260507131704 | 63 | 0 | 0.0 | 0.0 | 0.00 | 0.08 | 0.00 | 1 | 1009.2 |
| 20260507131604 | 63 | 0 | 0.0 | 0.0 | 0.00 | 0.08 | 0.00 | 1 | 1009.2 |
| 20260507131504 | 63 | 0 | 0.0 | 0.0 | 0.00 | 0.08 | 0.00 | 1 | 1009.2 |
| 20260507131404 | 63 | 0 | 0.0 | 0.0 | 0.00 | 0.08 | 0.00 | 1 | 1009.2 |
| 20260507131304 | 63 | 0 | 0.0 | 0.0 | 0.00 | 0.08 | 0.00 | 1 | 1009.2 |
| 20260507131204 | 63 | 0 | 0.0 | 0.0 | 0.00 | 0.08 | 0.00 | 1 | 1009.3 |
| 20260507131104 | 63 | 0 | 0.0 | 0.0 | 0.00 | 0.08 | 0.00 | 1 | 1009.3 |
| 20260507131003 | 63 | 0 | 0.0 | 0.0 | 0.00 | 0.08 | 0.00 | 1 | 1009.3 |
| 20260507130903 | 63 | 0 | 0.0 | 0.0 | 0.00 | 0.08 | 0.00 | 1 | 1009.2 |
| 20260507130803 | 63 | 0 | 0.0 | 0.0 | 0.00 | 0.08 | 0.00 | 1 | 1009.2 |
| 20260507130703 | 63 | 0 | 0.0 | 0.0 | 0.00 | 0.08 | 0.00 | 1 | 1009.2 |
| 20260507130603 | 63 | 0 | 0.0 | 0.0 | 0.00 | 0.08 | 0.00 | 1 | 1009.2 |
| 20260507130503 | 63 | 0 | 0.0 | 0.0 | 0.00 | 0.08 | 0.00 | 1 | 1009.2 |
| 20260507130404 | 63 | 0 | 0.0 | 0.0 | 0.00 | 0.08 | 0.00 | 1 | 1009.2 |
| 20260507130304 | 63 | 0 | 0.0 | 0.0 | 0.00 | 0.08 | 0.00 | 1 | 1009.2 |
| 20260507130204 | 63 | 0 | 0.0 | 0.0 | 0.00 | 0.08 | 0.00 | 1 | 1009.2 |
| 20260507130104 | 63 | 0 | 0.0 | 0.0 | 0.00 | 0.08 | 0.00 | 1 | 1009.2 |
| 20260507130004 | 63 | 0 | 0.0 | 0.0 | 0.00 | 0.08 | 0.00 | 1 | 1009.1 |
| 20260507125904 | 63 | 0 | 0.0 | 0.0 | 0.00 | 0.08 | 0.00 | 1 | 1009.1 |
| 20260507125804 | 63 | 0 | 0.0 | 0.0 | 0.00 | 0.08 | 0.00 | 1 | 1009.1 |
| 20260507125704 | 63 | 0 | 0.0 | 0.0 | 0.00 | 0.08 | 0.00 | 1 | 1009.1 |
| 20260507125604 | 63 | 0 | 0.0 | 0.0 | 0.00 | 0.08 | 0.00 | 1 | 1009.2 |
| 20260507125504 | 63 | 0 | 0.0 | 0.0 | 0.00 | 0.08 | 0.00 | 1 | 1009.2 |
| 20260507125404 | 63 | 0 | 0.0 | 0.0 | 0.00 | 0.08 | 0.00 | 1 | 1009.1 |
| 20260507125306 | 63 | 0 | 0.0 | 0.0 | 0.00 | 0.08 | 0.00 | 1 | 1009.2 |
| 20260507125204 | 63 | 0 | 0.0 | 0.0 | 0.00 | 0.08 | 0.00 | 1 | 1009.2 |
| 20260507125104 | 63 | 0 | 0.0 | 0.0 | 0.00 | 0.08 | 0.00 | 1 | 1009.1 |
| 20260507125004 | 63 | 0 | 0.0 | 0.0 | 0.00 | 0.08 | 0.00 | 1 | 1009.1 |
| 20260507124904 | 63 | 0 | 0.0 | 0.0 | 0.00 | 0.08 | 0.00 | 1 | 1009.1 |
| 20260507124804 | 63 | 0 | 0.0 | 0.0 | 0.00 | 0.08 | 0.00 | 1 | 1009.1 |
| 20260507124704 | 63 | 0 | 0.0 | 0.0 | 0.00 | 0.08 | 0.00 | 1 | 1009.1 |
| 20260507124604 | 63 | 0 | 0.0 | 0.0 | 0.00 | 0.08 | 0.00 | 1 | 1009.1 |
| 20260507124504 | 63 | 0 | 0.0 | 0.0 | 0.00 | 0.08 | 0.00 | 1 | 1009.1 |
| 20260507124404 | 63 | 0 | 0.0 | 0.0 | 0.00 | 0.08 | 0.00 | 1 | 1009.1 |
| 20260507124304 | 63 | 0 | 0.0 | 0.0 | 0.00 | 0.08 | 0.00 | 1 | 1009.1 |
| 20260507124204 | 63 | 0 | 0.0 | 0.0 | 0.00 | 0.08 | 0.00 | 1 | 1009.1 |
| 20260507124104 | 63 | 0 | 0.0 | 0.0 | 0.00 | 0.08 | 0.00 | 1 | 1009.1 |
| 20260507124004 | 63 | 0 | 0.0 | 0.0 | 0.00 | 0.08 | 0.00 | 1 | 1009.1 |
| 20260507123904 | 63 | 0 | 0.0 | 0.0 | 0.00 | 0.08 | 0.00 | 1 | 1009.1 |
| 20260507123804 | 63 | 0 | 0.0 | 0.0 | 0.00 | 0.08 | 0.00 | 1 | 1009.1 |
| 20260507123704 | 63 | 0 | 0.0 | 0.0 | 0.00 | 0.08 | 0.00 | 1 | 1009.1 |
| 20260507123604 | 63 | 0 | 0.0 | 0.0 | 0.00 | 0.08 | 0.00 | 1 | 1009.1 |
| 20260507123504 | 63 | 0 | 0.0 | 0.0 | 0.00 | 0.08 | 0.00 | 1 | 1009.0 |
| 20260507123425 | 63 | 0 | 0.0 | 0.0 | 0.00 | 0.08 | 0.00 | 1 | 1009.0 |
| 20260507123325 | 63 | 0 | 0.0 | 0.0 | 0.00 | 0.08 | 0.00 | 1 | 1009.0 |
| 20260507123225 | 63 | 0 | 0.0 | 0.0 | 0.00 | 0.08 | 0.00 | 1 | 1009.0 |
| 20260507123125 | 63 | 0 | 0.0 | 0.0 | 0.00 | 0.08 | 0.00 | 1 | 1009.0 |
| 20260507123004 | 63 | 0 | 0.0 | 0.0 | 0.00 | 0.08 | 0.00 | 1 | 1008.9 |
| 20260507122904 | 63 | 0 | 0.0 | 0.0 | 0.00 | 0.08 | 0.00 | 1 | 1008.9 |
| 20260507122804 | 63 | 0 | 0.0 | 0.0 | 0.00 | 0.08 | 0.00 | 1 | 1009.0 |
| 20260507122705 | 63 | 0 | 0.0 | 0.0 | 0.00 | 0.08 | 0.00 | 1 | 1009.1 |
| 20260507122604 | 63 | 0 | 0.0 | 0.0 | 0.00 | 0.08 | 0.00 | 1 | 1009.1 |
| 20260507122504 | 63 | 0 | 0.0 | 0.0 | 0.00 | 0.08 | 0.00 | 1 | 1009.2 |
| 20260507122404 | 63 | 0 | 0.0 | 0.0 | 0.00 | 0.08 | 0.00 | 1 | 1009.2 |
| 20260507122307 | 63 | 0 | 0.0 | 0.0 | 0.00 | 0.08 | 0.00 | 1 | 1009.1 |
| 20260507122204 | 63 | 0 | 0.0 | 0.0 | 0.00 | 0.08 | 0.00 | 1 | 1009.1 |
| 20260507122104 | 63 | 0 | 0.0 | 0.0 | 0.00 | 0.08 | 0.00 | 1 | 1009.1 |
| 20260507122004 | 63 | 0 | 0.0 | 0.0 | 0.00 | 0.08 | 0.00 | 1 | 1009.1 |
| 20260507121904 | 63 | 0 | 0.0 | 0.0 | 0.00 | 0.08 | 0.00 | 1 | 1009.1 |
| 20260507121804 | 63 | 0 | 0.0 | 0.0 | 0.00 | 0.08 | 0.00 | 1 | 1009.1 |
| 20260507121704 | 63 | 0 | 0.0 | 0.0 | 0.00 | 0.08 | 0.00 | 1 | 1009.1 |
| 20260507121604 | 63 | 0 | 0.0 | 0.0 | 0.00 | 0.08 | 0.00 | 1 | 1009.1 |
| 20260507121504 | 63 | 0 | 0.0 | 0.0 | 0.00 | 0.08 | 0.00 | 1 | 1009.1 |
| 20260507121404 | 63 | 0 | 0.0 | 0.0 | 0.00 | 0.08 | 0.00 | 1 | 1009.1 |
| 20260507121304 | 63 | 0 | 0.0 | 0.0 | 0.00 | 0.08 | 0.00 | 1 | 1009.1 |
| 20260507121204 | 63 | 0 | 0.0 | 0.0 | 0.00 | 0.08 | 0.00 | 1 | 1009.1 |
| 20260507121104 | 63 | 0 | 0.0 | 0.0 | 0.00 | 0.08 | 0.00 | 1 | 1009.1 |
| 20260507121004 | 63 | 0 | 0.0 | 0.0 | 0.00 | 0.08 | 0.00 | 1 | 1009.1 |
| 20260507120904 | 63 | 0 | 0.0 | 0.0 | 0.00 | 0.08 | 0.00 | 1 | 1009.1 |
| 20260507120804 | 63 | 0 | 0.0 | 0.0 | 0.00 | 0.08 | 0.00 | 1 | 1009.1 |
| 20260507120704 | 63 | 0 | 0.0 | 0.0 | 0.00 | 0.08 | 0.00 | 1 | 1009.2 |
| 20260507120604 | 63 | 0 | 0.0 | 0.0 | 0.00 | 0.08 | 0.00 | 1 | 1009.2 |
| 20260507120504 | 63 | 0 | 0.0 | 0.0 | 0.00 | 0.08 | 0.00 | 1 | 1009.1 |
| 20260507120404 | 63 | 0 | 0.0 | 0.0 | 0.00 | 0.08 | 0.00 | 1 | 1009.1 |
| 20260507120304 | 63 | 0 | 0.0 | 0.0 | 0.00 | 0.08 | 0.00 | 1 | 1009.1 |
| 20260507120204 | 63 | 0 | 0.0 | 0.0 | 0.00 | 0.08 | 0.00 | 1 | 1009.1 |
| 20260507120104 | 63 | 0 | 0.0 | 0.0 | 0.00 | 0.08 | 0.00 | 1 | 1009.1 |
| 20260507120004 | 63 | 0 | 0.0 | 0.0 | 0.00 | 0.08 | 0.00 | 1 | 1009.1 |
| 20260507115924 | 63 | 0 | 0.0 | 0.0 | 0.00 | 0.08 | 0.00 | 1 | 1009.1 |
| 20260507115824 | 63 | 0 | 0.0 | 0.0 | 0.00 | 0.08 | 0.00 | 1 | 1009.1 |
| 20260507115724 | 63 | 0 | 0.0 | 0.0 | 0.00 | 0.08 | 0.00 | 1 | 1009.1 |
| 20260507115624 | 63 | 0 | 0.0 | 0.0 | 0.00 | 0.08 | 0.00 | 1 | 1009.1 |
| 20260507115524 | 63 | 0 | 0.0 | 0.0 | 0.00 | 0.08 | 0.00 | 1 | 1009.1 |
| 20260507115404 | 63 | 0 | 0.0 | 0.0 | 0.00 | 0.08 | 0.00 | 1 | 1009.1 |
| 20260507115307 | 63 | 0 | 0.0 | 0.0 | 0.00 | 0.08 | 0.00 | 1 | 1009.1 |
| 20260507115204 | 63 | 0 | 0.0 | 0.0 | 0.00 | 0.08 | 0.00 | 1 | 1009.1 |
| 20260507115104 | 63 | 0 | 0.0 | 0.0 | 0.00 | 0.08 | 0.00 | 1 | 1009.2 |
| 20260507115004 | 63 | 0 | 0.0 | 0.0 | 0.00 | 0.08 | 0.00 | 1 | 1009.2 |
| 20260507114903 | 63 | 0 | 0.0 | 0.0 | 0.00 | 0.08 | 0.00 | 1 | 1009.1 |
| 20260507114803 | 63 | 0 | 0.0 | 0.0 | 0.00 | 0.08 | 0.00 | 1 | 1009.1 |
| 20260507114703 | 63 | 0 | 0.0 | 0.0 | 0.00 | 0.08 | 0.00 | 1 | 1009.1 |
| 20260507114604 | 63 | 0 | 0.0 | 0.0 | 0.00 | 0.08 | 0.00 | 1 | 1009.1 |
| 20260507114504 | 63 | 0 | 0.0 | 0.0 | 0.00 | 0.08 | 0.00 | 1 | 1009.1 |
| 20260507114404 | 63 | 0 | 0.0 | 0.0 | 0.00 | 0.08 | 0.00 | 1 | 1009.0 |
| 20260507114304 | 63 | 0 | 0.0 | 0.0 | 0.00 | 0.08 | 0.00 | 1 | 1009.0 |
| 20260507114204 | 63 | 0 | 0.0 | 0.0 | 0.00 | 0.08 | 0.00 | 1 | 1009.0 |
| 20260507114104 | 63 | 0 | 0.0 | 0.0 | 0.00 | 0.08 | 0.00 | 1 | 1009.0 |
| 20260507114004 | 63 | 0 | 0.0 | 0.0 | 0.00 | 0.08 | 0.00 | 1 | 1008.9 |
| 20260507113904 | 63 | 0 | 0.0 | 0.0 | 0.00 | 0.08 | 0.00 | 1 | 1008.9 |
| 20260507113804 | 63 | 0 | 0.0 | 0.0 | 0.00 | 0.08 | 0.00 | 1 | 1008.9 |
| 20260507113704 | 63 | 0 | 0.0 | 0.0 | 0.00 | 0.08 | 0.00 | 1 | 1008.9 |
| 20260507113604 | 63 | 0 | 0.0 | 0.0 | 0.00 | 0.08 | 0.00 | 1 | 1008.9 |
| 20260507113504 | 63 | 0 | 0.0 | 0.0 | 0.00 | 0.08 | 0.00 | 1 | 1009.0 |
| 20260507113404 | 63 | 0 | 0.0 | 0.0 | 0.00 | 0.08 | 0.00 | 1 | 1009.0 |
| 20260507113325 | 63 | 0 | 0.0 | 0.0 | 0.00 | 0.08 | 0.00 | 1 | 1009.0 |
| 20260507113225 | 63 | 0 | 0.0 | 0.0 | 0.00 | 0.08 | 0.00 | 1 | 1009.0 |
| 20260507113125 | 63 | 0 | 0.0 | 0.0 | 0.00 | 0.08 | 0.00 | 1 | 1009.0 |
| 20260507113025 | 63 | 0 | 0.0 | 0.0 | 0.00 | 0.08 | 0.00 | 1 | 1009.0 |
| 20260507112925 | 63 | 0 | 0.0 | 0.0 | 0.00 | 0.08 | 0.00 | 1 | 1009.0 |
| 20260507112804 | 63 | 0 | 0.0 | 0.0 | 0.00 | 0.08 | 0.00 | 1 | 1008.9 |
| 20260507112704 | 63 | 0 | 0.0 | 0.0 | 0.00 | 0.08 | 0.00 | 1 | 1008.9 |
| 20260507112604 | 63 | 0 | 0.0 | 0.0 | 0.00 | 0.08 | 0.00 | 1 | 1008.9 |
| 20260507112504 | 63 | 0 | 0.0 | 0.0 | 0.00 | 0.08 | 0.00 | 1 | 1008.8 |
| 20260507112404 | 63 | 0 | 0.0 | 0.0 | 0.00 | 0.08 | 0.00 | 1 | 1008.8 |
| 20260507112307 | 63 | 0 | 0.0 | 0.0 | 0.00 | 0.08 | 0.00 | 1 | 1008.8 |
| 20260507112204 | 63 | 0 | 0.0 | 0.0 | 0.00 | 0.08 | 0.00 | 1 | 1008.9 |
| 20260507112104 | 63 | 0 | 0.0 | 0.0 | 0.00 | 0.08 | 0.00 | 1 | 1008.9 |
| 20260507112004 | 63 | 0 | 0.0 | 0.0 | 0.00 | 0.08 | 0.00 | 1 | 1008.9 |
| 20260507111905 | 63 | 0 | 0.0 | 0.0 | 0.00 | 0.08 | 0.00 | 1 | 1008.9 |
| 20260507111804 | 63 | 0 | 0.0 | 0.0 | 0.00 | 0.08 | 0.00 | 1 | 1008.9 |
| 20260507111704 | 63 | 0 | 0.0 | 0.0 | 0.00 | 0.08 | 0.00 | 1 | 1008.8 |
| 20260507111604 | 63 | 0 | 0.0 | 0.0 | 0.00 | 0.08 | 0.00 | 1 | 1008.8 |
| 20260507111506 | 63 | 0 | 0.0 | 0.0 | 0.00 | 0.08 | 0.00 | 1 | 1008.8 |
| 20260507111404 | 63 | 0 | 0.0 | 0.0 | 0.00 | 0.08 | 0.00 | 1 | 1008.8 |
| 20260507111304 | 63 | 0 | 0.0 | 0.0 | 0.00 | 0.08 | 0.00 | 1 | 1008.7 |
| 20260507111204 | 63 | 0 | 0.0 | 0.0 | 0.00 | 0.08 | 0.00 | 1 | 1008.6 |
| 20260507111104 | 63 | 0 | 0.0 | 0.0 | 0.00 | 0.08 | 0.00 | 1 | 1008.6 |
| 20260507111004 | 63 | 0 | 0.0 | 0.0 | 0.00 | 0.08 | 0.00 | 1 | 1008.7 |
| 20260507110904 | 63 | 0 | 0.0 | 0.0 | 0.00 | 0.08 | 0.00 | 1 | 1008.6 |
| 20260507110804 | 63 | 0 | 0.0 | 0.0 | 0.00 | 0.08 | 0.00 | 1 | 1008.6 |
| 20260507110704 | 63 | 0 | 0.0 | 0.0 | 0.00 | 0.08 | 0.00 | 1 | 1008.7 |
| 20260507110604 | 63 | 0 | 0.0 | 0.0 | 0.00 | 0.08 | 0.00 | 1 | 1008.7 |
| 20260507110504 | 63 | 0 | 0.0 | 0.0 | 0.00 | 0.08 | 0.00 | 1 | 1008.7 |
| 20260507110404 | 63 | 0 | 0.0 | 0.0 | 0.00 | 0.08 | 0.00 | 1 | 1008.7 |
| 20260507110304 | 63 | 0 | 0.0 | 0.0 | 0.00 | 0.08 | 0.00 | 1 | 1008.7 |
| 20260507110204 | 63 | 0 | 0.0 | 0.0 | 0.00 | 0.08 | 0.00 | 1 | 1008.7 |
| 20260507110104 | 63 | 0 | 0.0 | 0.0 | 0.00 | 0.08 | 0.00 | 1 | 1008.7 |
| 20260507110004 | 63 | 0 | 0.0 | 0.0 | 0.00 | 0.08 | 0.00 | 1 | 1008.6 |
| 20260507105904 | 63 | 0 | 0.0 | 0.0 | 0.00 | 0.08 | 0.00 | 1 | 1008.6 |
| 20260507105825 | 63 | 0 | 0.0 | 0.0 | 0.00 | 0.08 | 0.00 | 1 | 1008.6 |
| 20260507105725 | 63 | 0 | 0.0 | 0.0 | 0.00 | 0.08 | 0.00 | 1 | 1008.6 |
| 20260507105625 | 63 | 0 | 0.0 | 0.0 | 0.00 | 0.08 | 0.00 | 1 | 1008.5 |
| 20260507105525 | 63 | 0 | 0.0 | 0.0 | 0.00 | 0.08 | 0.00 | 1 | 1008.5 |
| 20260507105404 | 63 | 0 | 0.0 | 0.0 | 0.00 | 0.08 | 0.00 | 1 | 1008.5 |
| 20260507105325 | 63 | 0 | 0.0 | 0.0 | 0.00 | 0.08 | 0.00 | 1 | 1008.5 |
| 20260507105225 | 63 | 0 | 0.0 | 0.0 | 0.00 | 0.08 | 0.00 | 1 | 1008.4 |
| 20260507105125 | 63 | 0 | 0.0 | 0.0 | 0.00 | 0.08 | 0.00 | 1 | 1008.4 |
| 20260507105025 | 63 | 0 | 0.0 | 0.0 | 0.00 | 0.08 | 0.00 | 1 | 1008.4 |
| 20260507104925 | 63 | 0 | 0.0 | 0.0 | 0.00 | 0.08 | 0.00 | 1 | 1008.3 |
| 20260507104825 | 63 | 0 | 0.0 | 0.0 | 0.00 | 0.08 | 0.00 | 1 | 1008.3 |
| 20260507104704 | 63 | 0 | 0.0 | 0.0 | 0.00 | 0.08 | 0.00 | 1 | 1008.3 |
| 20260507104604 | 63 | 0 | 0.0 | 0.0 | 0.00 | 0.08 | 0.00 | 1 | 1008.4 |
| 20260507104504 | 63 | 0 | 0.0 | 0.0 | 0.00 | 0.08 | 0.00 | 1 | 1008.3 |
| 20260507104404 | 63 | 0 | 0.0 | 0.0 | 0.00 | 0.08 | 0.00 | 1 | 1008.3 |
| 20260507104304 | 63 | 0 | 0.0 | 0.0 | 0.00 | 0.08 | 0.00 | 1 | 1008.3 |
| 20260507104204 | 63 | 0 | 0.0 | 0.0 | 0.00 | 0.08 | 0.00 | 1 | 1008.3 |
| 20260507104104 | 63 | 0 | 0.0 | 0.0 | 0.00 | 0.08 | 0.00 | 1 | 1008.2 |
| 20260507104004 | 63 | 0 | 0.0 | 0.0 | 0.00 | 0.08 | 0.00 | 1 | 1008.2 |
| 20260507103904 | 63 | 0 | 0.0 | 0.0 | 0.00 | 0.08 | 0.00 | 1 | 1008.2 |
| 20260507103804 | 63 | 0 | 0.0 | 0.0 | 0.00 | 0.08 | 0.00 | 1 | 1008.2 |
| 20260507103703 | 63 | 0 | 0.0 | 0.0 | 0.00 | 0.08 | 0.00 | 1 | 1008.2 |
| 20260507103603 | 63 | 0 | 0.0 | 0.0 | 0.00 | 0.08 | 0.00 | 1 | 1008.2 |
| 20260507103503 | 63 | 0 | 0.0 | 0.0 | 0.00 | 0.08 | 0.00 | 1 | 1008.2 |
| 20260507103403 | 63 | 0 | 0.0 | 0.0 | 0.00 | 0.08 | 0.00 | 1 | 1008.2 |
| 20260507103303 | 63 | 0 | 0.0 | 0.0 | 0.00 | 0.08 | 0.00 | 1 | 1008.2 |
| 20260507103204 | 63 | 0 | 0.0 | 0.0 | 0.00 | 0.08 | 0.00 | 1 | 1008.2 |
| 20260507103104 | 63 | 0 | 0.0 | 0.0 | 0.00 | 0.08 | 0.00 | 1 | 1008.1 |
| 20260507103004 | 63 | 0 | 0.0 | 0.0 | 0.00 | 0.08 | 0.00 | 1 | 1008.0 |
| 20260507102904 | 63 | 0 | 0.0 | 0.0 | 0.00 | 0.08 | 0.00 | 1 | 1008.0 |
| 20260507102804 | 63 | 0 | 0.0 | 0.0 | 0.00 | 0.08 | 0.00 | 1 | 1008.0 |
| 20260507102704 | 63 | 0 | 0.0 | 0.0 | 0.00 | 0.08 | 0.00 | 1 | 1008.0 |
| 20260507102604 | 63 | 0 | 0.0 | 0.0 | 0.00 | 0.08 | 0.00 | 1 | 1008.0 |
| 20260507102504 | 63 | 0 | 0.0 | 0.0 | 0.00 | 0.08 | 0.00 | 1 | 1008.0 |
| 20260507102404 | 63 | 0 | 0.0 | 0.0 | 0.00 | 0.08 | 0.00 | 1 | 1008.0 |
| 20260507102306 | 63 | 0 | 0.0 | 0.0 | 0.00 | 0.08 | 0.00 | 1 | 1008.1 |
| 20260507102204 | 63 | 0 | 0.0 | 0.0 | 0.00 | 0.08 | 0.00 | 1 | 1008.0 |
| 20260507102104 | 63 | 0 | 0.0 | 0.0 | 0.00 | 0.08 | 0.00 | 1 | 1008.0 |
| 20260507102004 | 63 | 0 | 0.0 | 0.0 | 0.00 | 0.08 | 0.00 | 1 | 1008.0 |
| 20260507101903 | 63 | 0 | 0.0 | 0.0 | 0.00 | 0.08 | 0.00 | 1 | 1008.0 |
| 20260507101804 | 63 | 0 | 0.0 | 0.0 | 0.00 | 0.08 | 0.00 | 1 | 1008.0 |
| 20260507101703 | 63 | 0 | 0.0 | 0.0 | 0.00 | 0.08 | 0.00 | 1 | 1007.9 |
| 20260507101603 | 63 | 0 | 0.0 | 0.0 | 0.00 | 0.08 | 0.00 | 1 | 1007.9 |
| 20260507101503 | 63 | 0 | 0.0 | 0.0 | 0.00 | 0.08 | 0.00 | 1 | 1007.9 |
| 20260507101403 | 63 | 0 | 0.0 | 0.0 | 0.00 | 0.08 | 0.00 | 1 | 1007.9 |
| 20260507101303 | 63 | 0 | 0.0 | 0.0 | 0.00 | 0.08 | 0.00 | 1 | 1007.9 |
| 20260507101204 | 63 | 0 | 0.0 | 0.0 | 0.00 | 0.08 | 0.00 | 1 | 1007.9 |
| 20260507101103 | 63 | 0 | 0.0 | 0.0 | 0.00 | 0.08 | 0.00 | 1 | 1007.9 |
| 20260507101004 | 63 | 0 | 0.0 | 0.0 | 0.00 | 0.08 | 0.00 | 1 | 1007.9 |
| 20260507100904 | 63 | 0 | 0.0 | 0.0 | 0.00 | 0.08 | 0.00 | 1 | 1007.9 |
| 20260507100804 | 63 | 0 | 0.0 | 0.0 | 0.00 | 0.08 | 0.00 | 1 | 1007.9 |
| 20260507100704 | 63 | 0 | 0.0 | 0.0 | 0.00 | 0.08 | 0.00 | 1 | 1007.9 |
| 20260507100604 | 63 | 0 | 0.0 | 0.0 | 0.00 | 0.08 | 0.00 | 1 | 1007.9 |
| 20260507100504 | 63 | 0 | 0.0 | 0.0 | 0.00 | 0.08 | 0.00 | 1 | 1007.8 |
| 20260507100404 | 63 | 0 | 0.0 | 0.0 | 0.00 | 0.08 | 0.00 | 1 | 1007.8 |
| 20260507100304 | 63 | 0 | 0.0 | 0.0 | 0.00 | 0.08 | 0.00 | 1 | 1007.8 |
| 20260507100204 | 63 | 0 | 0.0 | 0.0 | 0.00 | 0.08 | 0.00 | 1 | 1007.8 |
| 20260507100104 | 63 | 0 | 0.0 | 0.0 | 0.00 | 0.08 | 0.00 | 1 | 1007.8 |
| 20260507100004 | 63 | 0 | 0.0 | 0.0 | 0.00 | 0.08 | 0.00 | 1 | 1007.9 |
| 20260507095904 | 63 | 0 | 0.0 | 0.0 | 0.00 | 0.08 | 0.00 | 1 | 1007.9 |
| 20260507095804 | 63 | 0 | 0.0 | 0.0 | 0.00 | 0.08 | 0.00 | 1 | 1007.9 |
| 20260507095704 | 63 | 0 | 0.0 | 0.0 | 0.00 | 0.08 | 0.00 | 1 | 1007.9 |
| 20260507095604 | 63 | 0 | 0.0 | 0.0 | 0.00 | 0.08 | 0.00 | 1 | 1007.9 |
| 20260507095525 | 63 | 0 | 0.0 | 0.0 | 0.00 | 0.08 | 0.00 | 1 | 1007.9 |
| 20260507095425 | 63 | 0 | 0.0 | 0.0 | 0.00 | 0.08 | 0.00 | 1 | 1007.8 |
| 20260507095325 | 63 | 0 | 0.0 | 0.0 | 0.00 | 0.08 | 0.00 | 1 | 1007.8 |
| 20260507095225 | 63 | 0 | 0.0 | 0.0 | 0.00 | 0.08 | 0.00 | 1 | 1007.7 |
| 20260507095125 | 63 | 0 | 0.0 | 0.0 | 0.00 | 0.08 | 0.00 | 1 | 1007.7 |
| 20260507095004 | 63 | 0 | 0.0 | 0.0 | 0.00 | 0.08 | 0.00 | 1 | 1007.7 |
| 20260507094904 | 63 | 0 | 0.0 | 0.0 | 0.00 | 0.08 | 0.00 | 1 | 1007.7 |
| 20260507094804 | 63 | 0 | 0.0 | 0.0 | 0.00 | 0.08 | 0.00 | 1 | 1007.7 |
| 20260507094704 | 63 | 0 | 0.0 | 0.0 | 0.00 | 0.08 | 0.00 | 1 | 1007.7 |
| 20260507094604 | 63 | 0 | 0.0 | 0.0 | 0.00 | 0.08 | 0.00 | 1 | 1007.7 |
| 20260507094504 | 63 | 0 | 0.0 | 0.0 | 0.00 | 0.08 | 0.00 | 1 | 1007.7 |
| 20260507094404 | 63 | 0 | 0.0 | 0.0 | 0.00 | 0.08 | 0.00 | 1 | 1007.7 |
| 20260507094304 | 63 | 0 | 0.0 | 0.0 | 0.00 | 0.08 | 0.00 | 1 | 1007.7 |
| 20260507094204 | 63 | 0 | 0.0 | 0.0 | 0.00 | 0.08 | 0.00 | 1 | 1007.7 |
| 20260507094104 | 63 | 0 | 0.0 | 0.0 | 0.00 | 0.08 | 0.00 | 1 | 1007.7 |
| 20260507094004 | 63 | 0 | 0.0 | 0.0 | 0.00 | 0.08 | 0.00 | 1 | 1007.7 |
| 20260507093904 | 63 | 0 | 0.0 | 0.0 | 0.00 | 0.08 | 0.00 | 1 | 1007.7 |
| 20260507093804 | 63 | 0 | 0.0 | 0.0 | 0.00 | 0.08 | 0.00 | 1 | 1007.7 |
| 20260507093704 | 63 | 0 | 0.0 | 0.0 | 0.00 | 0.08 | 0.00 | 1 | 1007.7 |
| 20260507093604 | 63 | 0 | 0.0 | 0.0 | 0.00 | 0.08 | 0.00 | 1 | 1007.6 |
| 20260507093504 | 63 | 0 | 0.0 | 0.0 | 0.00 | 0.08 | 0.00 | 1 | 1007.7 |
| 20260507093404 | 63 | 0 | 0.0 | 0.0 | 0.00 | 0.08 | 0.00 | 1 | 1007.7 |
| 20260507093304 | 63 | 0 | 0.0 | 0.0 | 0.00 | 0.08 | 0.00 | 1 | 1007.6 |
| 20260507093204 | 63 | 0 | 0.0 | 0.0 | 0.00 | 0.08 | 0.00 | 1 | 1007.6 |
| 20260507093104 | 63 | 0 | 0.0 | 0.0 | 0.00 | 0.08 | 0.00 | 1 | 1007.7 |
| 20260507093024 | 63 | 0 | 0.0 | 0.0 | 0.00 | 0.08 | 0.00 | 1 | 1007.7 |
| 20260507092924 | 63 | 0 | 0.0 | 0.0 | 0.00 | 0.08 | 0.00 | 1 | 1007.8 |
| 20260507092824 | 63 | 0 | 0.0 | 0.0 | 0.00 | 0.08 | 0.00 | 1 | 1007.8 |
| 20260507092725 | 63 | 0 | 0.0 | 0.0 | 0.00 | 0.08 | 0.00 | 1 | 1007.8 |
| 20260507092625 | 63 | 0 | 0.0 | 0.0 | 0.00 | 0.08 | 0.00 | 1 | 1007.7 |
| 20260507092525 | 63 | 0 | 0.0 | 0.0 | 0.00 | 0.08 | 0.00 | 1 | 1007.6 |
| 20260507092424 | 63 | 0 | 0.0 | 0.0 | 0.00 | 0.08 | 0.00 | 1 | 1007.6 |
| 20260507092324 | 63 | 0 | 0.0 | 0.0 | 0.00 | 0.08 | 0.00 | 1 | 1007.5 |
| 20260507092224 | 63 | 0 | 0.0 | 0.0 | 0.00 | 0.08 | 0.00 | 1 | 1007.5 |
| 20260507092125 | 63 | 0 | 0.0 | 0.0 | 0.00 | 0.08 | 0.00 | 1 | 1007.6 |
| 20260507092003 | 63 | 0 | 0.0 | 0.0 | 0.00 | 0.08 | 0.00 | 1 | 1007.6 |
| 20260507091904 | 63 | 0 | 0.0 | 0.0 | 0.00 | 0.08 | 0.00 | 1 | 1007.6 |
| 20260507091803 | 63 | 0 | 0.0 | 0.0 | 0.00 | 0.08 | 0.00 | 1 | 1007.7 |
| 20260507091703 | 63 | 0 | 0.0 | 0.0 | 0.00 | 0.08 | 0.00 | 1 | 1007.7 |
| 20260507091603 | 63 | 0 | 0.0 | 0.0 | 0.00 | 0.08 | 0.00 | 1 | 1007.7 |
| 20260507091503 | 63 | 0 | 0.0 | 0.0 | 0.00 | 0.08 | 0.00 | 1 | 1007.7 |
| 20260507091404 | 63 | 0 | 0.0 | 0.0 | 0.00 | 0.08 | 0.00 | 1 | 1007.7 |
| 20260507091304 | 63 | 0 | 0.0 | 0.0 | 0.00 | 0.08 | 0.00 | 1 | 1007.8 |
| 20260507091204 | 63 | 0 | 0.0 | 0.0 | 0.00 | 0.08 | 0.00 | 1 | 1007.7 |
| 20260507091104 | 63 | 0 | 0.0 | 0.0 | 0.00 | 0.08 | 0.00 | 1 | 1007.7 |
| 20260507091004 | 63 | 0 | 0.0 | 0.0 | 0.00 | 0.08 | 0.00 | 1 | 1007.7 |
| 20260507090904 | 63 | 0 | 0.0 | 0.0 | 0.00 | 0.08 | 0.00 | 1 | 1007.7 |
| 20260507090804 | 63 | 0 | 0.0 | 0.0 | 0.00 | 0.08 | 0.00 | 1 | 1007.7 |
| 20260507090704 | 63 | 0 | 0.0 | 0.0 | 0.00 | 0.08 | 0.00 | 1 | 1007.8 |
| 20260507090604 | 63 | 0 | 0.0 | 0.0 | 0.00 | 0.08 | 0.00 | 1 | 1007.8 |
| 20260507090504 | 63 | 0 | 0.0 | 0.0 | 0.00 | 0.08 | 0.00 | 1 | 1007.7 |
| 20260507090404 | 63 | 0 | 0.0 | 0.0 | 0.00 | 0.08 | 0.00 | 1 | 1007.6 |
| 20260507090304 | 63 | 0 | 0.0 | 0.0 | 0.00 | 0.08 | 0.00 | 1 | 1007.6 |
| 20260507090204 | 63 | 0 | 0.0 | 0.0 | 0.00 | 0.08 | 0.00 | 1 | 1007.6 |
| 20260507090105 | 63 | 0 | 0.0 | 0.0 | 0.00 | 0.08 | 0.00 | 1 | 1007.6 |
| 20260507090005 | 63 | 0 | 0.0 | 0.0 | 0.00 | 0.08 | 0.00 | 1 | 1007.6 |
| 20260507085925 | 63 | 0 | 0.0 | 0.0 | 0.00 | 0.08 | 0.00 | 1 | 1007.6 |
| 20260507085825 | 63 | 0 | 0.0 | 0.0 | 0.00 | 0.08 | 0.00 | 1 | 1007.6 |
| 20260507085725 | 63 | 0 | 0.0 | 0.0 | 0.00 | 0.08 | 0.00 | 1 | 1007.6 |
| 20260507085625 | 63 | 0 | 0.0 | 0.0 | 0.00 | 0.08 | 0.00 | 1 | 1007.6 |
| 20260507085525 | 63 | 0 | 0.0 | 0.0 | 0.00 | 0.08 | 0.00 | 1 | 1007.6 |
| 20260507085404 | 63 | 0 | 0.0 | 0.0 | 0.00 | 0.08 | 0.00 | 1 | 1007.7 |
| 20260507085306 | 63 | 0 | 0.0 | 0.0 | 0.00 | 0.08 | 0.00 | 1 | 1007.6 |
| 20260507085204 | 63 | 0 | 0.0 | 0.0 | 0.00 | 0.08 | 0.00 | 1 | 1007.6 |
| 20260507085104 | 63 | 0 | 0.0 | 0.0 | 0.00 | 0.08 | 0.00 | 1 | 1007.6 |
| 20260507085004 | 63 | 0 | 0.0 | 0.0 | 0.00 | 0.08 | 0.00 | 1 | 1007.6 |
| 20260507084904 | 63 | 0 | 0.0 | 0.0 | 0.00 | 0.08 | 0.00 | 1 | 1007.7 |
| 20260507084804 | 63 | 0 | 0.0 | 0.0 | 0.00 | 0.08 | 0.00 | 1 | 1007.7 |
| 20260507084704 | 63 | 0 | 0.0 | 0.0 | 0.00 | 0.08 | 0.00 | 1 | 1007.7 |
| 20260507084604 | 63 | 0 | 0.0 | 0.0 | 0.00 | 0.08 | 0.00 | 1 | 1007.7 |
| 20260507084504 | 63 | 0 | 0.0 | 0.0 | 0.00 | 0.08 | 0.00 | 1 | 1007.7 |
| 20260507084404 | 63 | 0 | 0.0 | 0.0 | 0.00 | 0.08 | 0.00 | 1 | 1007.7 |
| 20260507084304 | 63 | 0 | 0.0 | 0.0 | 0.00 | 0.08 | 0.00 | 1 | 1007.6 |
| 20260507084204 | 63 | 0 | 0.0 | 0.0 | 0.00 | 0.08 | 0.00 | 1 | 1007.6 |
| 20260507084104 | 63 | 0 | 0.0 | 0.0 | 0.00 | 0.08 | 0.00 | 1 | 1007.6 |
| 20260507084004 | 63 | 0 | 0.0 | 0.0 | 0.00 | 0.08 | 0.00 | 1 | 1007.7 |
| 20260507083904 | 63 | 0 | 0.0 | 0.0 | 0.00 | 0.08 | 0.00 | 1 | 1007.7 |
| 20260507083804 | 63 | 0 | 0.0 | 0.0 | 0.00 | 0.08 | 0.00 | 1 | 1007.8 |
| 20260507083704 | 63 | 0 | 0.0 | 0.0 | 0.00 | 0.08 | 0.00 | 1 | 1007.8 |
| 20260507083604 | 63 | 0 | 0.0 | 0.0 | 0.00 | 0.08 | 0.00 | 1 | 1007.9 |
| 20260507083504 | 63 | 0 | 0.0 | 0.0 | 0.00 | 0.08 | 0.00 | 1 | 1007.8 |
| 20260507083404 | 63 | 0 | 0.0 | 0.0 | 0.00 | 0.08 | 0.00 | 1 | 1007.8 |
| 20260507083304 | 63 | 0 | 0.0 | 0.0 | 0.00 | 0.08 | 0.00 | 1 | 1007.8 |
| 20260507083204 | 63 | 0 | 0.0 | 0.0 | 0.00 | 0.08 | 0.00 | 1 | 1007.8 |
| 20260507083104 | 63 | 0 | 0.0 | 0.0 | 0.00 | 0.08 | 0.00 | 1 | 1007.7 |
| 20260507083004 | 63 | 0 | 0.0 | 0.0 | 0.00 | 0.08 | 0.00 | 1 | 1007.6 |
| 20260507082904 | 63 | 0 | 0.0 | 0.0 | 0.00 | 0.08 | 0.00 | 1 | 1007.6 |
| 20260507082804 | 63 | 0 | 0.0 | 0.0 | 0.00 | 0.08 | 0.00 | 1 | 1007.5 |
| 20260507082704 | 63 | 0 | 0.0 | 0.0 | 0.00 | 0.08 | 0.00 | 1 | 1007.4 |
| 20260507082604 | 63 | 0 | 0.0 | 0.0 | 0.00 | 0.08 | 0.00 | 1 | 1007.4 |
| 20260507082504 | 63 | 0 | 0.0 | 0.0 | 0.00 | 0.08 | 0.00 | 1 | 1007.5 |
| 20260507082404 | 63 | 0 | 0.0 | 0.0 | 0.00 | 0.08 | 0.00 | 1 | 1007.5 |
| 20260507082306 | 63 | 0 | 0.0 | 0.0 | 0.00 | 0.08 | 0.00 | 1 | 1007.5 |
| 20260507082204 | 63 | 0 | 0.0 | 0.0 | 0.00 | 0.08 | 0.00 | 1 | 1007.8 |
| 20260507082104 | 63 | 0 | 0.0 | 0.0 | 0.00 | 0.08 | 0.00 | 1 | 1007.8 |
| 20260507082004 | 63 | 0 | 0.0 | 0.0 | 0.00 | 0.08 | 0.00 | 1 | 1007.9 |
| 20260507081904 | 63 | 0 | 0.0 | 0.0 | 0.00 | 0.08 | 0.00 | 1 | 1007.9 |
| 20260507081804 | 63 | 0 | 0.0 | 0.0 | 0.00 | 0.08 | 0.00 | 1 | 1007.8 |
| 20260507081704 | 63 | 0 | 0.0 | 0.0 | 0.00 | 0.08 | 0.00 | 1 | 1007.8 |
| 20260507081604 | 63 | 0 | 0.0 | 0.0 | 0.00 | 0.08 | 0.00 | 1 | 1007.8 |
| 20260507081504 | 63 | 0 | 0.0 | 0.0 | 0.00 | 0.08 | 0.00 | 1 | 1007.8 |
| 20260507081304 | 63 | 0 | 0.0 | 0.0 | 0.00 | 0.08 | 0.00 | 1 | 1007.7 |
| 20260507081204 | 63 | 0 | 0.0 | 0.0 | 0.00 | 0.08 | 0.00 | 1 | 1007.4 |
| 20260507081104 | 63 | 0 | 0.0 | 0.0 | 0.00 | 0.08 | 0.00 | 1 | 1007.4 |
| 20260507081039 | 63 | 0 | 0.0 | 0.0 | 0.00 | 0.08 | 0.00 | 1 | 1007.4 |
| 20260507080904 | 63 | 0 | 0.0 | 0.0 | 0.00 | 0.08 | 0.00 | 1 | 1007.5 |
| 20260507080803 | 63 | 0 | 0.0 | 0.0 | 0.00 | 0.08 | 0.00 | 1 | 1007.5 |
| 20260507080703 | 63 | 0 | 0.0 | 0.0 | 0.00 | 0.08 | 0.00 | 1 | 1007.8 |
| 20260507080603 | 63 | 0 | 0.0 | 0.0 | 0.00 | 0.08 | 0.00 | 1 | 1007.8 |
| 20260507080503 | 63 | 0 | 0.0 | 0.0 | 0.00 | 0.08 | 0.00 | 1 | 1007.7 |
| 20260507080404 | 63 | 0 | 0.0 | 0.0 | 0.00 | 0.08 | 0.00 | 1 | 1007.8 |
| 20260507080303 | 63 | 0 | 0.0 | 0.0 | 0.00 | 0.08 | 0.00 | 1 | 1007.8 |
| 20260507080203 | 63 | 0 | 0.0 | 0.0 | 0.00 | 0.08 | 0.00 | 1 | 1007.9 |
| 20260507080103 | 63 | 0 | 0.0 | 0.0 | 0.00 | 0.08 | 0.00 | 1 | 1007.9 |
| 20260507080004 | 63 | 0 | 0.0 | 0.0 | 0.00 | 0.08 | 0.00 | 1 | 1007.9 |
| 20260507075903 | 63 | 0 | 0.0 | 0.0 | 0.00 | 0.08 | 0.00 | 1 | 1007.9 |
| 20260507075803 | 63 | 0 | 0.0 | 0.0 | 0.00 | 0.08 | 0.00 | 1 | 1007.9 |
| 20260507075703 | 63 | 0 | 0.0 | 0.0 | 0.00 | 0.08 | 0.00 | 1 | 1007.8 |
| 20260507075603 | 63 | 0 | 0.0 | 0.0 | 0.00 | 0.08 | 0.00 | 1 | 1007.8 |
| 20260507075503 | 63 | 0 | 0.0 | 0.0 | 0.00 | 0.08 | 0.00 | 1 | 1007.8 |
| 20260507075403 | 63 | 0 | 0.0 | 0.0 | 0.00 | 0.08 | 0.00 | 1 | 1007.9 |
| 20260507075325 | 63 | 0 | 0.0 | 0.0 | 0.00 | 0.08 | 0.00 | 1 | 1007.9 |
| 20260507075225 | 63 | 0 | 0.0 | 0.0 | 0.00 | 0.08 | 0.00 | 1 | 1007.9 |
| 20260507075124 | 63 | 0 | 0.0 | 0.0 | 0.00 | 0.08 | 0.00 | 1 | 1007.9 |
| 20260507075024 | 63 | 0 | 0.0 | 0.0 | 0.00 | 0.08 | 0.00 | 1 | 1007.9 |
| 20260507074924 | 63 | 0 | 0.0 | 0.0 | 0.00 | 0.08 | 0.00 | 1 | 1007.9 |
| 20260507074803 | 63 | 0 | 0.0 | 0.0 | 0.00 | 0.08 | 0.00 | 1 | 1007.9 |
| 20260507074703 | 63 | 0 | 0.0 | 0.0 | 0.00 | 0.08 | 0.00 | 1 | 1007.9 |
| 20260507074603 | 63 | 0 | 0.0 | 0.0 | 0.00 | 0.08 | 0.00 | 1 | 1008.0 |
| 20260507074503 | 63 | 0 | 0.0 | 0.0 | 0.00 | 0.08 | 0.00 | 1 | 1008.0 |
| 20260507074403 | 63 | 0 | 0.0 | 0.0 | 0.00 | 0.08 | 0.00 | 1 | 1008.0 |
| 20260507074303 | 63 | 0 | 0.0 | 0.0 | 0.00 | 0.08 | 0.00 | 1 | 1008.2 |
| 20260507074204 | 63 | 0 | 0.0 | 0.0 | 0.00 | 0.08 | 0.00 | 1 | 1008.2 |
| 20260507074103 | 63 | 0 | 0.0 | 0.0 | 0.00 | 0.08 | 0.00 | 1 | 1008.1 |
| 20260507074004 | 63 | 0 | 0.0 | 0.0 | 0.00 | 0.08 | 0.00 | 1 | 1008.0 |
| 20260507073903 | 63 | 0 | 0.0 | 0.0 | 0.00 | 0.08 | 0.00 | 1 | 1008.0 |
| 20260507073803 | 63 | 0 | 0.0 | 0.0 | 0.00 | 0.08 | 0.00 | 1 | 1007.9 |
| 20260507073703 | 63 | 0 | 0.0 | 0.0 | 0.00 | 0.08 | 0.00 | 1 | 1007.9 |
| 20260507073604 | 63 | 0 | 0.0 | 0.0 | 0.00 | 0.08 | 0.00 | 1 | 1008.2 |
| 20260507073504 | 63 | 0 | 0.0 | 0.0 | 0.00 | 0.08 | 0.00 | 1 | 1008.2 |
| 20260507073404 | 63 | 0 | 0.0 | 0.0 | 0.00 | 0.08 | 0.00 | 1 | 1008.2 |
| 20260507073304 | 63 | 0 | 0.0 | 0.0 | 0.00 | 0.08 | 0.00 | 1 | 1007.9 |
| 20260507073204 | 63 | 0 | 0.0 | 0.0 | 0.00 | 0.08 | 0.00 | 1 | 1007.9 |
| 20260507073104 | 63 | 0 | 0.0 | 0.0 | 0.00 | 0.08 | 0.00 | 1 | 1007.7 |
| 20260507073004 | 63 | 0 | 0.0 | 0.0 | 0.00 | 0.08 | 0.00 | 1 | 1007.8 |
| 20260507072904 | 63 | 0 | 0.0 | 0.0 | 0.00 | 0.08 | 0.00 | 1 | 1007.8 |
| 20260507072804 | 63 | 0 | 0.0 | 0.0 | 0.00 | 0.08 | 0.00 | 1 | 1007.8 |
| 20260507072704 | 63 | 0 | 0.0 | 0.0 | 0.00 | 0.08 | 0.00 | 1 | 1007.8 |
| 20260507072604 | 63 | 0 | 0.0 | 0.0 | 0.00 | 0.08 | 0.00 | 1 | 1007.8 |
| 20260507072504 | 63 | 0 | 0.0 | 0.0 | 0.00 | 0.08 | 0.00 | 1 | 1007.7 |
| 20260507072404 | 63 | 0 | 0.0 | 0.0 | 0.00 | 0.08 | 0.00 | 1 | 1007.7 |
| 20260507072306 | 63 | 0 | 0.0 | 0.0 | 0.00 | 0.08 | 0.00 | 1 | 1007.6 |
| 20260507072225 | 63 | 0 | 0.0 | 0.0 | 0.00 | 0.08 | 0.00 | 1 | 1007.6 |
| 20260507072125 | 63 | 0 | 0.0 | 0.0 | 0.00 | 0.08 | 0.00 | 1 | 1007.6 |
| 20260507072025 | 63 | 0 | 0.0 | 0.0 | 0.00 | 0.08 | 0.00 | 1 | 1007.6 |
| 20260507071925 | 63 | 0 | 0.0 | 0.0 | 0.00 | 0.08 | 0.00 | 1 | 1007.6 |
| 20260507071804 | 63 | 0 | 0.0 | 0.0 | 0.00 | 0.08 | 0.00 | 1 | 1007.8 |
| 20260507071704 | 63 | 0 | 0.0 | 0.0 | 0.00 | 0.08 | 0.00 | 1 | 1007.7 |
| 20260507071604 | 63 | 0 | 0.0 | 0.0 | 0.00 | 0.08 | 0.00 | 1 | 1007.7 |
| 20260507071504 | 63 | 0 | 0.0 | 0.0 | 0.00 | 0.08 | 0.00 | 1 | 1007.8 |
| 20260507071404 | 63 | 0 | 0.0 | 0.0 | 0.00 | 0.08 | 0.00 | 1 | 1007.8 |
| 20260507071304 | 63 | 0 | 0.0 | 0.0 | 0.00 | 0.08 | 0.00 | 1 | 1007.9 |
| 20260507071204 | 63 | 0 | 0.0 | 0.0 | 0.00 | 0.08 | 0.00 | 1 | 1007.8 |
| 20260507071104 | 63 | 0 | 0.0 | 0.0 | 0.00 | 0.08 | 0.00 | 1 | 1007.8 |
| 20260507071004 | 63 | 0 | 0.0 | 0.0 | 0.00 | 0.08 | 0.00 | 1 | 1007.8 |
| 20260507070904 | 63 | 0 | 0.0 | 0.0 | 0.00 | 0.08 | 0.00 | 1 | 1007.7 |
| 20260507070804 | 63 | 0 | 0.0 | 0.0 | 0.00 | 0.08 | 0.00 | 1 | 1007.7 |
| 20260507070704 | 63 | 0 | 0.0 | 0.0 | 0.00 | 0.08 | 0.00 | 1 | 1007.8 |
| 20260507070604 | 63 | 0 | 0.0 | 0.0 | 0.00 | 0.08 | 0.00 | 1 | 1007.8 |
| 20260507070504 | 63 | 0 | 0.0 | 0.0 | 0.00 | 0.08 | 0.00 | 1 | 1007.7 |
| 20260507070404 | 63 | 0 | 0.0 | 0.0 | 0.00 | 0.08 | 0.00 | 1 | 1007.9 |
| 20260507070304 | 63 | 0 | 0.0 | 0.0 | 0.00 | 0.08 | 0.00 | 1 | 1007.9 |
| 20260507070204 | 63 | 0 | 0.0 | 0.0 | 0.00 | 0.08 | 0.00 | 1 | 1007.9 |
| 20260507070103 | 63 | 0 | 0.0 | 0.0 | 0.00 | 0.08 | 0.00 | 1 | 1007.9 |
| 20260507070007 | 63 | 0 | 0.0 | 0.0 | 0.00 | 0.08 | 0.00 | 1 | 1008.0 |
| 20260507065903 | 63 | 0 | 0.0 | 0.0 | 0.00 | 0.08 | 0.00 | 1 | 1008.1 |
| 20260507065803 | 63 | 0 | 0.0 | 0.0 | 0.00 | 0.08 | 0.00 | 1 | 1008.1 |
| 20260507065703 | 63 | 0 | 0.0 | 0.0 | 0.00 | 0.08 | 0.00 | 1 | 1008.1 |
| 20260507065604 | 63 | 0 | 0.0 | 0.0 | 0.00 | 0.08 | 0.00 | 1 | 1008.2 |
| 20260507065504 | 63 | 0 | 0.0 | 0.0 | 0.00 | 0.08 | 0.00 | 1 | 1008.2 |
| 20260507065404 | 63 | 0 | 0.0 | 0.0 | 0.00 | 0.08 | 0.00 | 1 | 1008.1 |
| 20260507065306 | 63 | 0 | 0.0 | 0.0 | 0.00 | 0.08 | 0.00 | 1 | 1008.0 |
| 20260507065204 | 63 | 0 | 0.0 | 0.0 | 0.00 | 0.08 | 0.00 | 1 | 1008.0 |
| 20260507065104 | 63 | 0 | 0.0 | 0.0 | 0.00 | 0.08 | 0.00 | 1 | 1007.9 |
| 20260507065004 | 63 | 0 | 0.0 | 0.0 | 0.00 | 0.08 | 0.00 | 1 | 1007.9 |
| 20260507064904 | 63 | 0 | 0.0 | 0.0 | 0.00 | 0.08 | 0.00 | 1 | 1007.8 |
| 20260507064804 | 63 | 0 | 0.0 | 0.0 | 0.00 | 0.08 | 0.00 | 1 | 1007.6 |
| 20260507064704 | 63 | 0 | 0.0 | 0.0 | 0.00 | 0.08 | 0.00 | 1 | 1007.6 |
| 20260507064603 | 63 | 0 | 0.0 | 0.0 | 0.00 | 0.08 | 0.00 | 1 | 1007.6 |
| 20260507064504 | 63 | 0 | 0.0 | 0.0 | 0.00 | 0.08 | 0.00 | 1 | 1007.4 |
| 20260507064404 | 63 | 0 | 0.0 | 0.0 | 0.00 | 0.08 | 0.00 | 1 | 1007.4 |
| 20260507064303 | 63 | 0 | 0.0 | 0.0 | 0.00 | 0.08 | 0.00 | 1 | 1007.3 |
| 20260507064204 | 63 | 0 | 0.0 | 0.0 | 0.00 | 0.08 | 0.00 | 1 | 1007.3 |
| 20260507064103 | 63 | 0 | 0.0 | 0.0 | 0.00 | 0.08 | 0.00 | 1 | 1007.4 |
| 20260507064003 | 63 | 0 | 0.0 | 0.0 | 0.00 | 0.08 | 0.00 | 1 | 1007.4 |
| 20260507063903 | 63 | 0 | 0.0 | 0.0 | 0.00 | 0.08 | 0.00 | 1 | 1007.4 |
| 20260507063803 | 63 | 0 | 0.0 | 0.0 | 0.00 | 0.08 | 0.00 | 1 | 1007.4 |
| 20260507063703 | 63 | 0 | 0.0 | 0.0 | 0.00 | 0.08 | 0.00 | 1 | 1007.4 |
| 20260507063603 | 63 | 0 | 0.0 | 0.0 | 0.00 | 0.08 | 0.00 | 1 | 1007.5 |
| 20260507063503 | 63 | 0 | 0.0 | 0.0 | 0.00 | 0.08 | 0.00 | 1 | 1007.6 |
| 20260507063403 | 63 | 0 | 0.0 | 0.0 | 0.00 | 0.08 | 0.00 | 1 | 1007.6 |
| 20260507063303 | 63 | 0 | 0.0 | 0.0 | 0.00 | 0.08 | 0.00 | 1 | 1007.7 |
| 20260507063203 | 63 | 0 | 0.0 | 0.0 | 0.00 | 0.08 | 0.00 | 1 | 1007.7 |
| 20260507063104 | 63 | 0 | 0.0 | 0.0 | 0.00 | 0.08 | 0.00 | 1 | 1007.7 |
| 20260507063004 | 63 | 0 | 0.0 | 0.0 | 0.00 | 0.08 | 0.00 | 1 | 1007.8 |
| 20260507062904 | 63 | 0 | 0.0 | 0.0 | 0.00 | 0.08 | 0.00 | 1 | 1007.8 |
| 20260507062804 | 63 | 0 | 0.0 | 0.0 | 0.00 | 0.08 | 0.00 | 1 | 1007.9 |
| 20260507062704 | 63 | 0 | 0.0 | 0.0 | 0.00 | 0.08 | 0.00 | 1 | 1007.7 |
| 20260507062604 | 63 | 0 | 0.0 | 0.0 | 0.00 | 0.08 | 0.00 | 1 | 1007.7 |
| 20260507062504 | 63 | 0 | 0.0 | 0.0 | 0.00 | 0.08 | 0.00 | 1 | 1007.4 |
| 20260507062404 | 63 | 0 | 0.0 | 0.0 | 0.00 | 0.08 | 0.00 | 1 | 1007.4 |
| 20260507062306 | 63 | 0 | 0.0 | 0.0 | 0.00 | 0.08 | 0.00 | 1 | 1007.5 |
| 20260507062204 | 63 | 0 | 0.0 | 0.0 | 0.00 | 0.08 | 0.00 | 1 | 1007.6 |
| 20260507062104 | 63 | 0 | 0.0 | 0.0 | 0.00 | 0.08 | 0.00 | 1 | 1007.6 |
| 20260507062004 | 63 | 0 | 0.0 | 0.0 | 0.00 | 0.08 | 0.00 | 1 | 1007.6 |
| 20260507061904 | 63 | 0 | 0.0 | 0.0 | 0.00 | 0.08 | 0.00 | 1 | 1007.6 |
| 20260507061804 | 63 | 0 | 0.0 | 0.0 | 0.00 | 0.08 | 0.00 | 1 | 1007.4 |
| 20260507061704 | 63 | 0 | 0.0 | 0.0 | 0.00 | 0.08 | 0.00 | 1 | 1007.3 |
| 20260507061604 | 63 | 0 | 0.0 | 0.0 | 0.00 | 0.08 | 0.00 | 1 | 1007.3 |
| 20260507061504 | 63 | 0 | 0.0 | 0.0 | 0.00 | 0.08 | 0.00 | 1 | 1007.4 |
| 20260507061425 | 63 | 0 | 0.0 | 0.0 | 0.00 | 0.08 | 0.00 | 1 | 1007.4 |
| 20260507061324 | 63 | 0 | 0.0 | 0.0 | 0.00 | 0.08 | 0.00 | 1 | 1007.5 |
| 20260507061225 | 63 | 0 | 0.0 | 0.0 | 0.00 | 0.08 | 0.00 | 1 | 1007.5 |
| 20260507061125 | 63 | 0 | 0.0 | 0.0 | 0.00 | 0.08 | 0.00 | 1 | 1007.5 |
| 20260507061025 | 63 | 0 | 0.0 | 0.0 | 0.00 | 0.08 | 0.00 | 1 | 1007.3 |
| 20260507060903 | 63 | 0 | 0.0 | 0.0 | 0.00 | 0.08 | 0.00 | 1 | 1007.0 |
| 20260507060803 | 63 | 0 | 0.0 | 0.0 | 0.00 | 0.08 | 0.00 | 1 | 1007.0 |
| 20260507060703 | 63 | 0 | 0.0 | 0.0 | 0.00 | 0.08 | 0.00 | 1 | 1007.1 |
| 20260507060603 | 63 | 0 | 0.0 | 0.0 | 0.00 | 0.08 | 0.00 | 1 | 1007.1 |
| 20260507060504 | 63 | 0 | 0.0 | 0.0 | 0.00 | 0.08 | 0.00 | 1 | 1007.3 |
| 20260507060404 | 63 | 0 | 0.0 | 0.0 | 0.00 | 0.08 | 0.00 | 1 | 1007.4 |
| 20260507060304 | 63 | 0 | 0.0 | 0.0 | 0.00 | 0.08 | 0.00 | 1 | 1007.4 |
| 20260507060204 | 63 | 0 | 0.0 | 0.0 | 0.00 | 0.08 | 0.00 | 1 | 1007.5 |
| 20260507060104 | 63 | 0 | 0.0 | 0.0 | 0.00 | 0.08 | 0.00 | 1 | 1007.5 |
| 20260507060004 | 63 | 0 | 0.0 | 0.0 | 0.00 | 0.08 | 0.00 | 1 | 1007.3 |
| 20260507055903 | 63 | 0 | 0.0 | 0.0 | 0.00 | 0.08 | 0.00 | 1 | 1007.2 |
| 20260507055803 | 63 | 0 | 0.0 | 0.0 | 0.00 | 0.08 | 0.00 | 1 | 1007.2 |
| 20260507055703 | 63 | 0 | 0.0 | 0.0 | 0.00 | 0.08 | 0.00 | 1 | 1007.2 |
| 20260507055603 | 63 | 0 | 0.0 | 0.0 | 0.00 | 0.08 | 0.00 | 1 | 1007.2 |
| 20260507055503 | 63 | 0 | 0.0 | 0.0 | 0.00 | 0.08 | 0.00 | 1 | 1007.2 |
| 20260507055403 | 63 | 0 | 0.0 | 0.0 | 0.00 | 0.08 | 0.00 | 1 | 1007.2 |
| 20260507055306 | 63 | 0 | 0.0 | 0.0 | 0.00 | 0.08 | 0.00 | 1 | 1007.0 |
| 20260507055203 | 63 | 0 | 0.0 | 0.0 | 0.00 | 0.08 | 0.00 | 1 | 1007.0 |
| 20260507055103 | 63 | 0 | 0.0 | 0.0 | 0.00 | 0.08 | 0.00 | 1 | 1006.9 |
| 20260507055004 | 63 | 0 | 0.0 | 0.0 | 0.00 | 0.08 | 0.00 | 1 | 1006.9 |
| 20260507054924 | 63 | 0 | 0.0 | 0.0 | 0.00 | 0.08 | 0.00 | 1 | 1006.9 |
| 20260507054824 | 63 | 0 | 0.0 | 0.0 | 0.00 | 0.08 | 0.00 | 1 | 1006.9 |
| 20260507054724 | 63 | 0 | 0.0 | 0.0 | 0.00 | 0.08 | 0.00 | 1 | 1006.8 |
| 20260507054624 | 63 | 0 | 0.0 | 0.0 | 0.00 | 0.08 | 0.00 | 1 | 1006.8 |
| 20260507054503 | 63 | 0 | 0.0 | 0.0 | 0.00 | 0.08 | 0.00 | 1 | 1006.8 |
| 20260507054403 | 63 | 0 | 0.0 | 0.0 | 0.00 | 0.08 | 0.00 | 1 | 1006.8 |
| 20260507054303 | 63 | 0 | 0.0 | 0.0 | 0.00 | 0.08 | 0.00 | 1 | 1006.9 |
| 20260507054203 | 63 | 0 | 0.0 | 0.0 | 0.00 | 0.08 | 0.00 | 1 | 1006.9 |
| 20260507054103 | 63 | 0 | 0.0 | 0.0 | 0.00 | 0.08 | 0.00 | 1 | 1006.8 |
| 20260507054003 | 63 | 0 | 0.0 | 0.0 | 0.00 | 0.08 | 0.00 | 1 | 1006.8 |
| 20260507053903 | 63 | 0 | 0.0 | 0.0 | 0.00 | 0.08 | 0.00 | 1 | 1006.8 |
| 20260507053803 | 63 | 0 | 0.0 | 0.0 | 0.00 | 0.08 | 0.00 | 1 | 1006.9 |
| 20260507053703 | 63 | 0 | 0.0 | 0.0 | 0.00 | 0.08 | 0.00 | 1 | 1006.9 |
| 20260507053603 | 63 | 0 | 0.0 | 0.0 | 0.00 | 0.08 | 0.00 | 1 | 1007.0 |
| 20260507053503 | 63 | 0 | 0.0 | 0.0 | 0.00 | 0.08 | 0.00 | 1 | 1007.1 |
| 20260507053404 | 63 | 0 | 0.0 | 0.0 | 0.00 | 0.08 | 0.00 | 1 | 1007.1 |
| 20260507053304 | 63 | 0 | 0.0 | 0.0 | 0.00 | 0.08 | 0.00 | 1 | 1007.1 |
| 20260507053204 | 63 | 0 | 0.0 | 0.0 | 0.00 | 0.08 | 0.00 | 1 | 1007.1 |
| 20260507053104 | 63 | 0 | 0.0 | 0.0 | 0.00 | 0.08 | 0.00 | 1 | 1007.1 |
| 20260507053004 | 63 | 0 | 0.0 | 0.0 | 0.00 | 0.08 | 0.00 | 1 | 1007.1 |
| 20260507052904 | 63 | 0 | 0.0 | 0.0 | 0.00 | 0.08 | 0.00 | 1 | 1007.1 |
| 20260507052804 | 63 | 0 | 0.0 | 0.0 | 0.00 | 0.08 | 0.00 | 1 | 1007.1 |
| 20260507052704 | 63 | 0 | 0.0 | 0.0 | 0.00 | 0.08 | 0.00 | 1 | 1007.0 |
| 20260507052604 | 63 | 0 | 0.0 | 0.0 | 0.00 | 0.08 | 0.00 | 1 | 1007.0 |
| 20260507052504 | 63 | 0 | 0.0 | 0.0 | 0.00 | 0.08 | 0.00 | 1 | 1007.1 |
| 20260507052404 | 63 | 0 | 0.0 | 0.0 | 0.00 | 0.08 | 0.00 | 1 | 1007.1 |
| 20260507052325 | 63 | 0 | 0.0 | 0.0 | 0.00 | 0.08 | 0.00 | 1 | 1007.1 |
| 20260507052204 | 63 | 0 | 0.0 | 0.0 | 0.00 | 0.08 | 0.00 | 1 | 1007.0 |
| 20260507052104 | 63 | 0 | 0.0 | 0.0 | 0.00 | 0.08 | 0.00 | 1 | 1007.0 |
| 20260507052004 | 63 | 0 | 0.0 | 0.0 | 0.00 | 0.08 | 0.00 | 1 | 1007.0 |
| 20260507051904 | 63 | 0 | 0.0 | 0.0 | 0.00 | 0.08 | 0.00 | 1 | 1007.0 |
| 20260507051804 | 63 | 0 | 0.0 | 0.0 | 0.00 | 0.08 | 0.00 | 1 | 1007.1 |
| 20260507051704 | 63 | 0 | 0.0 | 0.0 | 0.00 | 0.08 | 0.00 | 1 | 1007.0 |
| 20260507051604 | 63 | 0 | 0.0 | 0.0 | 0.00 | 0.08 | 0.00 | 1 | 1007.0 |
| 20260507051504 | 63 | 0 | 0.0 | 0.0 | 0.00 | 0.08 | 0.00 | 1 | 1007.0 |
| 20260507051404 | 63 | 0 | 0.0 | 0.0 | 0.00 | 0.08 | 0.00 | 1 | 1007.0 |
| 20260507051304 | 63 | 0 | 0.0 | 0.0 | 0.00 | 0.08 | 0.00 | 1 | 1007.0 |
| 20260507051203 | 63 | 0 | 0.0 | 0.0 | 0.00 | 0.08 | 0.00 | 1 | 1007.2 |
| 20260507051103 | 63 | 0 | 0.0 | 0.0 | 0.00 | 0.08 | 0.00 | 1 | 1007.2 |
| 20260507051003 | 63 | 0 | 0.0 | 0.0 | 0.00 | 0.08 | 0.00 | 1 | 1007.2 |
| 20260507050903 | 63 | 0 | 0.0 | 0.0 | 0.00 | 0.08 | 0.00 | 1 | 1007.1 |
| 20260507050803 | 63 | 0 | 0.0 | 0.0 | 0.00 | 0.08 | 0.00 | 1 | 1007.1 |
| 20260507050704 | 63 | 0 | 0.0 | 0.0 | 0.00 | 0.08 | 0.00 | 1 | 1007.2 |
| 20260507050604 | 63 | 0 | 0.0 | 0.0 | 0.00 | 0.08 | 0.00 | 1 | 1007.2 |
| 20260507050504 | 63 | 0 | 0.0 | 0.0 | 0.00 | 0.08 | 0.00 | 1 | 1007.2 |
| 20260507050404 | 63 | 0 | 0.0 | 0.0 | 0.00 | 0.08 | 0.00 | 1 | 1007.2 |
| 20260507050304 | 63 | 0 | 0.0 | 0.0 | 0.00 | 0.08 | 0.00 | 1 | 1007.2 |
| 20260507050204 | 63 | 0 | 0.0 | 0.0 | 0.00 | 0.08 | 0.00 | 1 | 1007.3 |
| 20260507050104 | 63 | 0 | 0.0 | 0.0 | 0.00 | 0.08 | 0.00 | 1 | 1007.3 |
| 20260507050004 | 63 | 0 | 0.0 | 0.0 | 0.00 | 0.08 | 0.00 | 1 | 1007.3 |
| 20260507045904 | 63 | 0 | 0.0 | 0.0 | 0.00 | 0.08 | 0.00 | 1 | 1007.3 |
| 20260507045804 | 63 | 0 | 0.0 | 0.0 | 0.00 | 0.08 | 0.00 | 1 | 1007.3 |
| 20260507045704 | 63 | 0 | 0.0 | 0.0 | 0.00 | 0.08 | 0.00 | 1 | 1007.2 |
| 20260507045604 | 63 | 0 | 0.0 | 0.0 | 0.00 | 0.08 | 0.00 | 1 | 1007.2 |
| 20260507045504 | 63 | 0 | 0.0 | 0.0 | 0.00 | 0.08 | 0.00 | 1 | 1007.2 |
| 20260507045404 | 63 | 0 | 0.0 | 0.0 | 0.00 | 0.08 | 0.00 | 1 | 1007.2 |
| 20260507045306 | 63 | 0 | 0.0 | 0.0 | 0.00 | 0.08 | 0.00 | 1 | 1007.4 |
| 20260507045203 | 63 | 0 | 0.0 | 0.0 | 0.00 | 0.08 | 0.00 | 1 | 1007.4 |
| 20260507045103 | 63 | 0 | 0.0 | 0.0 | 0.00 | 0.08 | 0.00 | 1 | 1007.4 |
| 20260507045003 | 63 | 0 | 0.0 | 0.0 | 0.00 | 0.08 | 0.00 | 1 | 1007.4 |
| 20260507044903 | 63 | 0 | 0.0 | 0.0 | 0.00 | 0.08 | 0.00 | 1 | 1007.5 |
| 20260507044803 | 63 | 0 | 0.0 | 0.0 | 0.00 | 0.08 | 0.00 | 1 | 1007.5 |
| 20260507044704 | 63 | 0 | 0.0 | 0.0 | 0.00 | 0.08 | 0.00 | 1 | 1007.5 |
| 20260507044603 | 63 | 0 | 0.0 | 0.0 | 0.00 | 0.08 | 0.00 | 1 | 1007.4 |
| 20260507044504 | 63 | 0 | 0.0 | 0.0 | 0.00 | 0.08 | 0.00 | 1 | 1007.4 |
| 20260507044404 | 63 | 0 | 0.0 | 0.0 | 0.00 | 0.08 | 0.00 | 1 | 1007.4 |
| 20260507044304 | 63 | 0 | 0.0 | 0.0 | 0.00 | 0.08 | 0.00 | 1 | 1007.4 |
| 20260507044224 | 63 | 0 | 0.0 | 0.0 | 0.00 | 0.08 | 0.00 | 1 | 1007.4 |
| 20260507044125 | 63 | 0 | 0.0 | 0.0 | 0.00 | 0.08 | 0.00 | 1 | 1007.3 |
| 20260507044024 | 63 | 0 | 0.0 | 0.0 | 0.00 | 0.08 | 0.00 | 1 | 1007.3 |
| 20260507043924 | 63 | 0 | 0.0 | 0.0 | 0.00 | 0.08 | 0.00 | 1 | 1007.3 |
| 20260507043825 | 63 | 0 | 0.0 | 0.0 | 0.00 | 0.08 | 0.00 | 1 | 1007.2 |
| 20260507043703 | 63 | 0 | 0.0 | 0.0 | 0.00 | 0.08 | 0.00 | 1 | 1007.2 |
| 20260507043603 | 63 | 0 | 0.0 | 0.0 | 0.00 | 0.08 | 0.00 | 1 | 1007.3 |
| 20260507043503 | 63 | 0 | 0.0 | 0.0 | 0.00 | 0.08 | 0.00 | 1 | 1007.4 |
| 20260507043403 | 63 | 0 | 0.0 | 0.0 | 0.00 | 0.08 | 0.00 | 1 | 1007.4 |
| 20260507043303 | 63 | 0 | 0.0 | 0.0 | 0.00 | 0.08 | 0.00 | 1 | 1007.4 |
| 20260507043205 | 63 | 0 | 0.0 | 0.0 | 0.00 | 0.08 | 0.00 | 1 | 1007.4 |
| 20260507043124 | 63 | 0 | 0.0 | 0.0 | 0.00 | 0.08 | 0.00 | 1 | 1007.3 |
| 20260507043024 | 63 | 0 | 0.0 | 0.0 | 0.00 | 0.08 | 0.00 | 1 | 1007.3 |
| 20260507042924 | 63 | 0 | 0.0 | 0.0 | 0.00 | 0.08 | 0.00 | 1 | 1007.2 |
| 20260507042824 | 63 | 0 | 0.0 | 0.0 | 0.00 | 0.08 | 0.00 | 1 | 1007.2 |
| 20260507042724 | 63 | 0 | 0.0 | 0.0 | 0.00 | 0.08 | 0.00 | 1 | 1007.2 |
| 20260507042624 | 63 | 0 | 0.0 | 0.0 | 0.00 | 0.08 | 0.00 | 1 | 1007.4 |
| 20260507042525 | 63 | 0 | 0.0 | 0.0 | 0.00 | 0.08 | 0.00 | 1 | 1007.4 |
| 20260507042425 | 63 | 0 | 0.0 | 0.0 | 0.00 | 0.08 | 0.00 | 1 | 1007.4 |
| 20260507042325 | 63 | 0 | 0.0 | 0.0 | 0.00 | 0.08 | 0.00 | 1 | 1007.4 |
| 20260507042225 | 63 | 0 | 0.0 | 0.0 | 0.00 | 0.08 | 0.00 | 1 | 1007.4 |
| 20260507042104 | 63 | 0 | 0.0 | 0.0 | 0.00 | 0.08 | 0.00 | 1 | 1007.5 |
| 20260507042004 | 63 | 0 | 0.0 | 0.0 | 0.00 | 0.08 | 0.00 | 1 | 1007.5 |
| 20260507041904 | 63 | 0 | 0.0 | 0.0 | 0.00 | 0.08 | 0.00 | 1 | 1007.5 |
| 20260507041804 | 63 | 0 | 0.0 | 0.0 | 0.00 | 0.08 | 0.00 | 1 | 1007.6 |
| 20260507041704 | 63 | 0 | 0.0 | 0.0 | 0.00 | 0.08 | 0.00 | 1 | 1007.4 |
| 20260507041603 | 63 | 0 | 0.0 | 0.0 | 0.00 | 0.08 | 0.00 | 1 | 1007.4 |
| 20260507041503 | 63 | 0 | 0.0 | 0.0 | 0.00 | 0.08 | 0.00 | 1 | 1007.4 |
| 20260507041403 | 63 | 0 | 0.0 | 0.0 | 0.00 | 0.08 | 0.00 | 1 | 1007.4 |
| 20260507041303 | 63 | 0 | 0.0 | 0.0 | 0.00 | 0.08 | 0.00 | 1 | 1007.3 |
| 20260507041204 | 63 | 0 | 0.0 | 0.0 | 0.00 | 0.08 | 0.00 | 1 | 1007.2 |
| 20260507041103 | 63 | 0 | 0.0 | 0.0 | 0.00 | 0.08 | 0.00 | 1 | 1007.2 |
| 20260507041003 | 63 | 0 | 0.0 | 0.0 | 0.00 | 0.08 | 0.00 | 1 | 1007.3 |
| 20260507040903 | 63 | 0 | 0.0 | 0.0 | 0.00 | 0.08 | 0.00 | 1 | 1007.3 |
| 20260507040803 | 63 | 0 | 0.0 | 0.0 | 0.00 | 0.08 | 0.00 | 1 | 1007.3 |
| 20260507040703 | 63 | 0 | 0.0 | 0.0 | 0.00 | 0.08 | 0.00 | 1 | 1007.3 |
| 20260507040603 | 63 | 0 | 0.0 | 0.0 | 0.00 | 0.08 | 0.00 | 1 | 1007.3 |
| 20260507040503 | 63 | 0 | 0.0 | 0.0 | 0.00 | 0.08 | 0.00 | 1 | 1007.4 |
| 20260507040403 | 63 | 0 | 0.0 | 0.0 | 0.00 | 0.08 | 0.00 | 1 | 1007.3 |
| 20260507040303 | 63 | 0 | 0.0 | 0.0 | 0.00 | 0.08 | 0.00 | 1 | 1007.3 |
| 20260507040203 | 63 | 0 | 0.0 | 0.0 | 0.00 | 0.08 | 0.00 | 1 | 1007.3 |
| 20260507040103 | 63 | 0 | 0.0 | 0.0 | 0.00 | 0.08 | 0.00 | 1 | 1007.3 |
| 20260507040005 | 63 | 0 | 0.0 | 0.0 | 0.00 | 0.08 | 0.00 | 1 | 1007.4 |
| 20260507035903 | 63 | 0 | 0.0 | 0.0 | 0.00 | 0.08 | 0.08 | 1 | 1007.4 |
| 20260507035804 | 63 | 0 | 0.0 | 0.0 | 0.00 | 0.08 | 0.08 | 1 | 1007.4 |
| 20260507035704 | 63 | 0 | 0.0 | 0.0 | 0.00 | 0.08 | 0.08 | 1 | 1007.3 |
| 20260507035604 | 63 | 0 | 0.0 | 0.0 | 0.00 | 0.08 | 0.08 | 1 | 1007.4 |
| 20260507035504 | 63 | 0 | 0.0 | 0.0 | 0.00 | 0.08 | 0.08 | 1 | 1007.4 |
| 20260507035404 | 63 | 0 | 0.0 | 0.0 | 0.00 | 0.08 | 0.08 | 1 | 1007.4 |
| 20260507035306 | 63 | 0 | 0.0 | 0.0 | 0.00 | 0.08 | 0.08 | 1 | 1007.3 |
| 20260507035204 | 63 | 0 | 0.0 | 0.0 | 0.00 | 0.08 | 0.08 | 1 | 1007.3 |
| 20260507035104 | 63 | 0 | 0.0 | 0.0 | 0.00 | 0.08 | 0.08 | 1 | 1007.3 |
| 20260507035004 | 63 | 0 | 0.0 | 0.0 | 0.00 | 0.08 | 0.08 | 1 | 1007.3 |
| 20260507034904 | 63 | 0 | 0.0 | 0.0 | 0.00 | 0.08 | 0.08 | 1 | 1007.3 |
| 20260507034804 | 63 | 0 | 0.0 | 0.0 | 0.00 | 0.08 | 0.08 | 1 | 1007.2 |
| 20260507034704 | 63 | 0 | 0.0 | 0.0 | 0.00 | 0.08 | 0.08 | 1 | 1007.2 |
| 20260507034604 | 63 | 0 | 0.0 | 0.0 | 0.00 | 0.08 | 0.08 | 1 | 1007.1 |
| 20260507034504 | 63 | 0 | 0.0 | 0.0 | 0.00 | 0.08 | 0.08 | 1 | 1007.2 |
| 20260507034425 | 63 | 0 | 0.0 | 0.0 | 0.00 | 0.08 | 0.08 | 1 | 1007.2 |
| 20260507034325 | 63 | 0 | 0.0 | 0.0 | 0.00 | 0.08 | 0.08 | 1 | 1007.0 |
| 20260507034225 | 63 | 0 | 0.0 | 0.0 | 0.00 | 0.08 | 0.08 | 1 | 1007.0 |
| 20260507034125 | 63 | 0 | 0.0 | 0.0 | 0.00 | 0.08 | 0.08 | 1 | 1007.0 |
| 20260507034025 | 63 | 0 | 0.0 | 0.0 | 0.00 | 0.08 | 0.08 | 1 | 1007.0 |
| 20260507033904 | 63 | 0 | 0.0 | 0.0 | 0.00 | 0.08 | 0.08 | 1 | 1006.8 |
| 20260507033804 | 63 | 0 | 0.0 | 0.0 | 0.00 | 0.08 | 0.08 | 1 | 1006.8 |
| 20260507033704 | 63 | 0 | 0.0 | 0.0 | 0.00 | 0.08 | 0.08 | 1 | 1006.8 |
| 20260507033604 | 63 | 0 | 0.0 | 0.0 | 0.00 | 0.08 | 0.08 | 1 | 1006.9 |
| 20260507033504 | 63 | 0 | 0.0 | 0.0 | 0.00 | 0.08 | 0.08 | 1 | 1007.0 |
| 20260507033404 | 63 | 0 | 0.0 | 0.0 | 0.00 | 0.08 | 0.08 | 1 | 1007.0 |
| 20260507033304 | 63 | 0 | 0.0 | 0.0 | 0.00 | 0.08 | 0.08 | 1 | 1007.0 |
| 20260507033204 | 63 | 0 | 0.0 | 0.0 | 0.00 | 0.08 | 0.08 | 1 | 1007.0 |
| 20260507033104 | 63 | 0 | 0.0 | 0.0 | 0.00 | 0.08 | 0.08 | 1 | 1006.9 |
| 20260507033004 | 63 | 0 | 0.0 | 0.0 | 0.00 | 0.08 | 0.08 | 1 | 1006.9 |
| 20260507032904 | 63 | 0 | 0.0 | 0.0 | 0.00 | 0.08 | 0.08 | 1 | 1006.9 |
| 20260507032804 | 63 | 0 | 0.0 | 0.0 | 0.00 | 0.08 | 0.08 | 1 | 1006.9 |
| 20260507032704 | 63 | 0 | 0.0 | 0.0 | 0.00 | 0.08 | 0.08 | 1 | 1006.8 |
| 20260507032604 | 63 | 0 | 0.0 | 0.0 | 0.00 | 0.08 | 0.08 | 1 | 1006.8 |
| 20260507032525 | 63 | 0 | 0.0 | 0.0 | 0.00 | 0.08 | 0.08 | 1 | 1006.7 |
| 20260507032424 | 63 | 0 | 0.0 | 0.0 | 0.00 | 0.08 | 0.08 | 1 | 1006.7 |
| 20260507032324 | 63 | 0 | 0.0 | 0.0 | 0.00 | 0.08 | 0.08 | 1 | 1006.7 |
| 20260507032224 | 63 | 0 | 0.0 | 0.0 | 0.00 | 0.08 | 0.08 | 1 | 1006.7 |
| 20260507032124 | 63 | 0 | 0.0 | 0.0 | 0.00 | 0.08 | 0.08 | 1 | 1006.8 |
| 20260507032024 | 63 | 0 | 0.0 | 0.0 | 0.00 | 0.08 | 0.08 | 1 | 1006.9 |
| 20260507031927 | 63 | 0 | 0.0 | 0.0 | 0.00 | 0.08 | 0.08 | 1 | 1006.9 |
| 20260507031804 | 63 | 0 | 0.0 | 0.0 | 0.00 | 0.08 | 0.08 | 1 | 1006.8 |
| 20260507031704 | 63 | 0 | 0.0 | 0.0 | 0.00 | 0.08 | 0.08 | 1 | 1006.9 |
| 20260507031604 | 63 | 0 | 0.0 | 0.0 | 0.00 | 0.08 | 0.08 | 1 | 1006.9 |
| 20260507031504 | 63 | 0 | 0.0 | 0.0 | 0.00 | 0.08 | 0.08 | 1 | 1006.9 |
| 20260507031404 | 63 | 0 | 0.0 | 0.0 | 0.00 | 0.08 | 0.08 | 1 | 1006.9 |
| 20260507031325 | 63 | 0 | 0.0 | 0.0 | 0.00 | 0.08 | 0.08 | 1 | 1006.8 |
| 20260507031225 | 63 | 0 | 0.0 | 0.0 | 0.00 | 0.08 | 0.08 | 1 | 1006.9 |
| 20260507031125 | 63 | 0 | 0.0 | 0.0 | 0.00 | 0.08 | 0.08 | 1 | 1006.9 |
| 20260507031025 | 63 | 0 | 0.0 | 0.0 | 0.00 | 0.08 | 0.08 | 1 | 1006.9 |
| 20260507030904 | 63 | 0 | 0.0 | 0.0 | 0.00 | 0.08 | 0.08 | 1 | 1006.8 |
| 20260507030824 | 63 | 0 | 0.0 | 0.0 | 0.00 | 0.08 | 0.08 | 1 | 1006.8 |
| 20260507030724 | 63 | 0 | 0.0 | 0.0 | 0.00 | 0.08 | 0.08 | 1 | 1006.9 |
| 20260507030624 | 63 | 0 | 0.0 | 0.0 | 0.00 | 0.08 | 0.08 | 1 | 1006.9 |
| 20260507030524 | 63 | 0 | 0.0 | 0.0 | 0.00 | 0.08 | 0.08 | 1 | 1006.9 |
| 20260507030403 | 63 | 0 | 0.0 | 0.0 | 0.00 | 0.08 | 0.08 | 1 | 1006.9 |
| 20260507030303 | 63 | 0 | 0.0 | 0.0 | 0.00 | 0.08 | 0.08 | 1 | 1006.9 |
| 20260507030203 | 63 | 0 | 0.0 | 0.0 | 0.00 | 0.08 | 0.08 | 1 | 1006.9 |
| 20260507030004 | 63 | 0 | 0.0 | 0.0 | 0.00 | 0.08 | 0.08 | 1 | 1007.0 |
| 20260507025903 | 63 | 0 | 0.0 | 0.0 | 0.00 | 0.08 | 0.08 | 1 | 1007.0 |
| 20260507025803 | 63 | 0 | 0.0 | 0.0 | 0.00 | 0.08 | 0.08 | 1 | 1007.0 |
| 20260507025703 | 63 | 0 | 0.0 | 0.0 | 0.00 | 0.08 | 0.08 | 1 | 1007.0 |
| 20260507025603 | 63 | 0 | 0.0 | 0.0 | 0.00 | 0.08 | 0.08 | 1 | 1007.1 |
| 20260507025503 | 63 | 0 | 0.0 | 0.0 | 0.00 | 0.08 | 0.08 | 1 | 1007.1 |
| 20260507025424 | 63 | 0 | 0.0 | 0.0 | 0.00 | 0.08 | 0.08 | 1 | 1007.1 |
| 20260507025306 | 63 | 0 | 0.0 | 0.0 | 0.00 | 0.08 | 0.08 | 1 | 1007.2 |
| 20260507025203 | 63 | 0 | 0.0 | 0.0 | 0.00 | 0.08 | 0.08 | 1 | 1007.2 |
| 20260507025103 | 63 | 0 | 0.0 | 0.0 | 0.00 | 0.08 | 0.08 | 1 | 1007.2 |
| 20260507025003 | 63 | 0 | 0.0 | 0.0 | 0.00 | 0.08 | 0.08 | 1 | 1007.2 |
| 20260507024903 | 63 | 0 | 0.0 | 0.0 | 0.00 | 0.08 | 0.08 | 1 | 1007.3 |
| 20260507024803 | 63 | 0 | 0.0 | 0.0 | 0.00 | 0.08 | 0.08 | 1 | 1007.3 |
| 20260507024703 | 63 | 0 | 0.0 | 0.0 | 0.00 | 0.08 | 0.08 | 1 | 1007.3 |
| 20260507024603 | 63 | 0 | 0.0 | 0.0 | 0.00 | 0.08 | 0.08 | 1 | 1007.3 |
| 20260507024503 | 63 | 0 | 0.0 | 0.0 | 0.00 | 0.08 | 0.08 | 1 | 1007.2 |
| 20260507024404 | 63 | 0 | 0.0 | 0.0 | 0.00 | 0.08 | 0.08 | 1 | 1007.2 |
| 20260507024304 | 63 | 0 | 0.0 | 0.0 | 0.00 | 0.08 | 0.08 | 1 | 1007.1 |
| 20260507024204 | 63 | 0 | 0.0 | 0.0 | 0.00 | 0.08 | 0.08 | 1 | 1007.1 |
| 20260507024104 | 63 | 0 | 0.0 | 0.0 | 0.00 | 0.08 | 0.08 | 1 | 1007.0 |
| 20260507024004 | 63 | 0 | 0.0 | 0.0 | 0.00 | 0.08 | 0.08 | 1 | 1007.0 |
| 20260507023904 | 63 | 0 | 0.0 | 0.0 | 0.00 | 0.08 | 0.08 | 1 | 1007.0 |
| 20260507023804 | 63 | 0 | 0.0 | 0.0 | 0.00 | 0.08 | 0.08 | 1 | 1007.0 |
| 20260507023704 | 63 | 0 | 0.0 | 0.0 | 0.00 | 0.08 | 0.08 | 1 | 1007.0 |
| 20260507023604 | 63 | 0 | 0.0 | 0.0 | 0.00 | 0.08 | 0.08 | 1 | 1007.0 |
| 20260507023504 | 63 | 0 | 0.0 | 0.0 | 0.00 | 0.08 | 0.08 | 1 | 1007.1 |
| 20260507023404 | 63 | 0 | 0.0 | 0.0 | 0.00 | 0.08 | 0.08 | 1 | 1007.1 |
| 20260507023304 | 63 | 0 | 0.0 | 0.0 | 0.00 | 0.08 | 0.08 | 1 | 1007.1 |
| 20260507023204 | 63 | 0 | 0.0 | 0.0 | 0.00 | 0.08 | 0.08 | 1 | 1007.1 |
| 20260507023104 | 63 | 0 | 0.0 | 0.0 | 0.00 | 0.08 | 0.08 | 1 | 1007.0 |
| 20260507023004 | 63 | 0 | 0.0 | 0.0 | 0.00 | 0.08 | 0.08 | 1 | 1007.1 |
| 20260507022904 | 63 | 0 | 0.0 | 0.0 | 0.00 | 0.08 | 0.08 | 1 | 1007.1 |
| 20260507022804 | 63 | 0 | 0.0 | 0.0 | 0.00 | 0.08 | 0.08 | 1 | 1007.2 |
| 20260507022704 | 63 | 0 | 0.0 | 0.0 | 0.00 | 0.08 | 0.08 | 1 | 1007.2 |
| 20260507022604 | 63 | 0 | 0.0 | 0.0 | 0.00 | 0.08 | 0.08 | 1 | 1007.2 |
| 20260507022504 | 63 | 0 | 0.0 | 0.0 | 0.00 | 0.08 | 0.08 | 1 | 1007.2 |
| 20260507022404 | 63 | 0 | 0.0 | 0.0 | 0.00 | 0.08 | 0.08 | 1 | 1007.2 |
| 20260507022306 | 63 | 0 | 0.0 | 0.0 | 0.00 | 0.08 | 0.08 | 1 | 1007.2 |
| 20260507022204 | 63 | 0 | 0.0 | 0.0 | 0.00 | 0.08 | 0.08 | 1 | 1007.0 |
| 20260507022103 | 63 | 0 | 0.0 | 0.0 | 0.00 | 0.08 | 0.08 | 1 | 1007.0 |
| 20260507022003 | 63 | 0 | 0.0 | 0.0 | 0.00 | 0.08 | 0.08 | 1 | 1007.0 |
| 20260507021904 | 63 | 0 | 0.0 | 0.0 | 0.00 | 0.08 | 0.08 | 1 | 1007.0 |
| 20260507021803 | 63 | 0 | 0.0 | 0.0 | 0.00 | 0.08 | 0.08 | 1 | 1007.0 |
| 20260507021703 | 63 | 0 | 0.0 | 0.0 | 0.00 | 0.08 | 0.08 | 1 | 1007.1 |
| 20260507021604 | 63 | 0 | 0.0 | 0.0 | 0.00 | 0.08 | 0.08 | 1 | 1007.1 |
| 20260507021504 | 63 | 0 | 0.0 | 0.0 | 0.00 | 0.08 | 0.08 | 1 | 1007.1 |
| 20260507021404 | 63 | 0 | 0.0 | 0.0 | 0.00 | 0.08 | 0.08 | 1 | 1007.1 |
| 20260507021304 | 63 | 0 | 0.0 | 0.0 | 0.00 | 0.08 | 0.08 | 1 | 1007.2 |
| 20260507021204 | 63 | 0 | 0.0 | 0.0 | 0.00 | 0.08 | 0.08 | 1 | 1007.2 |
| 20260507021104 | 63 | 0 | 0.0 | 0.0 | 0.00 | 0.08 | 0.08 | 1 | 1007.2 |
| 20260507021004 | 63 | 0 | 0.0 | 0.0 | 0.00 | 0.08 | 0.08 | 1 | 1007.2 |
| 20260507020904 | 63 | 0 | 0.0 | 0.0 | 0.00 | 0.08 | 0.08 | 1 | 1007.1 |
| 20260507020804 | 63 | 0 | 0.0 | 0.0 | 0.00 | 0.08 | 0.08 | 1 | 1007.1 |
| 20260507020704 | 63 | 0 | 0.0 | 0.0 | 0.00 | 0.08 | 0.08 | 1 | 1007.1 |
| 20260507020604 | 63 | 0 | 0.0 | 0.0 | 0.00 | 0.08 | 0.08 | 1 | 1007.1 |
| 20260507020504 | 63 | 0 | 0.0 | 0.0 | 0.00 | 0.08 | 0.08 | 1 | 1007.1 |
| 20260507020404 | 63 | 0 | 0.0 | 0.0 | 0.00 | 0.08 | 0.08 | 1 | 1007.0 |
| 20260507020304 | 63 | 0 | 0.0 | 0.0 | 0.00 | 0.08 | 0.08 | 1 | 1007.0 |
| 20260507020204 | 63 | 0 | 0.0 | 0.0 | 0.00 | 0.08 | 0.08 | 1 | 1007.0 |
| 20260507020104 | 63 | 0 | 0.0 | 0.0 | 0.00 | 0.08 | 0.08 | 1 | 1007.0 |
| 20260507020004 | 63 | 0 | 0.0 | 0.0 | 0.00 | 0.08 | 0.08 | 1 | 1007.0 |
| 20260507015904 | 63 | 0 | 0.0 | 0.0 | 0.00 | 0.08 | 0.08 | 1 | 1007.1 |
| 20260507015804 | 63 | 0 | 0.0 | 0.0 | 0.00 | 0.08 | 0.08 | 1 | 1007.1 |
| 20260507015704 | 63 | 0 | 0.0 | 0.0 | 0.00 | 0.08 | 0.08 | 1 | 1007.0 |
| 20260507015604 | 63 | 0 | 0.0 | 0.0 | 0.00 | 0.08 | 0.08 | 1 | 1007.0 |
| 20260507015504 | 63 | 0 | 0.0 | 0.0 | 0.00 | 0.08 | 0.08 | 1 | 1007.0 |
| 20260507015404 | 63 | 0 | 0.0 | 0.0 | 0.00 | 0.08 | 0.08 | 1 | 1007.0 |
| 20260507015306 | 63 | 0 | 0.0 | 0.0 | 0.00 | 0.08 | 0.08 | 1 | 1006.9 |
| 20260507015204 | 63 | 0 | 0.0 | 0.0 | 0.00 | 0.08 | 0.08 | 1 | 1006.9 |
| 20260507015104 | 63 | 0 | 0.0 | 0.0 | 0.00 | 0.08 | 0.08 | 1 | 1006.9 |
| 20260507015004 | 63 | 0 | 0.0 | 0.0 | 0.00 | 0.08 | 0.08 | 1 | 1006.9 |
| 20260507014904 | 63 | 0 | 0.0 | 0.0 | 0.00 | 0.08 | 0.08 | 1 | 1006.9 |
| 20260507014804 | 63 | 0 | 0.0 | 0.0 | 0.00 | 0.08 | 0.08 | 1 | 1006.9 |
| 20260507014704 | 63 | 0 | 0.0 | 0.0 | 0.00 | 0.08 | 0.08 | 1 | 1006.9 |
| 20260507014604 | 63 | 0 | 0.0 | 0.0 | 0.00 | 0.08 | 0.08 | 1 | 1006.9 |
| 20260507014525 | 63 | 0 | 0.0 | 0.0 | 0.00 | 0.08 | 0.08 | 1 | 1006.9 |
| 20260507014424 | 63 | 0 | 0.0 | 0.0 | 0.00 | 0.08 | 0.08 | 1 | 1006.8 |
| 20260507014324 | 63 | 0 | 0.0 | 0.0 | 0.00 | 0.08 | 0.08 | 1 | 1006.9 |
| 20260507014224 | 63 | 0 | 0.0 | 0.0 | 0.00 | 0.08 | 0.08 | 1 | 1006.9 |
| 20260507014124 | 63 | 0 | 0.0 | 0.0 | 0.00 | 0.08 | 0.08 | 1 | 1006.9 |
| 20260507014003 | 63 | 0 | 0.0 | 0.0 | 0.00 | 0.08 | 0.08 | 1 | 1007.0 |
| 20260507013903 | 63 | 0 | 0.0 | 0.0 | 0.00 | 0.08 | 0.08 | 1 | 1007.0 |
| 20260507013803 | 63 | 0 | 0.0 | 0.0 | 0.00 | 0.08 | 0.08 | 1 | 1006.9 |
| 20260507013703 | 63 | 0 | 0.0 | 0.0 | 0.00 | 0.08 | 0.08 | 1 | 1006.9 |
| 20260507013603 | 63 | 0 | 0.0 | 0.0 | 0.00 | 0.08 | 0.08 | 1 | 1006.9 |
| 20260507013503 | 63 | 0 | 0.0 | 0.0 | 0.00 | 0.08 | 0.08 | 1 | 1006.9 |
| 20260507013403 | 63 | 0 | 0.0 | 0.0 | 0.00 | 0.08 | 0.08 | 1 | 1006.9 |
| 20260507013303 | 63 | 0 | 0.0 | 0.0 | 0.00 | 0.08 | 0.08 | 1 | 1006.8 |
| 20260507013203 | 63 | 0 | 0.0 | 0.0 | 0.00 | 0.08 | 0.08 | 1 | 1006.8 |
| 20260507013124 | 63 | 0 | 0.0 | 0.0 | 0.00 | 0.08 | 0.08 | 1 | 1006.8 |
| 20260507013003 | 63 | 0 | 0.0 | 0.0 | 0.00 | 0.08 | 0.08 | 1 | 1006.8 |
| 20260507012903 | 63 | 0 | 0.0 | 0.0 | 0.00 | 0.08 | 0.08 | 1 | 1006.8 |
| 20260507012803 | 63 | 0 | 0.0 | 0.0 | 0.00 | 0.08 | 0.08 | 1 | 1006.7 |
| 20260507012703 | 63 | 0 | 0.0 | 0.0 | 0.00 | 0.08 | 0.08 | 1 | 1006.7 |
| 20260507012603 | 63 | 0 | 0.0 | 0.0 | 0.00 | 0.08 | 0.08 | 1 | 1006.7 |
| 20260507012503 | 63 | 0 | 0.0 | 0.0 | 0.00 | 0.08 | 0.08 | 1 | 1006.7 |
| 20260507012403 | 63 | 0 | 0.0 | 0.0 | 0.00 | 0.08 | 0.08 | 1 | 1006.7 |
| 20260507012306 | 63 | 0 | 0.0 | 0.0 | 0.00 | 0.08 | 0.08 | 1 | 1006.7 |
| 20260507012203 | 63 | 0 | 0.0 | 0.0 | 0.00 | 0.08 | 0.08 | 1 | 1006.6 |
| 20260507012103 | 63 | 0 | 0.0 | 0.0 | 0.00 | 0.08 | 0.08 | 1 | 1006.6 |
| 20260507012003 | 63 | 0 | 0.0 | 0.0 | 0.00 | 0.08 | 0.08 | 1 | 1006.6 |
| 20260507011903 | 63 | 0 | 0.0 | 0.0 | 0.00 | 0.08 | 0.08 | 1 | 1006.6 |
| 20260507011803 | 63 | 0 | 0.0 | 0.0 | 0.00 | 0.08 | 0.08 | 1 | 1006.6 |
| 20260507011703 | 63 | 0 | 0.0 | 0.0 | 0.00 | 0.08 | 0.08 | 1 | 1006.6 |
| 20260507011603 | 63 | 0 | 0.0 | 0.0 | 0.00 | 0.08 | 0.08 | 1 | 1006.6 |
| 20260507011504 | 63 | 0 | 0.0 | 0.0 | 0.00 | 0.08 | 0.08 | 1 | 1006.6 |
| 20260507011404 | 63 | 0 | 0.0 | 0.0 | 0.00 | 0.08 | 0.08 | 1 | 1006.6 |
| 20260507011304 | 63 | 0 | 0.0 | 0.0 | 0.00 | 0.08 | 0.08 | 1 | 1006.6 |
| 20260507011204 | 63 | 0 | 0.0 | 0.0 | 0.00 | 0.08 | 0.08 | 1 | 1006.6 |
| 20260507011104 | 63 | 0 | 0.0 | 0.0 | 0.00 | 0.08 | 0.08 | 1 | 1006.6 |
| 20260507011004 | 63 | 0 | 0.0 | 0.0 | 0.00 | 0.08 | 0.08 | 1 | 1006.5 |
| 20260507010904 | 63 | 0 | 0.0 | 0.0 | 0.00 | 0.08 | 0.08 | 1 | 1006.5 |
| 20260507010804 | 63 | 0 | 0.0 | 0.0 | 0.00 | 0.08 | 0.08 | 1 | 1006.5 |
| 20260507010704 | 63 | 0 | 0.0 | 0.0 | 0.00 | 0.08 | 0.08 | 1 | 1006.4 |
| 20260507010604 | 63 | 0 | 0.0 | 0.0 | 0.00 | 0.08 | 0.08 | 1 | 1006.4 |
| 20260507010504 | 63 | 0 | 0.0 | 0.0 | 0.00 | 0.08 | 0.08 | 1 | 1006.4 |
| 20260507010404 | 63 | 0 | 0.0 | 0.0 | 0.00 | 0.08 | 0.08 | 1 | 1006.3 |
| 20260507010304 | 63 | 0 | 0.0 | 0.0 | 0.00 | 0.08 | 0.08 | 1 | 1006.3 |
| 20260507010204 | 63 | 0 | 0.0 | 0.0 | 0.00 | 0.08 | 0.08 | 1 | 1006.3 |
| 20260507010104 | 63 | 0 | 0.0 | 0.0 | 0.00 | 0.08 | 0.08 | 1 | 1006.3 |
| 20260507010004 | 63 | 0 | 0.0 | 0.0 | 0.00 | 0.08 | 0.08 | 1 | 1006.2 |
| 20260507005904 | 63 | 0 | 0.0 | 0.0 | 0.00 | 0.08 | 0.08 | 1 | 1006.0 |
| 20260507005804 | 63 | 0 | 0.0 | 0.0 | 0.00 | 0.08 | 0.08 | 1 | 1006.0 |
| 20260507005704 | 63 | 0 | 0.0 | 0.0 | 0.00 | 0.08 | 0.08 | 1 | 1005.9 |
| 20260507005604 | 63 | 0 | 0.0 | 0.0 | 0.00 | 0.08 | 0.08 | 1 | 1005.8 |
| 20260507005504 | 63 | 0 | 0.0 | 0.0 | 0.00 | 0.08 | 0.08 | 1 | 1005.8 |
| 20260507005404 | 63 | 0 | 0.0 | 0.0 | 0.00 | 0.08 | 0.08 | 1 | 1005.8 |
| 20260507005305 | 63 | 0 | 0.0 | 0.0 | 0.00 | 0.08 | 0.08 | 1 | 1005.8 |
| 20260507005204 | 63 | 0 | 0.0 | 0.0 | 0.00 | 0.08 | 0.08 | 1 | 1005.8 |
| 20260507005104 | 63 | 0 | 0.0 | 0.0 | 0.00 | 0.08 | 0.08 | 1 | 1005.8 |
| 20260507005004 | 63 | 0 | 0.0 | 0.0 | 0.00 | 0.08 | 0.08 | 1 | 1005.8 |
| 20260507004925 | 63 | 0 | 0.0 | 0.0 | 0.00 | 0.08 | 0.08 | 1 | 1005.7 |
| 20260507004825 | 63 | 0 | 0.0 | 0.0 | 0.00 | 0.08 | 0.08 | 1 | 1005.7 |
| 20260507004725 | 63 | 0 | 0.0 | 0.0 | 0.00 | 0.08 | 0.08 | 1 | 1005.7 |
| 20260507004625 | 63 | 0 | 0.0 | 0.0 | 0.00 | 0.08 | 0.08 | 1 | 1005.7 |
| 20260507004525 | 63 | 0 | 0.0 | 0.0 | 0.00 | 0.08 | 0.08 | 1 | 1005.7 |
| 20260507004404 | 63 | 0 | 0.0 | 0.0 | 0.00 | 0.08 | 0.08 | 1 | 1005.7 |
| 20260507004304 | 63 | 0 | 0.0 | 0.0 | 0.00 | 0.08 | 0.08 | 1 | 1005.7 |
| 20260507004204 | 63 | 0 | 0.0 | 0.0 | 0.00 | 0.08 | 0.08 | 1 | 1005.7 |
| 20260507004104 | 63 | 0 | 0.0 | 0.0 | 0.00 | 0.08 | 0.08 | 1 | 1005.7 |
| 20260507004004 | 63 | 0 | 0.0 | 0.0 | 0.00 | 0.08 | 0.08 | 1 | 1005.6 |
| 20260507003925 | 63 | 0 | 0.0 | 0.0 | 0.00 | 0.08 | 0.08 | 1 | 1005.6 |
| 20260507003825 | 63 | 0 | 0.0 | 0.0 | 0.00 | 0.08 | 0.08 | 1 | 1005.6 |
| 20260507003725 | 63 | 0 | 0.0 | 0.0 | 0.00 | 0.08 | 0.08 | 1 | 1005.6 |
| 20260507003625 | 63 | 0 | 0.0 | 0.0 | 0.00 | 0.08 | 0.08 | 1 | 1005.5 |
| 20260507003504 | 63 | 0 | 0.0 | 0.0 | 0.00 | 0.08 | 0.08 | 1 | 1005.5 |
| 20260507003403 | 63 | 0 | 0.0 | 0.0 | 0.00 | 0.08 | 0.08 | 1 | 1005.5 |
| 20260507003303 | 63 | 0 | 0.0 | 0.0 | 0.00 | 0.08 | 0.08 | 1 | 1005.5 |
| 20260507003204 | 63 | 0 | 0.0 | 0.0 | 0.00 | 0.08 | 0.08 | 1 | 1005.5 |
| 20260507003104 | 63 | 0 | 0.0 | 0.0 | 0.00 | 0.08 | 0.08 | 1 | 1005.5 |
| 20260507003004 | 63 | 0 | 0.0 | 0.0 | 0.00 | 0.08 | 0.08 | 1 | 1005.5 |
| 20260507002924 | 63 | 0 | 0.0 | 0.0 | 0.00 | 0.08 | 0.08 | 1 | 1005.5 |
| 20260507002824 | 63 | 0 | 0.0 | 0.0 | 0.00 | 0.08 | 0.08 | 1 | 1005.5 |
| 20260507002724 | 63 | 0 | 0.0 | 0.0 | 0.00 | 0.08 | 0.08 | 1 | 1005.5 |
| 20260507002624 | 63 | 0 | 0.0 | 0.0 | 0.00 | 0.08 | 0.08 | 1 | 1005.5 |
| 20260507002524 | 63 | 0 | 0.0 | 0.0 | 0.00 | 0.08 | 0.08 | 1 | 1005.5 |
| 20260507002403 | 63 | 0 | 0.0 | 0.0 | 0.00 | 0.08 | 0.08 | 1 | 1005.5 |
| 20260507002306 | 63 | 0 | 0.0 | 0.0 | 0.00 | 0.08 | 0.08 | 1 | 1005.5 |
| 20260507002204 | 63 | 0 | 0.0 | 0.0 | 0.00 | 0.08 | 0.08 | 1 | 1005.7 |
| 20260507002104 | 63 | 0 | 0.0 | 0.0 | 0.00 | 0.08 | 0.08 | 1 | 1005.7 |
| 20260507002003 | 63 | 0 | 0.0 | 0.0 | 0.00 | 0.08 | 0.08 | 1 | 1005.7 |
| 20260507001904 | 63 | 0 | 0.0 | 0.0 | 0.00 | 0.08 | 0.08 | 1 | 1005.7 |
| 20260507001703 | 63 | 0 | 0.0 | 0.0 | 0.00 | 0.08 | 0.08 | 1 | 1005.6 |
| 20260507001603 | 63 | 0 | 0.0 | 0.0 | 0.00 | 0.08 | 0.08 | 1 | 1005.6 |
| 20260507001504 | 63 | 0 | 0.0 | 0.0 | 0.00 | 0.08 | 0.08 | 1 | 1005.6 |
| 20260507001403 | 63 | 0 | 0.0 | 0.0 | 0.00 | 0.08 | 0.08 | 1 | 1005.6 |
| 20260507001304 | 63 | 0 | 0.0 | 0.0 | 0.00 | 0.08 | 0.08 | 1 | 1005.6 |
| 20260507001204 | 63 | 0 | 0.0 | 0.0 | 0.00 | 0.08 | 0.08 | 1 | 1005.5 |
| 20260507001104 | 63 | 0 | 0.0 | 0.0 | 0.00 | 0.08 | 0.08 | 1 | 1005.5 |
| 20260507001004 | 63 | 0 | 0.0 | 0.0 | 0.00 | 0.08 | 0.08 | 1 | 1005.5 |
| 20260507000904 | 63 | 0 | 0.0 | 0.0 | 0.00 | 0.08 | 0.08 | 1 | 1005.3 |
| 20260507000804 | 63 | 0 | 0.0 | 0.0 | 0.00 | 0.08 | 0.08 | 1 | 1005.3 |
| 20260507000704 | 63 | 0 | 0.0 | 0.0 | 0.00 | 0.08 | 0.08 | 1 | 1005.4 |
| 20260507000603 | 63 | 0 | 0.0 | 0.0 | 0.00 | 0.08 | 0.08 | 1 | 1005.4 |
| 20260507000504 | 63 | 0 | 0.0 | 0.0 | 0.00 | 0.08 | 0.08 | 1 | 1005.3 |
| 20260507000405 | 63 | 0 | 0.0 | 0.0 | 0.00 | 0.08 | 0.08 | 1 | 1005.3 |
| 20260507000306 | 63 | 0 | 0.0 | 0.0 | 0.00 | 0.08 | 0.08 | 1 | 1005.3 |
| 20260507000205 | 63 | 0 | 0.0 | 0.0 | 0.00 | 0.08 | 0.08 | 1 | 1005.3 |
| 20260507000003 | 63 | 0 | 0.0 | 0.0 | 0.00 | 0.08 | 0.08 | 1 | 1005.3 |
| 20260506235903 | 63 | 0 | 0.0 | 0.0 | 0.00 | 0.08 | 0.08 | 1 | 1005.3 |
| 20260506235803 | 63 | 0 | 0.0 | 0.0 | 0.00 | 0.08 | 0.08 | 1 | 1005.3 |
| 20260506235703 | 63 | 0 | 0.0 | 0.0 | 0.00 | 0.08 | 0.08 | 1 | 1005.2 |
| 20260506235603 | 63 | 0 | 0.0 | 0.0 | 0.00 | 0.08 | 0.08 | 1 | 1005.2 |
| 20260506235503 | 63 | 0 | 0.0 | 0.0 | 0.00 | 0.08 | 0.08 | 1 | 1005.2 |
| 20260506235403 | 63 | 0 | 0.0 | 0.0 | 0.00 | 0.08 | 0.08 | 1 | 1005.2 |
| 20260506235306 | 63 | 0 | 0.0 | 0.0 | 0.00 | 0.08 | 0.08 | 1 | 1005.2 |
| 20260506235203 | 63 | 0 | 0.0 | 0.0 | 0.00 | 0.08 | 0.08 | 1 | 1005.2 |
| 20260506235103 | 63 | 0 | 0.0 | 0.0 | 0.00 | 0.08 | 0.08 | 1 | 1005.3 |
| 20260506235003 | 63 | 0 | 0.0 | 0.0 | 0.00 | 0.08 | 0.08 | 1 | 1005.3 |
| 20260506234903 | 63 | 0 | 0.0 | 0.0 | 0.00 | 0.08 | 0.08 | 1 | 1005.3 |
| 20260506234803 | 63 | 0 | 0.0 | 0.0 | 0.00 | 0.08 | 0.08 | 1 | 1005.2 |
| 20260506234703 | 63 | 0 | 0.0 | 0.0 | 0.00 | 0.08 | 0.08 | 1 | 1005.2 |
| 20260506234603 | 63 | 0 | 0.0 | 0.0 | 0.00 | 0.08 | 0.08 | 1 | 1005.2 |
| 20260506234503 | 63 | 0 | 0.0 | 0.0 | 0.00 | 0.08 | 0.08 | 1 | 1005.2 |
| 20260506234403 | 63 | 0 | 0.0 | 0.0 | 0.00 | 0.08 | 0.08 | 1 | 1005.2 |
| 20260506234303 | 63 | 0 | 0.0 | 0.0 | 0.00 | 0.08 | 0.08 | 1 | 1005.2 |
| 20260506234203 | 63 | 0 | 0.0 | 0.0 | 0.00 | 0.08 | 0.08 | 1 | 1005.2 |
| 20260506234104 | 63 | 0 | 0.0 | 0.0 | 0.00 | 0.08 | 0.08 | 1 | 1005.2 |
| 20260506234004 | 63 | 0 | 0.0 | 0.0 | 0.00 | 0.08 | 0.08 | 1 | 1005.1 |
| 20260506233904 | 63 | 0 | 0.0 | 0.0 | 0.00 | 0.08 | 0.08 | 1 | 1005.1 |
| 20260506233804 | 63 | 0 | 0.0 | 0.0 | 0.00 | 0.08 | 0.08 | 1 | 1005.1 |
| 20260506233704 | 63 | 0 | 0.0 | 0.0 | 0.00 | 0.08 | 0.08 | 1 | 1005.1 |
| 20260506233604 | 63 | 0 | 0.0 | 0.0 | 0.00 | 0.08 | 0.08 | 1 | 1005.1 |
| 20260506233504 | 63 | 0 | 0.0 | 0.0 | 0.00 | 0.08 | 0.08 | 1 | 1005.0 |
| 20260506233404 | 63 | 0 | 0.0 | 0.0 | 0.00 | 0.08 | 0.08 | 1 | 1005.0 |
| 20260506233304 | 63 | 0 | 0.0 | 0.0 | 0.00 | 0.08 | 0.08 | 1 | 1005.0 |
| 20260506233204 | 63 | 0 | 0.0 | 0.0 | 0.00 | 0.08 | 0.08 | 1 | 1005.0 |
| 20260506233104 | 63 | 0 | 0.0 | 0.0 | 0.00 | 0.08 | 0.08 | 1 | 1004.9 |
| 20260506233004 | 63 | 0 | 0.0 | 0.0 | 0.00 | 0.08 | 0.08 | 1 | 1004.9 |
| 20260506232904 | 63 | 0 | 0.0 | 0.0 | 0.00 | 0.08 | 0.08 | 1 | 1004.9 |
| 20260506232804 | 63 | 0 | 0.0 | 0.0 | 0.00 | 0.08 | 0.08 | 1 | 1004.9 |
| 20260506232704 | 63 | 0 | 0.0 | 0.0 | 0.00 | 0.08 | 0.08 | 1 | 1005.0 |
| 20260506232603 | 63 | 0 | 0.0 | 0.0 | 0.00 | 0.08 | 0.08 | 1 | 1005.0 |
| 20260506232503 | 63 | 0 | 0.0 | 0.0 | 0.00 | 0.08 | 0.08 | 1 | 1005.0 |
| 20260506232403 | 63 | 0 | 0.0 | 0.0 | 0.00 | 0.08 | 0.08 | 1 | 1005.0 |
| 20260506232306 | 63 | 0 | 0.0 | 0.0 | 0.00 | 0.08 | 0.08 | 1 | 1005.0 |
| 20260506232203 | 63 | 0 | 0.0 | 0.0 | 0.00 | 0.08 | 0.08 | 1 | 1005.0 |
| 20260506232103 | 63 | 0 | 0.0 | 0.0 | 0.00 | 0.08 | 0.08 | 1 | 1005.0 |
| 20260506232003 | 63 | 0 | 0.0 | 0.0 | 0.00 | 0.08 | 0.08 | 1 | 1005.0 |
| 20260506231903 | 63 | 0 | 0.0 | 0.0 | 0.00 | 0.08 | 0.08 | 1 | 1005.0 |
| 20260506231803 | 63 | 0 | 0.0 | 0.0 | 0.00 | 0.08 | 0.08 | 1 | 1005.0 |
| 20260506231703 | 63 | 0 | 0.0 | 0.0 | 0.00 | 0.08 | 0.08 | 1 | 1005.0 |
| 20260506231604 | 63 | 0 | 0.0 | 0.0 | 0.00 | 0.08 | 0.08 | 1 | 1005.0 |
| 20260506231504 | 63 | 0 | 0.0 | 0.0 | 0.00 | 0.08 | 0.08 | 1 | 1005.1 |
| 20260506231403 | 63 | 0 | 0.0 | 0.0 | 0.00 | 0.08 | 0.08 | 1 | 1005.1 |
| 20260506231304 | 63 | 0 | 0.0 | 0.0 | 0.00 | 0.08 | 0.08 | 1 | 1005.2 |
| 20260506231204 | 63 | 0 | 0.0 | 0.0 | 0.00 | 0.08 | 0.08 | 1 | 1005.2 |
| 20260506231103 | 63 | 0 | 0.0 | 0.0 | 0.00 | 0.08 | 0.08 | 1 | 1005.2 |
| 20260506231003 | 63 | 0 | 0.0 | 0.0 | 0.00 | 0.08 | 0.08 | 1 | 1005.2 |
| 20260506230903 | 63 | 0 | 0.0 | 0.0 | 0.00 | 0.08 | 0.08 | 1 | 1005.2 |
| 20260506230803 | 63 | 0 | 0.0 | 0.0 | 0.00 | 0.08 | 0.08 | 1 | 1005.2 |
| 20260506230703 | 63 | 0 | 0.0 | 0.0 | 0.00 | 0.08 | 0.08 | 1 | 1005.2 |
| 20260506230603 | 63 | 0 | 0.0 | 0.0 | 0.00 | 0.08 | 0.08 | 1 | 1005.2 |
| 20260506230503 | 63 | 0 | 0.0 | 0.0 | 0.00 | 0.08 | 0.08 | 1 | 1005.2 |
| 20260506230403 | 63 | 0 | 0.0 | 0.0 | 0.00 | 0.08 | 0.08 | 1 | 1005.2 |
| 20260506230303 | 63 | 0 | 0.0 | 0.0 | 0.00 | 0.08 | 0.08 | 1 | 1005.2 |
| 20260506230203 | 63 | 0 | 0.0 | 0.0 | 0.00 | 0.08 | 0.08 | 1 | 1005.2 |
| 20260506230103 | 63 | 0 | 0.0 | 0.0 | 0.00 | 0.08 | 0.08 | 1 | 1005.2 |
| 20260506230004 | 63 | 0 | 0.0 | 0.0 | 0.00 | 0.08 | 0.08 | 1 | 1005.2 |
| 20260506225903 | 63 | 0 | 0.0 | 0.0 | 0.00 | 0.08 | 0.08 | 1 | 1005.2 |
| 20260506225803 | 63 | 0 | 0.0 | 0.0 | 0.00 | 0.08 | 0.08 | 1 | 1005.2 |
| 20260506225704 | 63 | 0 | 0.0 | 0.0 | 0.00 | 0.08 | 0.08 | 1 | 1005.1 |
| 20260506225603 | 63 | 0 | 0.0 | 0.0 | 0.00 | 0.08 | 0.08 | 1 | 1005.1 |
| 20260506225503 | 63 | 0 | 0.0 | 0.0 | 0.00 | 0.08 | 0.08 | 1 | 1005.1 |
| 20260506225403 | 63 | 0 | 0.0 | 0.0 | 0.00 | 0.08 | 0.08 | 1 | 1005.1 |
| 20260506225305 | 63 | 0 | 0.0 | 0.0 | 0.00 | 0.08 | 0.08 | 1 | 1005.1 |
| 20260506225203 | 63 | 0 | 0.0 | 0.0 | 0.00 | 0.08 | 0.08 | 1 | 1005.1 |
| 20260506225103 | 63 | 0 | 0.0 | 0.0 | 0.00 | 0.08 | 0.08 | 1 | 1005.1 |
| 20260506225003 | 63 | 0 | 0.0 | 0.0 | 0.00 | 0.08 | 0.08 | 1 | 1005.1 |
| 20260506224903 | 63 | 0 | 0.0 | 0.0 | 0.00 | 0.08 | 0.08 | 1 | 1005.1 |
| 20260506224803 | 63 | 0 | 0.0 | 0.0 | 0.00 | 0.08 | 0.08 | 1 | 1005.0 |
| 20260506224703 | 63 | 0 | 0.0 | 0.0 | 0.00 | 0.08 | 0.08 | 1 | 1005.0 |
| 20260506224603 | 63 | 0 | 0.0 | 0.0 | 0.00 | 0.08 | 0.08 | 1 | 1005.1 |
| 20260506224503 | 63 | 0 | 0.0 | 0.0 | 0.00 | 0.08 | 0.08 | 1 | 1005.0 |
| 20260506224403 | 63 | 0 | 0.0 | 0.0 | 0.00 | 0.08 | 0.08 | 1 | 1005.0 |
| 20260506224303 | 63 | 0 | 0.0 | 0.0 | 0.00 | 0.08 | 0.08 | 1 | 1004.9 |
| 20260506224203 | 63 | 0 | 0.0 | 0.0 | 0.00 | 0.08 | 0.08 | 1 | 1004.9 |
| 20260506224124 | 63 | 0 | 0.0 | 0.0 | 0.00 | 0.08 | 0.08 | 1 | 1005.0 |
| 20260506224024 | 63 | 0 | 0.0 | 0.0 | 0.00 | 0.08 | 0.08 | 1 | 1005.0 |
| 20260506223924 | 63 | 0 | 0.0 | 0.0 | 0.00 | 0.08 | 0.08 | 1 | 1005.0 |
| 20260506223824 | 63 | 0 | 0.0 | 0.0 | 0.00 | 0.08 | 0.08 | 1 | 1005.0 |
| 20260506223724 | 63 | 0 | 0.0 | 0.0 | 0.00 | 0.08 | 0.08 | 1 | 1005.0 |
| 20260506223603 | 63 | 0 | 0.0 | 0.0 | 0.00 | 0.08 | 0.08 | 1 | 1005.0 |
| 20260506223503 | 63 | 0 | 0.0 | 0.0 | 0.00 | 0.08 | 0.08 | 1 | 1004.9 |
| 20260506223403 | 63 | 0 | 0.0 | 0.0 | 0.00 | 0.08 | 0.08 | 1 | 1004.9 |
| 20260506223303 | 63 | 0 | 0.0 | 0.0 | 0.00 | 0.08 | 0.08 | 1 | 1004.9 |
| 20260506223203 | 63 | 0 | 0.0 | 0.0 | 0.00 | 0.08 | 0.08 | 1 | 1004.9 |
| 20260506223103 | 63 | 0 | 0.0 | 0.0 | 0.00 | 0.08 | 0.08 | 1 | 1004.9 |
| 20260506223003 | 63 | 0 | 0.0 | 0.0 | 0.00 | 0.08 | 0.08 | 1 | 1004.9 |
| 20260506222903 | 63 | 0 | 0.0 | 0.0 | 0.00 | 0.08 | 0.08 | 1 | 1004.9 |
| 20260506222803 | 63 | 0 | 0.0 | 0.0 | 0.00 | 0.08 | 0.08 | 1 | 1004.8 |
| 20260506222703 | 63 | 0 | 0.0 | 0.0 | 0.00 | 0.08 | 0.08 | 1 | 1004.8 |
| 20260506222603 | 63 | 0 | 0.0 | 0.0 | 0.00 | 0.08 | 0.08 | 1 | 1004.8 |
| 20260506222503 | 63 | 0 | 0.0 | 0.0 | 0.00 | 0.08 | 0.08 | 1 | 1004.8 |
| 20260506222403 | 63 | 0 | 0.0 | 0.0 | 0.00 | 0.08 | 0.08 | 1 | 1004.8 |
| 20260506222305 | 63 | 0 | 0.0 | 0.0 | 0.00 | 0.08 | 0.08 | 1 | 1004.8 |
| 20260506222203 | 63 | 0 | 0.0 | 0.0 | 0.00 | 0.08 | 0.08 | 1 | 1004.8 |
| 20260506222104 | 63 | 0 | 0.0 | 0.0 | 0.00 | 0.08 | 0.08 | 1 | 1004.8 |
| 20260506222004 | 63 | 0 | 0.0 | 0.0 | 0.00 | 0.08 | 0.08 | 1 | 1004.8 |
| 20260506221904 | 63 | 0 | 0.0 | 0.0 | 0.00 | 0.08 | 0.08 | 1 | 1004.8 |
| 20260506221804 | 63 | 0 | 0.0 | 0.0 | 0.00 | 0.08 | 0.08 | 1 | 1004.8 |
| 20260506221704 | 63 | 0 | 0.0 | 0.0 | 0.00 | 0.08 | 0.08 | 1 | 1004.7 |
| 20260506221625 | 63 | 0 | 0.0 | 0.0 | 0.00 | 0.08 | 0.08 | 1 | 1004.7 |
| 20260506221525 | 63 | 0 | 0.0 | 0.0 | 0.00 | 0.08 | 0.08 | 1 | 1004.7 |
| 20260506221425 | 63 | 0 | 0.0 | 0.0 | 0.00 | 0.08 | 0.08 | 1 | 1004.7 |
| 20260506221325 | 63 | 0 | 0.0 | 0.0 | 0.00 | 0.08 | 0.08 | 1 | 1004.7 |
| 20260506221225 | 63 | 160 | 0.0 | 4.0 | 0.00 | 0.08 | 0.08 | 1 | 1004.6 |
| 20260506221104 | 63 | 160 | 0.0 | 4.0 | 0.00 | 0.08 | 0.08 | 1 | 1004.6 |
| 20260506221004 | 63 | 160 | 0.0 | 4.0 | 0.00 | 0.08 | 0.08 | 1 | 1004.7 |
| 20260506220904 | 63 | 160 | 0.0 | 4.0 | 0.00 | 0.08 | 0.08 | 1 | 1004.7 |
| 20260506220804 | 63 | 160 | 0.0 | 4.0 | 0.00 | 0.08 | 0.08 | 1 | 1004.7 |
| 20260506220704 | 63 | 160 | 0.0 | 4.0 | 0.00 | 0.08 | 0.08 | 1 | 1004.7 |
| 20260506220603 | 63 | 160 | 0.0 | 4.0 | 0.00 | 0.08 | 0.08 | 1 | 1004.7 |
| 20260506220503 | 63 | 160 | 0.0 | 4.0 | 0.00 | 0.08 | 0.08 | 1 | 1004.7 |
| 20260506220403 | 63 | 160 | 0.0 | 4.0 | 0.00 | 0.08 | 0.08 | 1 | 1004.7 |
| 20260506220303 | 63 | 160 | 0.0 | 4.0 | 0.00 | 0.08 | 0.08 | 1 | 1004.7 |
| 20260506220203 | 63 | 160 | 0.0 | 4.0 | 0.00 | 0.08 | 0.08 | 1 | 1004.7 |
| 20260506220104 | 63 | 0 | 0.0 | 0.0 | 0.00 | 0.08 | 0.08 | 1 | 1004.7 |
| 20260506220004 | 63 | 0 | 0.0 | 0.0 | 0.00 | 0.08 | 0.08 | 1 | 1004.7 |
| 20260506215904 | 63 | 0 | 0.0 | 0.0 | 0.00 | 0.08 | 0.08 | 1 | 1004.6 |
| 20260506215804 | 63 | 0 | 0.0 | 0.0 | 0.00 | 0.08 | 0.08 | 1 | 1004.6 |
| 20260506215704 | 63 | 0 | 0.0 | 0.0 | 0.00 | 0.08 | 0.08 | 1 | 1004.7 |
| 20260506215604 | 63 | 0 | 0.0 | 0.0 | 0.00 | 0.08 | 0.08 | 1 | 1004.7 |
| 20260506215504 | 63 | 0 | 0.0 | 0.0 | 0.00 | 0.08 | 0.08 | 1 | 1004.7 |
| 20260506215404 | 63 | 0 | 0.0 | 0.0 | 0.00 | 0.08 | 0.08 | 1 | 1004.6 |
| 20260506215306 | 63 | 0 | 0.0 | 0.0 | 0.00 | 0.08 | 0.08 | 1 | 1004.6 |
| 20260506215204 | 63 | 160 | 0.0 | 2.0 | 0.00 | 0.08 | 0.08 | 1 | 1004.6 |
| 20260506215103 | 63 | 160 | 0.0 | 3.0 | 0.00 | 0.08 | 0.08 | 1 | 1004.6 |
| 20260506215004 | 63 | 160 | 0.0 | 3.0 | 0.00 | 0.08 | 0.08 | 1 | 1004.6 |
| 20260506214903 | 63 | 160 | 0.0 | 3.0 | 0.00 | 0.08 | 0.08 | 1 | 1004.6 |
| 20260506214803 | 63 | 160 | 0.0 | 3.0 | 0.00 | 0.08 | 0.08 | 1 | 1004.6 |
| 20260506214703 | 63 | 160 | 0.0 | 3.0 | 0.00 | 0.08 | 0.08 | 1 | 1004.6 |
| 20260506214625 | 63 | 160 | 0.0 | 3.0 | 0.00 | 0.08 | 0.08 | 1 | 1004.6 |
| 20260506214525 | 63 | 160 | 0.0 | 3.0 | 0.00 | 0.08 | 0.08 | 1 | 1004.6 |
| 20260506214425 | 63 | 160 | 0.0 | 3.0 | 0.00 | 0.08 | 0.08 | 1 | 1004.5 |
| 20260506214324 | 63 | 160 | 0.0 | 3.0 | 0.00 | 0.08 | 0.08 | 1 | 1004.4 |
| 20260506214224 | 63 | 160 | 0.0 | 3.0 | 0.00 | 0.08 | 0.08 | 1 | 1004.4 |
| 20260506214103 | 63 | 0 | 0.0 | 0.0 | 0.00 | 0.08 | 0.08 | 1 | 1004.4 |
| 20260506214003 | 63 | 0 | 0.0 | 0.0 | 0.00 | 0.08 | 0.08 | 1 | 1004.4 |
| 20260506213903 | 63 | 0 | 0.0 | 0.0 | 0.00 | 0.08 | 0.08 | 1 | 1004.4 |
| 20260506213803 | 63 | 0 | 0.0 | 0.0 | 0.00 | 0.08 | 0.08 | 1 | 1004.5 |
| 20260506213703 | 63 | 0 | 0.0 | 0.0 | 0.00 | 0.08 | 0.08 | 1 | 1004.5 |
| 20260506213603 | 63 | 0 | 0.0 | 0.0 | 0.00 | 0.08 | 0.08 | 1 | 1004.4 |
| 20260506213503 | 63 | 0 | 0.0 | 0.0 | 0.00 | 0.08 | 0.08 | 1 | 1004.4 |
| 20260506213403 | 63 | 0 | 0.0 | 0.0 | 0.00 | 0.08 | 0.08 | 1 | 1004.4 |
| 20260506213303 | 63 | 0 | 0.0 | 0.0 | 0.00 | 0.08 | 0.08 | 1 | 1004.4 |
| 20260506213203 | 63 | 0 | 0.0 | 0.0 | 0.00 | 0.08 | 0.08 | 1 | 1004.4 |
| 20260506213124 | 63 | 0 | 0.0 | 0.0 | 0.00 | 0.08 | 0.08 | 1 | 1004.4 |
| 20260506213025 | 63 | 0 | 0.0 | 0.0 | 0.00 | 0.08 | 0.08 | 1 | 1004.4 |
| 20260506212924 | 63 | 0 | 0.0 | 0.0 | 0.00 | 0.08 | 0.08 | 1 | 1004.4 |
| 20260506212824 | 63 | 0 | 0.0 | 0.0 | 0.00 | 0.08 | 0.08 | 1 | 1004.4 |
| 20260506212724 | 63 | 0 | 0.0 | 0.0 | 0.00 | 0.08 | 0.08 | 1 | 1004.4 |
| 20260506212603 | 63 | 0 | 0.0 | 0.0 | 0.00 | 0.08 | 0.08 | 1 | 1004.3 |
| 20260506212503 | 63 | 0 | 0.0 | 0.0 | 0.00 | 0.08 | 0.08 | 1 | 1004.3 |
| 20260506212403 | 63 | 0 | 0.0 | 0.0 | 0.00 | 0.08 | 0.08 | 1 | 1004.3 |
| 20260506212306 | 63 | 0 | 0.0 | 0.0 | 0.00 | 0.08 | 0.08 | 1 | 1004.5 |
| 20260506212203 | 63 | 0 | 0.0 | 0.0 | 0.00 | 0.08 | 0.08 | 1 | 1004.4 |
| 20260506212103 | 63 | 0 | 0.0 | 0.0 | 0.00 | 0.08 | 0.08 | 1 | 1004.4 |
| 20260506212003 | 63 | 160 | 0.0 | 4.0 | 0.00 | 0.08 | 0.08 | 1 | 1004.4 |
| 20260506211903 | 63 | 160 | 0.0 | 4.0 | 0.00 | 0.08 | 0.08 | 1 | 1004.5 |
| 20260506211803 | 63 | 160 | 0.0 | 4.0 | 0.00 | 0.08 | 0.08 | 1 | 1004.5 |
| 20260506211703 | 63 | 160 | 0.0 | 4.0 | 0.00 | 0.08 | 0.08 | 1 | 1004.5 |
| 20260506211603 | 63 | 160 | 0.0 | 4.0 | 0.00 | 0.08 | 0.08 | 1 | 1004.5 |
| 20260506211503 | 63 | 162 | 0.0 | 4.0 | 0.00 | 0.08 | 0.08 | 1 | 1004.5 |
| 20260506211403 | 63 | 162 | 0.0 | 4.0 | 0.00 | 0.08 | 0.08 | 1 | 1004.5 |
| 20260506211303 | 63 | 168 | 1.0 | 9.0 | 0.00 | 0.08 | 0.08 | 1 | 1004.5 |
| 20260506211203 | 63 | 168 | 1.0 | 9.0 | 0.00 | 0.08 | 0.08 | 1 | 1004.4 |
| 20260506211103 | 63 | 168 | 1.0 | 9.0 | 0.00 | 0.08 | 0.08 | 1 | 1004.4 |
| 20260506211003 | 63 | 169 | 1.0 | 9.0 | 0.00 | 0.08 | 0.08 | 1 | 1004.4 |
| 20260506210903 | 63 | 169 | 1.0 | 9.0 | 0.00 | 0.08 | 0.08 | 1 | 1004.4 |
| 20260506210803 | 63 | 169 | 1.0 | 9.0 | 0.00 | 0.08 | 0.08 | 1 | 1004.4 |
| 20260506210703 | 63 | 170 | 1.0 | 9.0 | 0.00 | 0.08 | 0.08 | 1 | 1004.4 |
| 20260506210603 | 63 | 171 | 1.0 | 9.0 | 0.00 | 0.08 | 0.08 | 1 | 1004.4 |
| 20260506210503 | 63 | 171 | 1.0 | 9.0 | 0.00 | 0.08 | 0.08 | 1 | 1004.4 |
| 20260506210403 | 63 | 171 | 1.0 | 9.0 | 0.00 | 0.08 | 0.08 | 1 | 1004.4 |
| 20260506210303 | 63 | 170 | 1.0 | 11.0 | 0.00 | 0.08 | 0.08 | 1 | 1004.4 |
| 20260506210203 | 63 | 170 | 1.0 | 11.0 | 0.00 | 0.08 | 0.08 | 1 | 1004.3 |
| 20260506210103 | 63 | 170 | 1.0 | 11.0 | 0.00 | 0.08 | 0.08 | 1 | 1004.3 |
| 20260506210003 | 63 | 170 | 1.0 | 11.0 | 0.00 | 0.08 | 0.08 | 1 | 1004.3 |
| 20260506205903 | 63 | 170 | 1.0 | 11.0 | 0.00 | 0.08 | 0.08 | 1 | 1004.3 |
| 20260506205803 | 63 | 170 | 1.0 | 11.0 | 0.00 | 0.08 | 0.08 | 1 | 1004.3 |
| 20260506205703 | 63 | 169 | 1.0 | 11.0 | 0.00 | 0.08 | 0.08 | 1 | 1004.3 |
| 20260506205603 | 63 | 170 | 1.0 | 11.0 | 0.00 | 0.08 | 0.08 | 1 | 1004.3 |
| 20260506205503 | 63 | 170 | 1.0 | 11.0 | 0.00 | 0.08 | 0.08 | 1 | 1004.3 |
| 20260506205403 | 63 | 169 | 1.0 | 11.0 | 0.00 | 0.08 | 0.08 | 1 | 1004.3 |
| 20260506205305 | 63 | 169 | 1.0 | 7.0 | 0.00 | 0.08 | 0.08 | 1 | 1004.3 |
| 20260506205224 | 63 | 170 | 1.0 | 7.0 | 0.00 | 0.08 | 0.08 | 1 | 1004.3 |
| 20260506205103 | 63 | 170 | 1.0 | 7.0 | 0.00 | 0.08 | 0.08 | 1 | 1004.3 |
| 20260506205003 | 63 | 170 | 1.0 | 7.0 | 0.00 | 0.08 | 0.08 | 1 | 1004.3 |
| 20260506204903 | 63 | 171 | 2.0 | 9.0 | 0.00 | 0.08 | 0.08 | 1 | 1004.3 |
| 20260506204803 | 63 | 171 | 2.0 | 9.0 | 0.00 | 0.08 | 0.08 | 1 | 1004.3 |
| 20260506204703 | 63 | 171 | 2.0 | 9.0 | 0.00 | 0.08 | 0.08 | 1 | 1004.3 |
| 20260506204603 | 63 | 171 | 2.0 | 9.0 | 0.00 | 0.08 | 0.08 | 1 | 1004.3 |
| 20260506204504 | 63 | 171 | 2.0 | 9.0 | 0.00 | 0.08 | 0.08 | 1 | 1004.3 |
| 20260506204404 | 63 | 172 | 1.0 | 9.0 | 0.00 | 0.08 | 0.08 | 1 | 1004.3 |
| 20260506204304 | 63 | 172 | 1.0 | 9.0 | 0.00 | 0.08 | 0.08 | 1 | 1004.3 |
| 20260506204204 | 63 | 172 | 1.0 | 9.0 | 0.00 | 0.08 | 0.08 | 1 | 1004.3 |
| 20260506204104 | 63 | 172 | 1.0 | 9.0 | 0.00 | 0.08 | 0.08 | 1 | 1004.2 |
| 20260506204004 | 63 | 171 | 1.0 | 9.0 | 0.00 | 0.08 | 0.08 | 1 | 1004.2 |
| 20260506203903 | 63 | 171 | 1.0 | 7.0 | 0.00 | 0.08 | 0.08 | 1 | 1004.2 |
| 20260506203804 | 63 | 170 | 1.0 | 7.0 | 0.00 | 0.08 | 0.08 | 1 | 1004.2 |
| 20260506203704 | 63 | 169 | 1.0 | 7.0 | 0.00 | 0.08 | 0.08 | 1 | 1004.2 |
| 20260506203604 | 63 | 169 | 0.0 | 7.0 | 0.00 | 0.08 | 0.08 | 1 | 1004.2 |
| 20260506203504 | 63 | 170 | 1.0 | 6.0 | 0.00 | 0.08 | 0.08 | 1 | 1004.3 |
| 20260506203404 | 63 | 170 | 1.0 | 8.0 | 0.00 | 0.08 | 0.08 | 1 | 1004.3 |
| 20260506203303 | 63 | 170 | 2.0 | 10.0 | 0.00 | 0.08 | 0.08 | 1 | 1004.3 |
| 20260506203204 | 63 | 170 | 2.0 | 10.0 | 0.00 | 0.08 | 0.08 | 1 | 1004.3 |
| 20260506203104 | 63 | 170 | 2.0 | 10.0 | 0.00 | 0.08 | 0.08 | 1 | 1004.3 |
| 20260506203003 | 63 | 170 | 2.0 | 10.0 | 0.01 | 0.08 | 0.08 | 1 | 1004.2 |
| 20260506202903 | 63 | 169 | 2.0 | 10.0 | 0.01 | 0.08 | 0.08 | 1 | 1004.2 |
| 20260506202803 | 63 | 169 | 3.0 | 10.0 | 0.01 | 0.08 | 0.08 | 1 | 1004.3 |
| 20260506202703 | 63 | 169 | 3.0 | 10.0 | 0.01 | 0.08 | 0.08 | 1 | 1004.4 |
| 20260506202603 | 63 | 169 | 3.0 | 10.0 | 0.01 | 0.08 | 0.08 | 1 | 1004.4 |
| 20260506202503 | 63 | 169 | 3.0 | 10.0 | 0.01 | 0.08 | 0.08 | 1 | 1004.4 |
| 20260506202404 | 63 | 169 | 2.0 | 10.0 | 0.01 | 0.08 | 0.08 | 1 | 1004.4 |
| 20260506202306 | 63 | 169 | 2.0 | 10.0 | 0.01 | 0.08 | 0.08 | 1 | 1004.4 |
| 20260506202203 | 63 | 169 | 2.0 | 10.0 | 0.01 | 0.08 | 0.08 | 1 | 1004.3 |
| 20260506202104 | 63 | 169 | 2.0 | 10.0 | 0.01 | 0.08 | 0.08 | 1 | 1004.3 |
| 20260506202025 | 63 | 169 | 1.0 | 10.0 | 0.01 | 0.08 | 0.08 | 1 | 1004.3 |
| 20260506201925 | 63 | 169 | 1.0 | 7.0 | 0.01 | 0.08 | 0.08 | 1 | 1004.3 |
| 20260506201825 | 63 | 169 | 1.0 | 7.0 | 0.01 | 0.08 | 0.08 | 1 | 1004.4 |
| 20260506201725 | 63 | 169 | 1.0 | 7.0 | 0.02 | 0.08 | 0.08 | 1 | 1004.4 |
| 20260506201624 | 63 | 169 | 1.0 | 7.0 | 0.02 | 0.08 | 0.08 | 1 | 1004.5 |
| 20260506201524 | 63 | 169 | 1.0 | 7.0 | 0.02 | 0.08 | 0.08 | 1 | 1004.5 |
| 20260506201424 | 63 | 169 | 1.0 | 7.0 | 0.02 | 0.08 | 0.08 | 1 | 1004.5 |
| 20260506201324 | 63 | 169 | 1.0 | 7.0 | 0.02 | 0.08 | 0.08 | 1 | 1004.5 |
| 20260506201224 | 63 | 169 | 1.0 | 7.0 | 0.02 | 0.08 | 0.08 | 1 | 1004.6 |
| 20260506201124 | 63 | 169 | 1.0 | 7.0 | 0.02 | 0.08 | 0.08 | 1 | 1004.6 |
| 20260506201003 | 63 | 169 | 1.0 | 7.0 | 0.02 | 0.08 | 0.08 | 1 | 1004.6 |
| 20260506200903 | 63 | 169 | 1.0 | 7.0 | 0.02 | 0.08 | 0.08 | 1 | 1004.7 |
| 20260506200803 | 63 | 169 | 1.0 | 7.0 | 0.02 | 0.08 | 0.08 | 1 | 1004.7 |
| 20260506200703 | 63 | 169 | 1.0 | 7.0 | 0.03 | 0.08 | 0.08 | 1 | 1004.6 |
| 20260506200603 | 63 | 169 | 1.0 | 7.0 | 0.03 | 0.08 | 0.08 | 1 | 1004.6 |
| 20260506200503 | 63 | 169 | 1.0 | 7.0 | 0.03 | 0.08 | 0.08 | 1 | 1004.7 |
| 20260506200403 | 63 | 169 | 1.0 | 7.0 | 0.03 | 0.08 | 0.08 | 1 | 1004.8 |
| 20260506200303 | 63 | 169 | 1.0 | 7.0 | 0.03 | 0.08 | 0.08 | 1 | 1004.8 |
| 20260506200203 | 63 | 169 | 1.0 | 7.0 | 0.04 | 0.08 | 0.08 | 1 | 1004.8 |
| 20260506200103 | 63 | 169 | 1.0 | 7.0 | 0.04 | 0.08 | 0.08 | 1 | 1004.8 |
| 20260506200004 | 63 | 169 | 1.0 | 7.0 | 0.04 | 0.08 | 0.08 | 1 | 1004.9 |
| 20260506195903 | 63 | 169 | 1.0 | 7.0 | 0.04 | 0.08 | 0.08 | 1 | 1004.9 |
| 20260506195803 | 63 | 169 | 1.0 | 7.0 | 0.04 | 0.08 | 0.08 | 1 | 1004.9 |
| 20260506195703 | 63 | 169 | 1.0 | 7.0 | 0.05 | 0.08 | 0.08 | 1 | 1004.9 |
| 20260506195603 | 63 | 169 | 1.0 | 7.0 | 0.05 | 0.08 | 0.08 | 1 | 1004.9 |
| 20260506195524 | 63 | 169 | 2.0 | 11.0 | 0.05 | 0.08 | 0.08 | 1 | 1004.9 |
| 20260506195424 | 63 | 167 | 2.0 | 11.0 | 0.05 | 0.08 | 0.08 | 1 | 1005.0 |
| 20260506195324 | 63 | 167 | 1.0 | 11.0 | 0.05 | 0.08 | 0.08 | 1 | 1005.0 |
| 20260506195224 | 62 | 167 | 1.0 | 11.0 | 0.05 | 0.08 | 0.08 | 1 | 1005.0 |
| 20260506195124 | 62 | 166 | 1.0 | 11.0 | 0.05 | 0.08 | 0.08 | 1 | 1005.0 |
| 20260506195024 | 62 | 165 | 1.0 | 11.0 | 0.05 | 0.08 | 0.08 | 1 | 1005.0 |
| 20260506194924 | 62 | 165 | 1.0 | 11.0 | 0.05 | 0.08 | 0.08 | 1 | 1005.1 |
| 20260506194824 | 62 | 164 | 1.0 | 11.0 | 0.05 | 0.08 | 0.08 | 1 | 1005.1 |
| 20260506194724 | 62 | 164 | 1.0 | 11.0 | 0.05 | 0.08 | 0.08 | 1 | 1005.1 |
| 20260506194624 | 62 | 164 | 1.0 | 11.0 | 0.05 | 0.08 | 0.08 | 1 | 1005.1 |
| 20260506194524 | 62 | 158 | 0.0 | 7.0 | 0.06 | 0.08 | 0.08 | 1 | 1005.1 |
| 20260506194424 | 63 | 157 | 0.0 | 5.0 | 0.06 | 0.08 | 0.08 | 1 | 1005.1 |
| 20260506194324 | 62 | 157 | 0.0 | 5.0 | 0.06 | 0.08 | 0.08 | 1 | 1005.1 |
| 20260506194224 | 62 | 157 | 0.0 | 5.0 | 0.06 | 0.08 | 0.08 | 1 | 1005.1 |
| 20260506194124 | 63 | 156 | 0.0 | 5.0 | 0.06 | 0.08 | 0.08 | 1 | 1005.2 |
| 20260506194003 | 62 | 156 | 0.0 | 5.0 | 0.06 | 0.08 | 0.08 | 1 | 1005.2 |
| 20260506193903 | 62 | 156 | 0.0 | 5.0 | 0.06 | 0.08 | 0.08 | 1 | 1005.2 |
| 20260506193803 | 62 | 156 | 0.0 | 5.0 | 0.06 | 0.08 | 0.08 | 1 | 1005.2 |
| 20260506193703 | 62 | 152 | 0.0 | 6.0 | 0.06 | 0.08 | 0.08 | 1 | 1005.2 |
| 20260506193603 | 63 | 150 | 0.0 | 6.0 | 0.06 | 0.08 | 0.08 | 1 | 1005.2 |
| 20260506193503 | 62 | 150 | 0.0 | 6.0 | 0.06 | 0.08 | 0.08 | 1 | 1005.2 |
| 20260506193403 | 63 | 150 | 0.0 | 6.0 | 0.06 | 0.08 | 0.08 | 1 | 1005.2 |
| 20260506193303 | 63 | 148 | 0.0 | 6.0 | 0.06 | 0.08 | 0.08 | 1 | 1005.2 |
| 20260506193203 | 63 | 148 | 0.0 | 6.0 | 0.06 | 0.08 | 0.08 | 1 | 1005.2 |
| 20260506193104 | 63 | 148 | 0.0 | 6.0 | 0.06 | 0.08 | 0.08 | 1 | 1005.3 |
| 20260506193004 | 62 | 149 | 0.0 | 6.0 | 0.05 | 0.07 | 0.07 | 1 | 1005.3 |
| 20260506192904 | 62 | 149 | 0.0 | 6.0 | 0.05 | 0.07 | 0.07 | 1 | 1005.3 |
| 20260506192804 | 62 | 149 | 0.0 | 6.0 | 0.05 | 0.07 | 0.07 | 1 | 1005.3 |
| 20260506192704 | 63 | 148 | 0.0 | 2.0 | 0.05 | 0.07 | 0.07 | 1 | 1005.3 |
| 20260506192604 | 63 | 165 | 0.0 | 1.0 | 0.05 | 0.07 | 0.07 | 1 | 1005.3 |
| 20260506192504 | 63 | 165 | 0.0 | 6.0 | 0.05 | 0.07 | 0.07 | 1 | 1005.3 |
| 20260506192424 | 63 | 165 | 0.0 | 6.0 | 0.05 | 0.07 | 0.07 | 1 | 1005.3 |
| 20260506192325 | 63 | 165 | 0.0 | 6.0 | 0.05 | 0.07 | 0.07 | 1 | 1005.3 |
| 20260506192224 | 63 | 165 | 0.0 | 6.0 | 0.05 | 0.07 | 0.07 | 1 | 1005.3 |
| 20260506192124 | 63 | 165 | 0.0 | 6.0 | 0.05 | 0.07 | 0.07 | 1 | 1005.3 |
| 20260506192025 | 63 | 165 | 0.0 | 6.0 | 0.05 | 0.07 | 0.07 | 1 | 1005.3 |
| 20260506191925 | 63 | 165 | 0.0 | 6.0 | 0.05 | 0.07 | 0.07 | 1 | 1005.3 |
| 20260506191703 | 63 | 165 | 0.0 | 6.0 | 0.04 | 0.06 | 0.07 | 1 | 1005.3 |
| 20260506191603 | 63 | 165 | 0.0 | 6.0 | 0.04 | 0.06 | 0.06 | 1 | 1005.3 |
| 20260506191503 | 63 | 165 | 0.0 | 5.0 | 0.04 | 0.06 | 0.06 | 1 | 1005.3 |
| 20260506191403 | 63 | 165 | 0.0 | 2.0 | 0.04 | 0.06 | 0.06 | 1 | 1005.3 |
| 20260506191303 | 63 | 165 | 0.0 | 2.0 | 0.04 | 0.06 | 0.06 | 1 | 1005.3 |
| 20260506191203 | 63 | 165 | 0.0 | 2.0 | 0.04 | 0.06 | 0.06 | 1 | 1005.4 |
| 20260506191103 | 63 | 165 | 0.0 | 7.0 | 0.04 | 0.06 | 0.06 | 1 | 1005.4 |
| 20260506191003 | 63 | 165 | 0.0 | 7.0 | 0.04 | 0.06 | 0.06 | 1 | 1005.4 |
| 20260506190903 | 63 | 165 | 0.0 | 7.0 | 0.04 | 0.06 | 0.06 | 1 | 1005.4 |
| 20260506190803 | 63 | 165 | 0.0 | 7.0 | 0.04 | 0.06 | 0.06 | 1 | 1005.4 |
| 20260506190703 | 63 | 165 | 0.0 | 7.0 | 0.03 | 0.05 | 0.05 | 1 | 1005.3 |
| 20260506190603 | 63 | 165 | 1.0 | 7.0 | 0.03 | 0.05 | 0.05 | 1 | 1005.3 |
| 20260506190503 | 63 | 165 | 1.0 | 7.0 | 0.03 | 0.05 | 0.05 | 1 | 1005.4 |
| 20260506190403 | 63 | 165 | 1.0 | 7.0 | 0.03 | 0.05 | 0.05 | 1 | 1005.4 |
| 20260506190303 | 63 | 165 | 1.0 | 7.0 | 0.03 | 0.05 | 0.05 | 1 | 1005.4 |
| 20260506190203 | 63 | 165 | 1.0 | 7.0 | 0.02 | 0.04 | 0.04 | 1 | 1005.3 |
| 20260506190103 | 63 | 165 | 1.0 | 7.0 | 0.02 | 0.04 | 0.04 | 1 | 1005.3 |
| 20260506190004 | 63 | 165 | 1.0 | 8.0 | 0.02 | 0.04 | 0.04 | 1 | 1005.3 |
| 20260506185903 | 63 | 165 | 1.0 | 8.0 | 0.02 | 0.04 | 0.04 | 1 | 1005.3 |
| 20260506185803 | 63 | 165 | 1.0 | 8.0 | 0.02 | 0.04 | 0.04 | 1 | 1005.3 |
| 20260506185703 | 63 | 165 | 1.0 | 8.0 | 0.01 | 0.03 | 0.03 | 1 | 1005.3 |
| 20260506185603 | 64 | 165 | 1.0 | 8.0 | 0.01 | 0.03 | 0.03 | 1 | 1005.3 |
| 20260506185503 | 64 | 165 | 1.0 | 8.0 | 0.01 | 0.03 | 0.03 | 1 | 1005.3 |
| 20260506185403 | 64 | 165 | 1.0 | 8.0 | 0.01 | 0.03 | 0.03 | 1 | 1005.3 |
| 20260506185306 | 64 | 165 | 1.0 | 8.0 | 0.01 | 0.03 | 0.03 | 1 | 1005.3 |
| 20260506185203 | 64 | 164 | 1.0 | 8.0 | 0.01 | 0.03 | 0.03 | 1 | 1005.3 |
| 20260506185103 | 64 | 164 | 1.0 | 10.0 | 0.01 | 0.03 | 0.03 | 1 | 1005.3 |
| 20260506185003 | 64 | 164 | 1.0 | 10.0 | 0.01 | 0.03 | 0.03 | 1 | 1005.3 |
| 20260506184903 | 64 | 164 | 1.0 | 10.0 | 0.01 | 0.03 | 0.03 | 1 | 1005.3 |
| 20260506184803 | 64 | 164 | 1.0 | 10.0 | 0.01 | 0.03 | 0.03 | 1 | 1005.3 |
| 20260506184703 | 64 | 164 | 1.0 | 10.0 | 0.01 | 0.03 | 0.03 | 1 | 1005.3 |
| 20260506184603 | 64 | 164 | 1.0 | 10.0 | 0.01 | 0.03 | 0.03 | 1 | 1005.3 |
| 20260506184503 | 64 | 164 | 0.0 | 10.0 | 0.00 | 0.02 | 0.02 | 1 | 1005.3 |
| 20260506184403 | 64 | 164 | 0.0 | 10.0 | 0.00 | 0.02 | 0.02 | 1 | 1005.3 |
| 20260506184303 | 64 | 164 | 0.0 | 10.0 | 0.00 | 0.02 | 0.02 | 1 | 1005.3 |
| 20260506184203 | 64 | 164 | 0.0 | 10.0 | 0.00 | 0.02 | 0.02 | 1 | 1005.3 |
| 20260506184103 | 64 | 0 | 0.0 | 0.0 | 0.00 | 0.02 | 0.02 | 1 | 1005.3 |
| 20260506184003 | 64 | 0 | 0.0 | 0.0 | 0.00 | 0.02 | 0.02 | 1 | 1005.3 |
| 20260506183903 | 64 | 0 | 0.0 | 0.0 | 0.00 | 0.02 | 0.02 | 1 | 1005.3 |
| 20260506183803 | 64 | 0 | 0.0 | 0.0 | 0.00 | 0.02 | 0.02 | 1 | 1005.3 |
| 20260506183704 | 64 | 167 | 0.0 | 4.0 | 0.00 | 0.02 | 0.02 | 1 | 1005.3 |
| 20260506183603 | 64 | 167 | 0.0 | 5.0 | 0.00 | 0.02 | 0.02 | 1 | 1005.4 |
| 20260506183503 | 64 | 167 | 0.0 | 5.0 | 0.00 | 0.02 | 0.02 | 1 | 1005.4 |
| 20260506183403 | 64 | 167 | 0.0 | 5.0 | 0.00 | 0.02 | 0.02 | 1 | 1005.4 |
| 20260506183303 | 64 | 167 | 0.0 | 5.0 | 0.00 | 0.02 | 0.02 | 1 | 1005.4 |
| 20260506183203 | 64 | 167 | 1.0 | 7.0 | 0.00 | 0.02 | 0.02 | 1 | 1005.4 |
| 20260506183124 | 64 | 167 | 1.0 | 7.0 | 0.00 | 0.02 | 0.02 | 1 | 1005.4 |
| 20260506183024 | 64 | 167 | 1.0 | 7.0 | 0.00 | 0.02 | 0.02 | 1 | 1005.4 |
| 20260506182924 | 64 | 167 | 1.0 | 7.0 | 0.00 | 0.02 | 0.02 | 1 | 1005.4 |
| 20260506182824 | 64 | 167 | 1.0 | 7.0 | 0.00 | 0.02 | 0.02 | 1 | 1005.4 |
| 20260506182724 | 64 | 167 | 1.0 | 7.0 | 0.00 | 0.02 | 0.02 | 1 | 1005.4 |
| 20260506182624 | 64 | 166 | 2.0 | 7.0 | 0.00 | 0.02 | 0.02 | 1 | 1005.3 |
| 20260506182524 | 64 | 166 | 2.0 | 8.0 | 0.00 | 0.02 | 0.02 | 1 | 1005.3 |
| 20260506182424 | 64 | 166 | 3.0 | 8.0 | 0.00 | 0.02 | 0.02 | 1 | 1005.3 |
| 20260506182324 | 64 | 166 | 3.0 | 8.0 | 0.00 | 0.02 | 0.02 | 1 | 1005.4 |
| 20260506182224 | 64 | 166 | 3.0 | 8.0 | 0.00 | 0.02 | 0.02 | 1 | 1005.4 |
| 20260506182103 | 64 | 166 | 3.0 | 8.0 | 0.00 | 0.02 | 0.02 | 1 | 1005.4 |
| 20260506182003 | 64 | 166 | 3.0 | 8.0 | 0.00 | 0.02 | 0.02 | 1 | 1005.5 |
| 20260506181904 | 64 | 166 | 3.0 | 8.0 | 0.00 | 0.02 | 0.02 | 1 | 1005.5 |
| 20260506181804 | 64 | 166 | 3.0 | 8.0 | 0.00 | 0.02 | 0.02 | 1 | 1005.5 |
| 20260506181704 | 64 | 166 | 3.0 | 8.0 | 0.00 | 0.02 | 0.02 | 1 | 1005.6 |
| 20260506181604 | 64 | 166 | 2.0 | 8.0 | 0.00 | 0.02 | 0.02 | 1 | 1005.6 |
| 20260506181525 | 64 | 166 | 2.0 | 8.0 | 0.00 | 0.02 | 0.02 | 1 | 1005.6 |
| 20260506181425 | 64 | 166 | 1.0 | 8.0 | 0.00 | 0.02 | 0.02 | 1 | 1005.6 |
| 20260506181325 | 64 | 166 | 1.0 | 8.0 | 0.00 | 0.02 | 0.02 | 1 | 1005.7 |
| 20260506181224 | 64 | 166 | 0.0 | 8.0 | 0.00 | 0.02 | 0.02 | 1 | 1005.7 |
| 20260506181125 | 64 | 166 | 0.0 | 4.0 | 0.00 | 0.02 | 0.02 | 1 | 1005.7 |
| 20260506181003 | 64 | 0 | 0.0 | 0.0 | 0.00 | 0.02 | 0.02 | 1 | 1005.7 |
| 20260506180903 | 64 | 0 | 0.0 | 0.0 | 0.00 | 0.02 | 0.02 | 1 | 1005.7 |
| 20260506180803 | 64 | 0 | 0.0 | 0.0 | 0.00 | 0.02 | 0.02 | 1 | 1005.7 |
| 20260506180703 | 64 | 0 | 0.0 | 0.0 | 0.00 | 0.02 | 0.02 | 1 | 1005.8 |
| 20260506180603 | 64 | 0 | 0.0 | 0.0 | 0.00 | 0.02 | 0.02 | 1 | 1005.8 |
| 20260506180503 | 64 | 0 | 0.0 | 0.0 | 0.00 | 0.02 | 0.02 | 1 | 1005.7 |
| 20260506180403 | 64 | 166 | 0.0 | 6.0 | 0.00 | 0.02 | 0.02 | 1 | 1005.7 |
| 20260506180303 | 64 | 166 | 1.0 | 6.0 | 0.00 | 0.02 | 0.02 | 1 | 1005.7 |
| 20260506180203 | 64 | 166 | 1.0 | 6.0 | 0.00 | 0.02 | 0.02 | 1 | 1005.6 |
| 20260506180103 | 64 | 166 | 1.0 | 6.0 | 0.00 | 0.02 | 0.02 | 1 | 1005.6 |
| 20260506180004 | 64 | 166 | 1.0 | 6.0 | 0.00 | 0.02 | 0.02 | 1 | 1005.7 |
| 20260506175903 | 64 | 166 | 1.0 | 6.0 | 0.00 | 0.02 | 0.02 | 1 | 1005.8 |
| 20260506175803 | 64 | 166 | 1.0 | 6.0 | 0.00 | 0.02 | 0.02 | 1 | 1005.8 |
| 20260506175703 | 64 | 166 | 2.0 | 8.0 | 0.00 | 0.02 | 0.02 | 1 | 1005.7 |
| 20260506175603 | 64 | 166 | 2.0 | 8.0 | 0.00 | 0.02 | 0.02 | 1 | 1005.7 |
| 20260506175503 | 64 | 166 | 2.0 | 8.0 | 0.00 | 0.02 | 0.02 | 1 | 1005.7 |
| 20260506175403 | 64 | 166 | 1.0 | 8.0 | 0.00 | 0.02 | 0.02 | 1 | 1005.7 |
| 20260506175306 | 64 | 166 | 1.0 | 8.0 | 0.00 | 0.02 | 0.02 | 1 | 1005.7 |
| 20260506175203 | 64 | 166 | 1.0 | 8.0 | 0.01 | 0.02 | 0.02 | 1 | 1005.7 |
| 20260506175103 | 64 | 166 | 1.0 | 8.0 | 0.01 | 0.02 | 0.02 | 1 | 1005.7 |
| 20260506175024 | 64 | 166 | 1.0 | 8.0 | 0.01 | 0.02 | 0.02 | 1 | 1005.7 |
| 20260506174924 | 64 | 166 | 1.0 | 8.0 | 0.01 | 0.02 | 0.02 | 1 | 1005.7 |
| 20260506174824 | 64 | 166 | 1.0 | 8.0 | 0.01 | 0.02 | 0.02 | 1 | 1005.7 |
| 20260506174724 | 64 | 165 | 1.0 | 6.0 | 0.01 | 0.02 | 0.02 | 1 | 1005.7 |
| 20260506174624 | 64 | 165 | 1.0 | 6.0 | 0.01 | 0.02 | 0.02 | 1 | 1005.8 |
| 20260506174503 | 64 | 165 | 1.0 | 6.0 | 0.01 | 0.02 | 0.02 | 1 | 1005.9 |
| 20260506174403 | 64 | 165 | 1.0 | 6.0 | 0.01 | 0.02 | 0.02 | 1 | 1005.9 |
| 20260506174303 | 64 | 165 | 1.0 | 6.0 | 0.02 | 0.02 | 0.02 | 1 | 1005.8 |
| 20260506174203 | 64 | 165 | 1.0 | 7.0 | 0.02 | 0.02 | 0.02 | 1 | 1005.8 |
| 20260506174103 | 64 | 165 | 1.0 | 7.0 | 0.02 | 0.02 | 0.02 | 1 | 1005.9 |
| 20260506174003 | 64 | 165 | 1.0 | 7.0 | 0.02 | 0.02 | 0.02 | 1 | 1005.9 |
| 20260506173903 | 64 | 165 | 1.0 | 7.0 | 0.02 | 0.02 | 0.02 | 1 | 1005.9 |
| 20260506173803 | 64 | 165 | 1.0 | 7.0 | 0.02 | 0.02 | 0.02 | 1 | 1005.9 |
| 20260506173703 | 64 | 165 | 1.0 | 7.0 | 0.02 | 0.02 | 0.02 | 1 | 1005.9 |
| 20260506173603 | 64 | 165 | 1.0 | 7.0 | 0.02 | 0.02 | 0.02 | 1 | 1005.9 |
| 20260506173503 | 64 | 165 | 1.0 | 7.0 | 0.02 | 0.02 | 0.02 | 1 | 1005.9 |
| 20260506173403 | 64 | 165 | 1.0 | 7.0 | 0.02 | 0.02 | 0.02 | 1 | 1005.9 |
| 20260506173303 | 64 | 165 | 0.0 | 7.0 | 0.02 | 0.02 | 0.02 | 1 | 1005.8 |
| 20260506173203 | 64 | 165 | 0.0 | 5.0 | 0.02 | 0.02 | 0.02 | 1 | 1005.8 |
| 20260506173103 | 64 | 165 | 1.0 | 5.0 | 0.02 | 0.02 | 0.02 | 1 | 1005.8 |
| 20260506173003 | 64 | 165 | 1.0 | 7.0 | 0.02 | 0.02 | 0.02 | 1 | 1005.8 |
| 20260506172903 | 64 | 165 | 1.0 | 7.0 | 0.02 | 0.02 | 0.02 | 1 | 1005.8 |
| 20260506172803 | 64 | 165 | 1.0 | 7.0 | 0.02 | 0.02 | 0.02 | 1 | 1005.7 |
| 20260506172703 | 64 | 165 | 1.0 | 7.0 | 0.02 | 0.02 | 0.02 | 1 | 1005.7 |
| 20260506172603 | 64 | 165 | 1.0 | 7.0 | 0.02 | 0.02 | 0.02 | 1 | 1005.7 |
| 20260506172503 | 64 | 165 | 1.0 | 7.0 | 0.02 | 0.02 | 0.02 | 1 | 1005.6 |
| 20260506172403 | 64 | 165 | 1.0 | 7.0 | 0.02 | 0.02 | 0.02 | 1 | 1005.6 |
| 20260506172306 | 64 | 165 | 1.0 | 7.0 | 0.02 | 0.02 | 0.02 | 1 | 1005.7 |
| 20260506172203 | 65 | 165 | 1.0 | 7.0 | 0.02 | 0.02 | 0.02 | 1 | 1005.7 |
| 20260506172103 | 65 | 165 | 0.0 | 7.0 | 0.02 | 0.02 | 0.02 | 1 | 1005.7 |
| 20260506172003 | 65 | 165 | 0.0 | 1.0 | 0.02 | 0.02 | 0.02 | 1 | 1005.7 |
| 20260506171903 | 65 | 165 | 0.0 | 1.0 | 0.02 | 0.02 | 0.02 | 1 | 1005.7 |
| 20260506171803 | 65 | 166 | 0.0 | 6.0 | 0.02 | 0.02 | 0.02 | 1 | 1005.7 |
| 20260506171703 | 65 | 166 | 0.0 | 7.0 | 0.02 | 0.02 | 0.02 | 1 | 1005.7 |
| 20260506171604 | 65 | 166 | 0.0 | 7.0 | 0.02 | 0.02 | 0.02 | 1 | 1005.7 |
| 20260506171525 | 65 | 166 | 0.0 | 7.0 | 0.02 | 0.02 | 0.02 | 1 | 1005.7 |
| 20260506171425 | 65 | 166 | 1.0 | 7.0 | 0.02 | 0.02 | 0.02 | 1 | 1005.7 |
| 20260506171325 | 65 | 166 | 1.0 | 7.0 | 0.02 | 0.02 | 0.02 | 1 | 1005.7 |
| 20260506171225 | 65 | 166 | 1.0 | 7.0 | 0.02 | 0.02 | 0.02 | 1 | 1005.7 |
| 20260506171125 | 65 | 166 | 1.0 | 7.0 | 0.02 | 0.02 | 0.02 | 1 | 1005.7 |
| 20260506171003 | 65 | 166 | 1.0 | 7.0 | 0.02 | 0.02 | 0.02 | 1 | 1005.7 |
| 20260506170903 | 65 | 166 | 1.0 | 7.0 | 0.02 | 0.02 | 0.02 | 1 | 1005.7 |
| 20260506170803 | 65 | 165 | 0.0 | 7.0 | 0.02 | 0.02 | 0.02 | 1 | 1005.7 |
| 20260506170703 | 65 | 165 | 0.0 | 5.0 | 0.02 | 0.02 | 0.02 | 1 | 1005.6 |
| 20260506170603 | 65 | 165 | 0.0 | 5.0 | 0.02 | 0.02 | 0.02 | 1 | 1005.6 |
| 20260506170503 | 65 | 165 | 0.0 | 5.0 | 0.02 | 0.02 | 0.02 | 1 | 1005.6 |
| 20260506170403 | 65 | 166 | 0.0 | 5.0 | 0.02 | 0.02 | 0.02 | 1 | 1005.6 |
| 20260506170303 | 65 | 165 | 0.0 | 1.0 | 0.02 | 0.02 | 0.02 | 1 | 1005.6 |
| 20260506170203 | 65 | 165 | 0.0 | 1.0 | 0.02 | 0.02 | 0.02 | 1 | 1005.6 |
| 20260506170124 | 65 | 165 | 0.0 | 1.0 | 0.02 | 0.02 | 0.02 | 1 | 1005.6 |
| 20260506170004 | 65 | 165 | 0.0 | 1.0 | 0.02 | 0.02 | 0.02 | 1 | 1005.6 |